<?xml version="1.0" encoding="UTF-8" standalone="no" ?>
<gpx xmlns="http://www.topografix.com/GPX/1/1" xmlns:xsi="http://www.w3.org/2001/XMLSchema-instance" xsi:schemaLocation="http://www.topografix.com/GPX/1/1 http://www.topografix.com/GPX/1/1/gpx.xsd" version="1.1" creator="VisuGPX - https://www.visugpx.com">
  <metadata>
    <name>Blis et Born 30km</name>
  </metadata>
  <trk>
    <name><![CDATA[Blis et Born 30km]]></name>
    <extensions>
      <line xmlns="http://www.topografix.com/GPX/gpx_style/0/2">
        <color>0000FF</color>
        <width>4</width>
      </line>
    </extensions>
    <trkseg>
      <trkpt lat="45.1818" lon="0.90795">
        <ele>210.7</ele>
      </trkpt>
      <trkpt lat="45.18185" lon="0.90761">
        <ele>210.6</ele>
      </trkpt>
      <trkpt lat="45.18149" lon="0.90747">
        <ele>207.5</ele>
        <time>2011-02-17T09:44:41Z</time>
      </trkpt>
      <trkpt lat="45.18132" lon="0.90745">
        <ele>207.9</ele>
        <time>2011-02-17T09:44:25Z</time>
      </trkpt>
      <trkpt lat="45.1811" lon="0.90753">
        <ele>208.3</ele>
        <time>2011-02-17T09:44:05Z</time>
      </trkpt>
      <trkpt lat="45.18093" lon="0.90762">
        <ele>208.5</ele>
        <time>2011-02-17T09:43:48Z</time>
      </trkpt>
      <trkpt lat="45.18074" lon="0.90768">
        <ele>208.6</ele>
        <time>2011-02-17T09:43:29Z</time>
      </trkpt>
      <trkpt lat="45.1807" lon="0.9079">
        <ele>208.3</ele>
        <time>2011-02-17T09:43:13Z</time>
      </trkpt>
      <trkpt lat="45.18074" lon="0.90962">
        <ele>201.1</ele>
        <time>2011-02-17T09:40:57Z</time>
      </trkpt>
      <trkpt lat="45.18087" lon="0.91016">
        <ele>205.2</ele>
        <time>2011-02-17T09:40:18Z</time>
      </trkpt>
      <trkpt lat="45.18086" lon="0.91079">
        <ele>208.1</ele>
        <time>2011-02-17T09:39:39Z</time>
      </trkpt>
      <trkpt lat="45.18071" lon="0.9111">
        <ele>207.8</ele>
        <time>2011-02-17T09:39:13Z</time>
      </trkpt>
      <trkpt lat="45.18056" lon="0.91166">
        <ele>209.8</ele>
        <time>2011-02-17T09:38:35Z</time>
      </trkpt>
      <trkpt lat="45.1806" lon="0.91223">
        <ele>212.3</ele>
        <time>2011-02-17T09:37:59Z</time>
      </trkpt>
      <trkpt lat="45.18067" lon="0.91264">
        <ele>213.3</ele>
        <time>2011-02-17T09:37:33Z</time>
      </trkpt>
      <trkpt lat="45.18078" lon="0.91385">
        <ele>214.5</ele>
        <time>2011-02-17T09:36:13Z</time>
      </trkpt>
      <trkpt lat="45.1809" lon="0.91493">
        <ele>215.5</ele>
        <time>2011-02-17T09:35:02Z</time>
      </trkpt>
      <trkpt lat="45.18109" lon="0.91534">
        <ele>216.5</ele>
        <time>2011-02-17T09:34:31Z</time>
      </trkpt>
      <trkpt lat="45.18123" lon="0.91536">
        <ele>217.5</ele>
        <time>2011-02-17T09:34:18Z</time>
      </trkpt>
      <trkpt lat="45.18137" lon="0.91518">
        <ele>218.9</ele>
        <time>2011-02-17T09:34:01Z</time>
      </trkpt>
      <trkpt lat="45.18156" lon="0.91497">
        <ele>219.6</ele>
        <time>2011-02-17T09:33:40Z</time>
      </trkpt>
      <trkpt lat="45.18171" lon="0.91459">
        <ele>220.6</ele>
        <time>2011-02-17T09:33:12Z</time>
      </trkpt>
      <trkpt lat="45.18192" lon="0.91516">
        <ele>220.5</ele>
        <time>2011-02-17T09:32:29Z</time>
      </trkpt>
      <trkpt lat="45.18217" lon="0.9155">
        <ele>222.6</ele>
        <time>2011-02-17T09:31:58Z</time>
      </trkpt>
      <trkpt lat="45.18274" lon="0.9163">
        <ele>229</ele>
        <time>2011-02-17T09:30:44Z</time>
      </trkpt>
      <trkpt lat="45.18295" lon="0.91666">
        <ele>230.6</ele>
        <time>2011-02-17T09:30:15Z</time>
      </trkpt>
      <trkpt lat="45.18302" lon="0.9171">
        <ele>232.4</ele>
        <time>2011-02-17T09:29:47Z</time>
      </trkpt>
      <trkpt lat="45.18333" lon="0.91751">
        <ele>234.7</ele>
        <time>2011-02-17T09:29:10Z</time>
      </trkpt>
      <trkpt lat="45.18419" lon="0.91827">
        <ele>238.2</ele>
      </trkpt>
      <trkpt lat="45.1842" lon="0.9189">
        <ele>231.4</ele>
        <time>2011-02-17T09:26:31Z</time>
      </trkpt>
      <trkpt lat="45.18445" lon="0.91951">
        <ele>227.2</ele>
        <time>2011-02-17T09:25:30Z</time>
      </trkpt>
      <trkpt lat="45.18452" lon="0.9194">
        <ele>227.5</ele>
        <time>2011-02-17T09:25:20Z</time>
      </trkpt>
      <trkpt lat="45.18481" lon="0.91919">
        <ele>226.9</ele>
        <time>2011-02-17T09:24:48Z</time>
      </trkpt>
      <trkpt lat="45.18582" lon="0.91782">
        <ele>237.6</ele>
      </trkpt>
      <trkpt lat="45.18631" lon="0.9181">
        <ele>221.7</ele>
        <time>2011-02-17T09:20:32Z</time>
      </trkpt>
      <trkpt lat="45.18706" lon="0.91878">
        <ele>208</ele>
        <time>2011-02-17T09:18:15Z</time>
      </trkpt>
      <trkpt lat="45.18747" lon="0.9195">
        <ele>202</ele>
        <time>2011-02-17T09:16:53Z</time>
      </trkpt>
      <trkpt lat="45.18825" lon="0.92004">
        <ele>199.5</ele>
        <time>2011-02-17T09:15:25Z</time>
      </trkpt>
      <trkpt lat="45.18874" lon="0.92084">
        <ele>199.3</ele>
        <time>2011-02-17T09:14:13Z</time>
      </trkpt>
      <trkpt lat="45.18935" lon="0.92169">
        <ele>197</ele>
        <time>2011-02-17T09:12:46Z</time>
      </trkpt>
      <trkpt lat="45.18965" lon="0.92185">
        <ele>195.4</ele>
        <time>2011-02-17T09:12:11Z</time>
      </trkpt>
      <trkpt lat="45.18995" lon="0.9223">
        <ele>194.3</ele>
        <time>2011-02-17T09:11:27Z</time>
      </trkpt>
      <trkpt lat="45.19044" lon="0.92226">
        <ele>190.7</ele>
        <time>2011-02-17T09:10:30Z</time>
      </trkpt>
      <trkpt lat="45.19121" lon="0.92146">
        <ele>186.4</ele>
        <time>2011-02-17T09:08:47Z</time>
      </trkpt>
      <trkpt lat="45.19124" lon="0.92151">
        <ele>188.2</ele>
      </trkpt>
      <trkpt lat="45.19213" lon="0.92278">
        <ele>176.5</ele>
      </trkpt>
      <trkpt lat="45.19271" lon="0.92334">
        <ele>171</ele>
      </trkpt>
      <trkpt lat="45.19327" lon="0.92394">
        <ele>170.3</ele>
      </trkpt>
      <trkpt lat="45.19384" lon="0.9245">
        <ele>168.6</ele>
      </trkpt>
      <trkpt lat="45.19432" lon="0.92484">
        <ele>167</ele>
      </trkpt>
      <trkpt lat="45.19458" lon="0.92514">
        <ele>165.7</ele>
      </trkpt>
      <trkpt lat="45.19456" lon="0.92603">
        <ele>159.7</ele>
      </trkpt>
      <trkpt lat="45.19485" lon="0.9273">
        <ele>152.1</ele>
      </trkpt>
      <trkpt lat="45.1952" lon="0.9282">
        <ele>147.3</ele>
      </trkpt>
      <trkpt lat="45.19565" lon="0.92831">
        <ele>143.6</ele>
      </trkpt>
      <trkpt lat="45.19607" lon="0.92857">
        <ele>140.7</ele>
      </trkpt>
      <trkpt lat="45.19673" lon="0.92891">
        <ele>135.1</ele>
      </trkpt>
      <trkpt lat="45.19676" lon="0.92914">
        <ele>133.9</ele>
      </trkpt>
      <trkpt lat="45.19634" lon="0.92998">
        <ele>171.97</ele>
        <time>2017-12-07T13:58:21.725Z</time>
      </trkpt>
      <trkpt lat="45.1963" lon="0.93002">
        <ele>172.11</ele>
        <time>2017-12-07T13:58:24.725Z</time>
      </trkpt>
      <trkpt lat="45.19626" lon="0.93007">
        <ele>172.37</ele>
        <time>2017-12-07T13:58:26.726Z</time>
      </trkpt>
      <trkpt lat="45.19621" lon="0.9301">
        <ele>172.76</ele>
        <time>2017-12-07T13:58:29.726Z</time>
      </trkpt>
      <trkpt lat="45.19617" lon="0.93015">
        <ele>172.82</ele>
        <time>2017-12-07T13:58:32.726Z</time>
      </trkpt>
      <trkpt lat="45.19613" lon="0.93022">
        <ele>172.96</ele>
        <time>2017-12-07T13:58:35.727Z</time>
      </trkpt>
      <trkpt lat="45.19608" lon="0.93025">
        <ele>173.3</ele>
        <time>2017-12-07T13:58:41.729Z</time>
      </trkpt>
      <trkpt lat="45.19604" lon="0.93028">
        <ele>173.2</ele>
        <time>2017-12-07T13:58:45.730Z</time>
      </trkpt>
      <trkpt lat="45.196" lon="0.93031">
        <ele>173.22</ele>
        <time>2017-12-07T13:58:50.732Z</time>
      </trkpt>
      <trkpt lat="45.19595" lon="0.93031">
        <ele>173.7</ele>
        <time>2017-12-07T13:58:56.733Z</time>
      </trkpt>
      <trkpt lat="45.1959" lon="0.93031">
        <ele>173.84</ele>
        <time>2017-12-07T13:59:01.735Z</time>
      </trkpt>
      <trkpt lat="45.19585" lon="0.93029">
        <ele>173.86</ele>
        <time>2017-12-07T13:59:06.737Z</time>
      </trkpt>
      <trkpt lat="45.19581" lon="0.93026">
        <ele>173.18</ele>
        <time>2017-12-07T13:59:11.741Z</time>
      </trkpt>
      <trkpt lat="45.19576" lon="0.93026">
        <ele>172.21</ele>
        <time>2017-12-07T13:59:17.744Z</time>
      </trkpt>
      <trkpt lat="45.19572" lon="0.93022">
        <ele>171.57</ele>
        <time>2017-12-07T13:59:22.746Z</time>
      </trkpt>
      <trkpt lat="45.19568" lon="0.93018">
        <ele>170.04</ele>
        <time>2017-12-07T13:59:30.750Z</time>
      </trkpt>
      <trkpt lat="45.19564" lon="0.93013">
        <ele>169.03</ele>
        <time>2017-12-07T13:59:38.757Z</time>
      </trkpt>
      <trkpt lat="45.1956" lon="0.93009">
        <ele>169.15</ele>
        <time>2017-12-07T13:59:40.758Z</time>
      </trkpt>
      <trkpt lat="45.19554" lon="0.93005">
        <ele>169.95</ele>
        <time>2017-12-07T13:59:46.766Z</time>
      </trkpt>
      <trkpt lat="45.19548" lon="0.93">
        <ele>169.98</ele>
        <time>2017-12-07T13:59:49.771Z</time>
      </trkpt>
      <trkpt lat="45.19541" lon="0.93002">
        <ele>169.95</ele>
        <time>2017-12-07T13:59:51.776Z</time>
      </trkpt>
      <trkpt lat="45.19537" lon="0.92997">
        <ele>169.69</ele>
        <time>2017-12-07T13:59:56.780Z</time>
      </trkpt>
      <trkpt lat="45.19532" lon="0.92992">
        <ele>169.37</ele>
        <time>2017-12-07T14:00:01.781Z</time>
      </trkpt>
      <trkpt lat="45.19528" lon="0.92989">
        <ele>169.29</ele>
        <time>2017-12-07T14:00:07.788Z</time>
      </trkpt>
      <trkpt lat="45.19523" lon="0.92988">
        <ele>169.34</ele>
        <time>2017-12-07T14:00:10.793Z</time>
      </trkpt>
      <trkpt lat="45.19519" lon="0.92985">
        <ele>169.51</ele>
        <time>2017-12-07T14:00:14.797Z</time>
      </trkpt>
      <trkpt lat="45.19515" lon="0.92983">
        <ele>169.06</ele>
        <time>2017-12-07T14:00:20.807Z</time>
      </trkpt>
      <trkpt lat="45.1951" lon="0.92979">
        <ele>168.33</ele>
        <time>2017-12-07T14:00:25.813Z</time>
      </trkpt>
      <trkpt lat="45.19507" lon="0.92974">
        <ele>168.02</ele>
        <time>2017-12-07T14:00:29.818Z</time>
      </trkpt>
      <trkpt lat="45.19503" lon="0.92972">
        <ele>167.72</ele>
        <time>2017-12-07T14:00:35.827Z</time>
      </trkpt>
      <trkpt lat="45.19497" lon="0.92968">
        <ele>167.34</ele>
        <time>2017-12-07T14:00:41.833Z</time>
      </trkpt>
      <trkpt lat="45.19492" lon="0.92966">
        <ele>167.3</ele>
        <time>2017-12-07T14:00:47.843Z</time>
      </trkpt>
      <trkpt lat="45.19488" lon="0.92964">
        <ele>167.93</ele>
        <time>2017-12-07T14:00:52.852Z</time>
      </trkpt>
      <trkpt lat="45.19483" lon="0.92964">
        <ele>168.45</ele>
        <time>2017-12-07T14:00:55.858Z</time>
      </trkpt>
      <trkpt lat="45.19476" lon="0.92964">
        <ele>169.04</ele>
        <time>2017-12-07T14:01:00.866Z</time>
      </trkpt>
      <trkpt lat="45.19471" lon="0.92968">
        <ele>169.28</ele>
        <time>2017-12-07T14:01:02.870Z</time>
      </trkpt>
      <trkpt lat="45.19466" lon="0.92968">
        <ele>170.06</ele>
        <time>2017-12-07T14:01:06.874Z</time>
      </trkpt>
      <trkpt lat="45.19461" lon="0.9297">
        <ele>170.47</ele>
        <time>2017-12-07T14:01:10.881Z</time>
      </trkpt>
      <trkpt lat="45.19457" lon="0.9297">
        <ele>170.77</ele>
        <time>2017-12-07T14:01:16.891Z</time>
      </trkpt>
      <trkpt lat="45.19453" lon="0.92966">
        <ele>170.75</ele>
        <time>2017-12-07T14:01:24.904Z</time>
      </trkpt>
      <trkpt lat="45.19448" lon="0.92966">
        <ele>170.84</ele>
        <time>2017-12-07T14:01:28.911Z</time>
      </trkpt>
      <trkpt lat="45.19444" lon="0.92964">
        <ele>171.33</ele>
        <time>2017-12-07T14:01:33.917Z</time>
      </trkpt>
      <trkpt lat="45.19439" lon="0.92962">
        <ele>171.8</ele>
        <time>2017-12-07T14:01:37.924Z</time>
      </trkpt>
      <trkpt lat="45.19434" lon="0.92963">
        <ele>172.39</ele>
        <time>2017-12-07T14:01:42.936Z</time>
      </trkpt>
      <trkpt lat="45.19429" lon="0.92962">
        <ele>173.09</ele>
        <time>2017-12-07T14:01:46.944Z</time>
      </trkpt>
      <trkpt lat="45.19423" lon="0.92968">
        <ele>173.28</ele>
        <time>2017-12-07T14:01:48.949Z</time>
      </trkpt>
      <trkpt lat="45.1942" lon="0.92972">
        <ele>173.63</ele>
        <time>2017-12-07T14:01:51.953Z</time>
      </trkpt>
      <trkpt lat="45.19415" lon="0.92971">
        <ele>174.95</ele>
        <time>2017-12-07T14:01:57.964Z</time>
      </trkpt>
      <trkpt lat="45.19409" lon="0.92972">
        <ele>175.69</ele>
        <time>2017-12-07T14:02:01.970Z</time>
      </trkpt>
      <trkpt lat="45.19404" lon="0.92975">
        <ele>175.76</ele>
        <time>2017-12-07T14:02:04.976Z</time>
      </trkpt>
      <trkpt lat="45.194" lon="0.92978">
        <ele>175.39</ele>
        <time>2017-12-07T14:02:08.985Z</time>
      </trkpt>
      <trkpt lat="45.19395" lon="0.92979">
        <ele>174.37</ele>
        <time>2017-12-07T14:02:15.998Z</time>
      </trkpt>
      <trkpt lat="45.19391" lon="0.92979">
        <ele>174.21</ele>
        <time>2017-12-07T14:02:19.998Z</time>
      </trkpt>
      <trkpt lat="45.19386" lon="0.92976">
        <ele>174.19</ele>
        <time>2017-12-07T14:02:21.999Z</time>
      </trkpt>
      <trkpt lat="45.19381" lon="0.92975">
        <ele>173.81</ele>
        <time>2017-12-07T14:02:28.040Z</time>
      </trkpt>
      <trkpt lat="45.19376" lon="0.92977">
        <ele>174.03</ele>
        <time>2017-12-07T14:02:33.110Z</time>
      </trkpt>
      <trkpt lat="45.1937" lon="0.92976">
        <ele>173.71</ele>
        <time>2017-12-07T14:02:39.230Z</time>
      </trkpt>
      <trkpt lat="45.19366" lon="0.92979">
        <ele>173.6</ele>
        <time>2017-12-07T14:02:41.280Z</time>
      </trkpt>
      <trkpt lat="45.19362" lon="0.92984">
        <ele>173.36</ele>
        <time>2017-12-07T14:02:45.350Z</time>
      </trkpt>
      <trkpt lat="45.19357" lon="0.92986">
        <ele>173.32</ele>
        <time>2017-12-07T14:02:50.410Z</time>
      </trkpt>
      <trkpt lat="45.19352" lon="0.92986">
        <ele>172.92</ele>
        <time>2017-12-07T14:02:56.450Z</time>
      </trkpt>
      <trkpt lat="45.19347" lon="0.92988">
        <ele>172.44</ele>
        <time>2017-12-07T14:03:00.470Z</time>
      </trkpt>
      <trkpt lat="45.19342" lon="0.92993">
        <ele>171.81</ele>
        <time>2017-12-07T14:03:06.610Z</time>
      </trkpt>
      <trkpt lat="45.19338" lon="0.92996">
        <ele>171.57</ele>
        <time>2017-12-07T14:03:13.760Z</time>
      </trkpt>
      <trkpt lat="45.19334" lon="0.92995">
        <ele>171.65</ele>
        <time>2017-12-07T14:03:22.910Z</time>
      </trkpt>
      <trkpt lat="45.1933" lon="0.92999">
        <ele>172.43</ele>
        <time>2017-12-07T14:03:30.107Z</time>
      </trkpt>
      <trkpt lat="45.19326" lon="0.93005">
        <ele>173</ele>
        <time>2017-12-07T14:03:35.112Z</time>
      </trkpt>
      <trkpt lat="45.19323" lon="0.9301">
        <ele>173.38</ele>
        <time>2017-12-07T14:03:39.113Z</time>
      </trkpt>
      <trkpt lat="45.19319" lon="0.93016">
        <ele>174.43</ele>
        <time>2017-12-07T14:03:45.115Z</time>
      </trkpt>
      <trkpt lat="45.19317" lon="0.93023">
        <ele>174.9</ele>
        <time>2017-12-07T14:03:47.116Z</time>
      </trkpt>
      <trkpt lat="45.19313" lon="0.93032">
        <ele>175.71</ele>
        <time>2017-12-07T14:03:52.122Z</time>
      </trkpt>
      <trkpt lat="45.1931" lon="0.93037">
        <ele>176.04</ele>
        <time>2017-12-07T14:03:55.128Z</time>
      </trkpt>
      <trkpt lat="45.19307" lon="0.93042">
        <ele>176.68</ele>
        <time>2017-12-07T14:03:59.132Z</time>
      </trkpt>
      <trkpt lat="45.19303" lon="0.93047">
        <ele>177.6</ele>
        <time>2017-12-07T14:04:08.145Z</time>
      </trkpt>
      <trkpt lat="45.19301" lon="0.93055">
        <ele>177.84</ele>
        <time>2017-12-07T14:04:11.152Z</time>
      </trkpt>
      <trkpt lat="45.19301" lon="0.93061">
        <ele>178.34</ele>
        <time>2017-12-07T14:04:14.157Z</time>
      </trkpt>
      <trkpt lat="45.19298" lon="0.93067">
        <ele>178.92</ele>
        <time>2017-12-07T14:04:17.162Z</time>
      </trkpt>
      <trkpt lat="45.19298" lon="0.93073">
        <ele>179.45</ele>
        <time>2017-12-07T14:04:22.168Z</time>
      </trkpt>
      <trkpt lat="45.19297" lon="0.93081">
        <ele>179.94</ele>
        <time>2017-12-07T14:04:26.172Z</time>
      </trkpt>
      <trkpt lat="45.19294" lon="0.93088">
        <ele>180.75</ele>
        <time>2017-12-07T14:04:31.180Z</time>
      </trkpt>
      <trkpt lat="45.19291" lon="0.93094">
        <ele>181.21</ele>
        <time>2017-12-07T14:04:34.187Z</time>
      </trkpt>
      <trkpt lat="45.19288" lon="0.931">
        <ele>181.36</ele>
        <time>2017-12-07T14:04:38.192Z</time>
      </trkpt>
      <trkpt lat="45.19284" lon="0.93104">
        <ele>181.22</ele>
        <time>2017-12-07T14:04:41.195Z</time>
      </trkpt>
      <trkpt lat="45.1928" lon="0.93109">
        <ele>180.8</ele>
        <time>2017-12-07T14:04:47.203Z</time>
      </trkpt>
      <trkpt lat="45.19276" lon="0.93114">
        <ele>180.81</ele>
        <time>2017-12-07T14:04:50.209Z</time>
      </trkpt>
      <trkpt lat="45.19272" lon="0.93118">
        <ele>181.01</ele>
        <time>2017-12-07T14:04:55.219Z</time>
      </trkpt>
      <trkpt lat="45.19267" lon="0.9312">
        <ele>181.06</ele>
        <time>2017-12-07T14:04:58.224Z</time>
      </trkpt>
      <trkpt lat="45.19262" lon="0.93122">
        <ele>180.8</ele>
        <time>2017-12-07T14:05:04.234Z</time>
      </trkpt>
      <trkpt lat="45.19257" lon="0.93122">
        <ele>180.76</ele>
        <time>2017-12-07T14:05:08.241Z</time>
      </trkpt>
      <trkpt lat="45.19252" lon="0.93123">
        <ele>180.49</ele>
        <time>2017-12-07T14:05:13.249Z</time>
      </trkpt>
      <trkpt lat="45.19248" lon="0.93127">
        <ele>180.43</ele>
        <time>2017-12-07T14:05:19.261Z</time>
      </trkpt>
      <trkpt lat="45.19244" lon="0.9313">
        <ele>180.59</ele>
        <time>2017-12-07T14:05:25.272Z</time>
      </trkpt>
      <trkpt lat="45.19238" lon="0.93131">
        <ele>180.28</ele>
        <time>2017-12-07T14:05:32.278Z</time>
      </trkpt>
      <trkpt lat="45.19232" lon="0.93132">
        <ele>180.24</ele>
        <time>2017-12-07T14:05:37.288Z</time>
      </trkpt>
      <trkpt lat="45.19228" lon="0.93135">
        <ele>180.18</ele>
        <time>2017-12-07T14:05:40.293Z</time>
      </trkpt>
      <trkpt lat="45.19223" lon="0.93138">
        <ele>180.51</ele>
        <time>2017-12-07T14:05:43.298Z</time>
      </trkpt>
      <trkpt lat="45.19217" lon="0.93141">
        <ele>181.02</ele>
        <time>2017-12-07T14:05:48.304Z</time>
      </trkpt>
      <trkpt lat="45.19213" lon="0.93144">
        <ele>181.27</ele>
        <time>2017-12-07T14:05:52.311Z</time>
      </trkpt>
      <trkpt lat="45.19208" lon="0.93147">
        <ele>181.28</ele>
        <time>2017-12-07T14:05:56.313Z</time>
      </trkpt>
      <trkpt lat="45.19204" lon="0.93149">
        <ele>181.17</ele>
        <time>2017-12-07T14:06:00.320Z</time>
      </trkpt>
      <trkpt lat="45.192" lon="0.93154">
        <ele>181.1</ele>
        <time>2017-12-07T14:06:03.325Z</time>
      </trkpt>
      <trkpt lat="45.19197" lon="0.9316">
        <ele>181.2</ele>
        <time>2017-12-07T14:06:09.336Z</time>
      </trkpt>
      <trkpt lat="45.19193" lon="0.93165">
        <ele>181.94</ele>
        <time>2017-12-07T14:06:14.344Z</time>
      </trkpt>
      <trkpt lat="45.19189" lon="0.9317">
        <ele>182.74</ele>
        <time>2017-12-07T14:06:19.355Z</time>
      </trkpt>
      <trkpt lat="45.19184" lon="0.93173">
        <ele>183.44</ele>
        <time>2017-12-07T14:06:23.362Z</time>
      </trkpt>
      <trkpt lat="45.1918" lon="0.93177">
        <ele>183.51</ele>
        <time>2017-12-07T14:06:26.368Z</time>
      </trkpt>
      <trkpt lat="45.19175" lon="0.93182">
        <ele>183.44</ele>
        <time>2017-12-07T14:06:28.371Z</time>
      </trkpt>
      <trkpt lat="45.19171" lon="0.93186">
        <ele>183.43</ele>
        <time>2017-12-07T14:06:33.380Z</time>
      </trkpt>
      <trkpt lat="45.19166" lon="0.93187">
        <ele>183.75</ele>
        <time>2017-12-07T14:06:40.394Z</time>
      </trkpt>
      <trkpt lat="45.19161" lon="0.93189">
        <ele>183.84</ele>
        <time>2017-12-07T14:06:44.399Z</time>
      </trkpt>
      <trkpt lat="45.19156" lon="0.93191">
        <ele>183.66</ele>
        <time>2017-12-07T14:06:49.406Z</time>
      </trkpt>
      <trkpt lat="45.19151" lon="0.93194">
        <ele>183.66</ele>
        <time>2017-12-07T14:06:54.415Z</time>
      </trkpt>
      <trkpt lat="45.19147" lon="0.93198">
        <ele>183.66</ele>
        <time>2017-12-07T14:07:00.423Z</time>
      </trkpt>
      <trkpt lat="45.19143" lon="0.93201">
        <ele>183.89</ele>
        <time>2017-12-07T14:07:05.423Z</time>
      </trkpt>
      <trkpt lat="45.19137" lon="0.93204">
        <ele>184.01</ele>
        <time>2017-12-07T14:07:14.438Z</time>
      </trkpt>
      <trkpt lat="45.19133" lon="0.93207">
        <ele>184.17</ele>
        <time>2017-12-07T14:07:19.448Z</time>
      </trkpt>
      <trkpt lat="45.19128" lon="0.9321">
        <ele>184.98</ele>
        <time>2017-12-07T14:07:28.466Z</time>
      </trkpt>
      <trkpt lat="45.19124" lon="0.93214">
        <ele>185.18</ele>
        <time>2017-12-07T14:07:33.475Z</time>
      </trkpt>
      <trkpt lat="45.19119" lon="0.93217">
        <ele>185.03</ele>
        <time>2017-12-07T14:07:37.482Z</time>
      </trkpt>
      <trkpt lat="45.19114" lon="0.93219">
        <ele>184.86</ele>
        <time>2017-12-07T14:07:41.490Z</time>
      </trkpt>
      <trkpt lat="45.19109" lon="0.93225">
        <ele>185.56</ele>
        <time>2017-12-07T14:07:53.516Z</time>
      </trkpt>
      <trkpt lat="45.19104" lon="0.93228">
        <ele>185.93</ele>
        <time>2017-12-07T14:08:05.535Z</time>
      </trkpt>
      <trkpt lat="45.191" lon="0.93229">
        <ele>186.56</ele>
        <time>2017-12-07T14:08:14.538Z</time>
      </trkpt>
      <trkpt lat="45.19095" lon="0.9323">
        <ele>186.25</ele>
        <time>2017-12-07T14:08:21.540Z</time>
      </trkpt>
      <trkpt lat="45.1909" lon="0.9323">
        <ele>185.88</ele>
        <time>2017-12-07T14:08:26.550Z</time>
      </trkpt>
      <trkpt lat="45.19085" lon="0.93232">
        <ele>185.78</ele>
        <time>2017-12-07T14:08:31.560Z</time>
      </trkpt>
      <trkpt lat="45.1908" lon="0.93234">
        <ele>185.89</ele>
        <time>2017-12-07T14:08:36.570Z</time>
      </trkpt>
      <trkpt lat="45.19075" lon="0.93234">
        <ele>185.93</ele>
        <time>2017-12-07T14:08:42.580Z</time>
      </trkpt>
      <trkpt lat="45.1907" lon="0.93239">
        <ele>186.03</ele>
        <time>2017-12-07T14:08:45.580Z</time>
      </trkpt>
      <trkpt lat="45.19067" lon="0.93245">
        <ele>186.37</ele>
        <time>2017-12-07T14:08:51.583Z</time>
      </trkpt>
      <trkpt lat="45.19062" lon="0.93249">
        <ele>186.8</ele>
        <time>2017-12-07T14:08:56.584Z</time>
      </trkpt>
      <trkpt lat="45.19057" lon="0.93253">
        <ele>187.28</ele>
        <time>2017-12-07T14:09:02.587Z</time>
      </trkpt>
      <trkpt lat="45.19053" lon="0.93256">
        <ele>187.85</ele>
        <time>2017-12-07T14:09:08.591Z</time>
      </trkpt>
      <trkpt lat="45.19048" lon="0.9326">
        <ele>188.13</ele>
        <time>2017-12-07T14:09:11.592Z</time>
      </trkpt>
      <trkpt lat="45.19045" lon="0.93264">
        <ele>188.3</ele>
        <time>2017-12-07T14:09:14.592Z</time>
      </trkpt>
      <trkpt lat="45.1904" lon="0.93265">
        <ele>188.51</ele>
        <time>2017-12-07T14:09:19.594Z</time>
      </trkpt>
      <trkpt lat="45.19035" lon="0.93269">
        <ele>188.5</ele>
        <time>2017-12-07T14:09:21.595Z</time>
      </trkpt>
      <trkpt lat="45.1903" lon="0.93272">
        <ele>188.41</ele>
        <time>2017-12-07T14:09:27.596Z</time>
      </trkpt>
      <trkpt lat="45.19025" lon="0.93274">
        <ele>188.65</ele>
        <time>2017-12-07T14:09:34.598Z</time>
      </trkpt>
      <trkpt lat="45.19021" lon="0.93277">
        <ele>188.86</ele>
        <time>2017-12-07T14:09:38.599Z</time>
      </trkpt>
      <trkpt lat="45.19017" lon="0.93279">
        <ele>189.14</ele>
        <time>2017-12-07T14:09:42.601Z</time>
      </trkpt>
      <trkpt lat="45.19012" lon="0.9328">
        <ele>189.31</ele>
        <time>2017-12-07T14:09:49.603Z</time>
      </trkpt>
      <trkpt lat="45.19008" lon="0.9328">
        <ele>189.48</ele>
        <time>2017-12-07T14:09:52.603Z</time>
      </trkpt>
      <trkpt lat="45.19002" lon="0.93282">
        <ele>189.49</ele>
        <time>2017-12-07T14:09:58.608Z</time>
      </trkpt>
      <trkpt lat="45.18997" lon="0.93283">
        <ele>189.5</ele>
        <time>2017-12-07T14:10:03.613Z</time>
      </trkpt>
      <trkpt lat="45.18992" lon="0.93285">
        <ele>189.58</ele>
        <time>2017-12-07T14:10:10.616Z</time>
      </trkpt>
      <trkpt lat="45.18987" lon="0.93285">
        <ele>189.57</ele>
        <time>2017-12-07T14:10:14.617Z</time>
      </trkpt>
      <trkpt lat="45.18982" lon="0.93287">
        <ele>189.34</ele>
        <time>2017-12-07T14:10:19.618Z</time>
      </trkpt>
      <trkpt lat="45.18976" lon="0.93288">
        <ele>189.3</ele>
        <time>2017-12-07T14:10:23.620Z</time>
      </trkpt>
      <trkpt lat="45.18971" lon="0.9329">
        <ele>189.09</ele>
        <time>2017-12-07T14:10:31.625Z</time>
      </trkpt>
      <trkpt lat="45.18966" lon="0.9329">
        <ele>188.96</ele>
        <time>2017-12-07T14:10:36.626Z</time>
      </trkpt>
      <trkpt lat="45.18961" lon="0.9329">
        <ele>188.93</ele>
        <time>2017-12-07T14:10:39.627Z</time>
      </trkpt>
      <trkpt lat="45.18955" lon="0.93292">
        <ele>188.86</ele>
        <time>2017-12-07T14:10:42.627Z</time>
      </trkpt>
      <trkpt lat="45.18951" lon="0.93291">
        <ele>189.15</ele>
        <time>2017-12-07T14:10:46.629Z</time>
      </trkpt>
      <trkpt lat="45.18946" lon="0.93292">
        <ele>189.22</ele>
        <time>2017-12-07T14:10:50.630Z</time>
      </trkpt>
      <trkpt lat="45.18941" lon="0.93293">
        <ele>188.94</ele>
        <time>2017-12-07T14:10:55.631Z</time>
      </trkpt>
      <trkpt lat="45.18936" lon="0.93296">
        <ele>188.57</ele>
        <time>2017-12-07T14:11:01.634Z</time>
      </trkpt>
      <trkpt lat="45.18931" lon="0.93294">
        <ele>188.54</ele>
        <time>2017-12-07T14:11:07.634Z</time>
      </trkpt>
      <trkpt lat="45.18926" lon="0.93296">
        <ele>188.46</ele>
        <time>2017-12-07T14:11:11.635Z</time>
      </trkpt>
      <trkpt lat="45.18921" lon="0.93299">
        <ele>188.45</ele>
        <time>2017-12-07T14:11:18.638Z</time>
      </trkpt>
      <trkpt lat="45.18916" lon="0.93299">
        <ele>188.71</ele>
        <time>2017-12-07T14:11:23.640Z</time>
      </trkpt>
      <trkpt lat="45.18911" lon="0.93302">
        <ele>188.87</ele>
        <time>2017-12-07T14:11:27.644Z</time>
      </trkpt>
      <trkpt lat="45.18907" lon="0.93305">
        <ele>189.05</ele>
        <time>2017-12-07T14:11:30.645Z</time>
      </trkpt>
      <trkpt lat="45.18903" lon="0.93308">
        <ele>189.46</ele>
        <time>2017-12-07T14:11:34.647Z</time>
      </trkpt>
      <trkpt lat="45.18898" lon="0.93311">
        <ele>189.79</ele>
        <time>2017-12-07T14:11:38.647Z</time>
      </trkpt>
      <trkpt lat="45.18895" lon="0.93315">
        <ele>189.91</ele>
        <time>2017-12-07T14:11:40.647Z</time>
      </trkpt>
      <trkpt lat="45.1889" lon="0.9332">
        <ele>190.39</ele>
        <time>2017-12-07T14:11:45.649Z</time>
      </trkpt>
      <trkpt lat="45.18887" lon="0.93323">
        <ele>191.02</ele>
        <time>2017-12-07T14:11:50.650Z</time>
      </trkpt>
      <trkpt lat="45.18882" lon="0.93329">
        <ele>191.57</ele>
        <time>2017-12-07T14:11:55.652Z</time>
      </trkpt>
      <trkpt lat="45.18877" lon="0.93333">
        <ele>191.97</ele>
        <time>2017-12-07T14:12:00.654Z</time>
      </trkpt>
      <trkpt lat="45.18872" lon="0.93337">
        <ele>192.27</ele>
        <time>2017-12-07T14:12:05.656Z</time>
      </trkpt>
      <trkpt lat="45.18868" lon="0.9334">
        <ele>192.72</ele>
        <time>2017-12-07T14:12:11.657Z</time>
      </trkpt>
      <trkpt lat="45.18862" lon="0.93341">
        <ele>193.76</ele>
        <time>2017-12-07T14:12:19.663Z</time>
      </trkpt>
      <trkpt lat="45.18857" lon="0.93345">
        <ele>194.27</ele>
        <time>2017-12-07T14:12:26.666Z</time>
      </trkpt>
      <trkpt lat="45.18853" lon="0.93348">
        <ele>194.83</ele>
        <time>2017-12-07T14:12:31.667Z</time>
      </trkpt>
      <trkpt lat="45.18848" lon="0.93349">
        <ele>195.09</ele>
        <time>2017-12-07T14:12:33.668Z</time>
      </trkpt>
      <trkpt lat="45.18842" lon="0.93351">
        <ele>195.34</ele>
        <time>2017-12-07T14:12:36.668Z</time>
      </trkpt>
      <trkpt lat="45.18837" lon="0.93353">
        <ele>195.62</ele>
        <time>2017-12-07T14:12:42.670Z</time>
      </trkpt>
      <trkpt lat="45.18832" lon="0.93354">
        <ele>195.28</ele>
        <time>2017-12-07T14:12:47.671Z</time>
      </trkpt>
      <trkpt lat="45.18827" lon="0.93357">
        <ele>195.31</ele>
        <time>2017-12-07T14:12:51.672Z</time>
      </trkpt>
      <trkpt lat="45.18823" lon="0.93359">
        <ele>195.48</ele>
        <time>2017-12-07T14:12:56.674Z</time>
      </trkpt>
      <trkpt lat="45.18818" lon="0.93359">
        <ele>195.97</ele>
        <time>2017-12-07T14:13:03.675Z</time>
      </trkpt>
      <trkpt lat="45.18813" lon="0.93361">
        <ele>196.39</ele>
        <time>2017-12-07T14:13:07.676Z</time>
      </trkpt>
      <trkpt lat="45.18807" lon="0.93362">
        <ele>196.97</ele>
        <time>2017-12-07T14:13:13.678Z</time>
      </trkpt>
      <trkpt lat="45.18802" lon="0.93363">
        <ele>197.05</ele>
        <time>2017-12-07T14:13:18.678Z</time>
      </trkpt>
      <trkpt lat="45.18797" lon="0.93366">
        <ele>197.07</ele>
        <time>2017-12-07T14:13:22.680Z</time>
      </trkpt>
      <trkpt lat="45.18792" lon="0.93367">
        <ele>197.25</ele>
        <time>2017-12-07T14:13:26.681Z</time>
      </trkpt>
      <trkpt lat="45.18787" lon="0.93368">
        <ele>196.98</ele>
        <time>2017-12-07T14:13:29.682Z</time>
      </trkpt>
      <trkpt lat="45.18782" lon="0.93368">
        <ele>196.83</ele>
        <time>2017-12-07T14:13:36.684Z</time>
      </trkpt>
      <trkpt lat="45.18776" lon="0.93372">
        <ele>196.75</ele>
        <time>2017-12-07T14:13:41.685Z</time>
      </trkpt>
      <trkpt lat="45.18771" lon="0.93373">
        <ele>196.86</ele>
        <time>2017-12-07T14:13:46.688Z</time>
      </trkpt>
      <trkpt lat="45.18766" lon="0.93376">
        <ele>197.18</ele>
        <time>2017-12-07T14:13:53.689Z</time>
      </trkpt>
      <trkpt lat="45.18761" lon="0.93381">
        <ele>197.51</ele>
        <time>2017-12-07T14:13:57.691Z</time>
      </trkpt>
      <trkpt lat="45.18756" lon="0.93383">
        <ele>197.59</ele>
        <time>2017-12-07T14:14:05.693Z</time>
      </trkpt>
      <trkpt lat="45.1875" lon="0.93385">
        <ele>197.77</ele>
        <time>2017-12-07T14:14:11.695Z</time>
      </trkpt>
      <trkpt lat="45.18744" lon="0.93389">
        <ele>197.86</ele>
        <time>2017-12-07T14:14:14.695Z</time>
      </trkpt>
      <trkpt lat="45.18739" lon="0.93391">
        <ele>197.96</ele>
        <time>2017-12-07T14:14:16.697Z</time>
      </trkpt>
      <trkpt lat="45.18733" lon="0.93394">
        <ele>198.2</ele>
        <time>2017-12-07T14:14:19.698Z</time>
      </trkpt>
      <trkpt lat="45.18728" lon="0.93396">
        <ele>198.98</ele>
        <time>2017-12-07T14:14:25.700Z</time>
      </trkpt>
      <trkpt lat="45.18724" lon="0.93397">
        <ele>199.42</ele>
        <time>2017-12-07T14:14:30.701Z</time>
      </trkpt>
      <trkpt lat="45.18719" lon="0.93397">
        <ele>200.13</ele>
        <time>2017-12-07T14:14:36.703Z</time>
      </trkpt>
      <trkpt lat="45.18714" lon="0.93398">
        <ele>200.46</ele>
        <time>2017-12-07T14:14:40.705Z</time>
      </trkpt>
      <trkpt lat="45.18709" lon="0.93397">
        <ele>201</ele>
        <time>2017-12-07T14:14:46.707Z</time>
      </trkpt>
      <trkpt lat="45.18703" lon="0.93399">
        <ele>201.29</ele>
        <time>2017-12-07T14:14:50.708Z</time>
      </trkpt>
      <trkpt lat="45.18698" lon="0.93398">
        <ele>201.59</ele>
        <time>2017-12-07T14:14:58.712Z</time>
      </trkpt>
      <trkpt lat="45.18692" lon="0.93399">
        <ele>201.95</ele>
        <time>2017-12-07T14:15:03.714Z</time>
      </trkpt>
      <trkpt lat="45.18688" lon="0.93401">
        <ele>202.14</ele>
        <time>2017-12-07T14:15:07.714Z</time>
      </trkpt>
      <trkpt lat="45.18683" lon="0.93403">
        <ele>202.43</ele>
        <time>2017-12-07T14:15:11.715Z</time>
      </trkpt>
      <trkpt lat="45.18678" lon="0.93405">
        <ele>202.81</ele>
        <time>2017-12-07T14:15:16.720Z</time>
      </trkpt>
      <trkpt lat="45.18673" lon="0.93407">
        <ele>203.23</ele>
        <time>2017-12-07T14:15:21.725Z</time>
      </trkpt>
      <trkpt lat="45.18666" lon="0.9341">
        <ele>203.75</ele>
        <time>2017-12-07T14:15:27.729Z</time>
      </trkpt>
      <trkpt lat="45.18659" lon="0.93419">
        <ele>203.97</ele>
        <time>2017-12-07T14:15:29.732Z</time>
      </trkpt>
      <trkpt lat="45.18656" lon="0.93428">
        <ele>204.15</ele>
        <time>2017-12-07T14:15:31.733Z</time>
      </trkpt>
      <trkpt lat="45.18653" lon="0.93433">
        <ele>204.26</ele>
        <time>2017-12-07T14:15:33.735Z</time>
      </trkpt>
      <trkpt lat="45.18649" lon="0.93436">
        <ele>204.61</ele>
        <time>2017-12-07T14:15:36.736Z</time>
      </trkpt>
      <trkpt lat="45.18645" lon="0.93439">
        <ele>204.88</ele>
        <time>2017-12-07T14:15:46.748Z</time>
      </trkpt>
      <trkpt lat="45.1864" lon="0.93441">
        <ele>205.09</ele>
        <time>2017-12-07T14:15:52.754Z</time>
      </trkpt>
      <trkpt lat="45.18636" lon="0.93443">
        <ele>205.53</ele>
        <time>2017-12-07T14:15:57.759Z</time>
      </trkpt>
      <trkpt lat="45.18628" lon="0.93447">
        <ele>205.67</ele>
        <time>2017-12-07T14:16:02.764Z</time>
      </trkpt>
      <trkpt lat="45.18623" lon="0.93448">
        <ele>205.87</ele>
        <time>2017-12-07T14:16:05.767Z</time>
      </trkpt>
      <trkpt lat="45.18618" lon="0.93449">
        <ele>206.3</ele>
        <time>2017-12-07T14:16:12.777Z</time>
      </trkpt>
      <trkpt lat="45.18613" lon="0.9345">
        <ele>206.29</ele>
        <time>2017-12-07T14:16:15.778Z</time>
      </trkpt>
      <trkpt lat="45.18609" lon="0.93454">
        <ele>206.51</ele>
        <time>2017-12-07T14:16:18.779Z</time>
      </trkpt>
      <trkpt lat="45.18604" lon="0.93454">
        <ele>206.61</ele>
        <time>2017-12-07T14:16:24.787Z</time>
      </trkpt>
      <trkpt lat="45.18596" lon="0.93457">
        <ele>207.17</ele>
        <time>2017-12-07T14:16:30.799Z</time>
      </trkpt>
      <trkpt lat="45.18592" lon="0.93462">
        <ele>207.48</ele>
        <time>2017-12-07T14:16:37.807Z</time>
      </trkpt>
      <trkpt lat="45.18587" lon="0.93465">
        <ele>207.9</ele>
        <time>2017-12-07T14:16:41.814Z</time>
      </trkpt>
      <trkpt lat="45.18582" lon="0.93469">
        <ele>208.02</ele>
        <time>2017-12-07T14:16:47.822Z</time>
      </trkpt>
      <trkpt lat="45.18577" lon="0.93472">
        <ele>207.94</ele>
        <time>2017-12-07T14:16:50.825Z</time>
      </trkpt>
      <trkpt lat="45.18572" lon="0.93476">
        <ele>208.19</ele>
        <time>2017-12-07T14:16:55.834Z</time>
      </trkpt>
      <trkpt lat="45.18567" lon="0.93479">
        <ele>208.7</ele>
        <time>2017-12-07T14:17:02.847Z</time>
      </trkpt>
      <trkpt lat="45.18563" lon="0.93482">
        <ele>208.71</ele>
        <time>2017-12-07T14:17:04.850Z</time>
      </trkpt>
      <trkpt lat="45.18558" lon="0.93486">
        <ele>208.68</ele>
        <time>2017-12-07T14:17:07.852Z</time>
      </trkpt>
      <trkpt lat="45.18554" lon="0.9349">
        <ele>209.25</ele>
        <time>2017-12-07T14:17:17.866Z</time>
      </trkpt>
      <trkpt lat="45.1855" lon="0.93495">
        <ele>209.33</ele>
        <time>2017-12-07T14:17:27.882Z</time>
      </trkpt>
      <trkpt lat="45.18546" lon="0.93498">
        <ele>208.97</ele>
        <time>2017-12-07T14:17:35.893Z</time>
      </trkpt>
      <trkpt lat="45.18544" lon="0.93492">
        <ele>207.69</ele>
        <time>2017-12-07T14:18:14.951Z</time>
      </trkpt>
      <trkpt lat="45.18546" lon="0.93486">
        <ele>205.54</ele>
        <time>2017-12-07T14:18:27.970Z</time>
      </trkpt>
      <trkpt lat="45.18544" lon="0.93492">
        <ele>205.88</ele>
        <time>2017-12-07T14:18:46.999Z</time>
      </trkpt>
      <trkpt lat="45.18541" lon="0.93487">
        <ele>205.07</ele>
        <time>2017-12-07T14:19:00.200Z</time>
      </trkpt>
      <trkpt lat="45.18537" lon="0.93484">
        <ele>204.84</ele>
        <time>2017-12-07T14:19:03.230Z</time>
      </trkpt>
      <trkpt lat="45.18533" lon="0.93481">
        <ele>204.6</ele>
        <time>2017-12-07T14:19:07.280Z</time>
      </trkpt>
      <trkpt lat="45.18529" lon="0.9348">
        <ele>204.91</ele>
        <time>2017-12-07T14:19:10.300Z</time>
      </trkpt>
      <trkpt lat="45.18524" lon="0.93479">
        <ele>205.02</ele>
        <time>2017-12-07T14:19:14.350Z</time>
      </trkpt>
      <trkpt lat="45.18519" lon="0.93476">
        <ele>205.04</ele>
        <time>2017-12-07T14:19:18.420Z</time>
      </trkpt>
      <trkpt lat="45.18514" lon="0.93475">
        <ele>205.15</ele>
        <time>2017-12-07T14:19:26.580Z</time>
      </trkpt>
      <trkpt lat="45.18509" lon="0.93474">
        <ele>205.27</ele>
        <time>2017-12-07T14:19:32.640Z</time>
      </trkpt>
      <trkpt lat="45.18504" lon="0.93474">
        <ele>205.54</ele>
        <time>2017-12-07T14:19:37.700Z</time>
      </trkpt>
      <trkpt lat="45.18498" lon="0.93474">
        <ele>206.02</ele>
        <time>2017-12-07T14:19:42.780Z</time>
      </trkpt>
      <trkpt lat="45.18493" lon="0.93476">
        <ele>206.85</ele>
        <time>2017-12-07T14:19:47.880Z</time>
      </trkpt>
      <trkpt lat="45.18489" lon="0.93477">
        <ele>207.51</ele>
        <time>2017-12-07T14:19:52.980Z</time>
      </trkpt>
      <trkpt lat="45.18483" lon="0.9348">
        <ele>207.69</ele>
        <time>2017-12-07T14:19:56.107Z</time>
      </trkpt>
      <trkpt lat="45.18478" lon="0.9348">
        <ele>207.88</ele>
        <time>2017-12-07T14:20:00.109Z</time>
      </trkpt>
      <trkpt lat="45.18472" lon="0.93478">
        <ele>208.45</ele>
        <time>2017-12-07T14:20:04.114Z</time>
      </trkpt>
      <trkpt lat="45.18467" lon="0.93479">
        <ele>208.99</ele>
        <time>2017-12-07T14:20:08.117Z</time>
      </trkpt>
      <trkpt lat="45.18462" lon="0.9348">
        <ele>209.32</ele>
        <time>2017-12-07T14:20:12.126Z</time>
      </trkpt>
      <trkpt lat="45.18457" lon="0.93481">
        <ele>209.71</ele>
        <time>2017-12-07T14:20:16.133Z</time>
      </trkpt>
      <trkpt lat="45.18451" lon="0.93482">
        <ele>209.97</ele>
        <time>2017-12-07T14:20:20.141Z</time>
      </trkpt>
      <trkpt lat="45.18446" lon="0.93481">
        <ele>210.28</ele>
        <time>2017-12-07T14:20:24.147Z</time>
      </trkpt>
      <trkpt lat="45.18441" lon="0.93481">
        <ele>210.67</ele>
        <time>2017-12-07T14:20:29.155Z</time>
      </trkpt>
      <trkpt lat="45.18435" lon="0.93481">
        <ele>211.08</ele>
        <time>2017-12-07T14:20:33.165Z</time>
      </trkpt>
      <trkpt lat="45.18431" lon="0.93483">
        <ele>211.15</ele>
        <time>2017-12-07T14:20:36.172Z</time>
      </trkpt>
      <trkpt lat="45.18425" lon="0.93482">
        <ele>211.51</ele>
        <time>2017-12-07T14:20:40.180Z</time>
      </trkpt>
      <trkpt lat="45.18418" lon="0.93485">
        <ele>211.57</ele>
        <time>2017-12-07T14:20:43.183Z</time>
      </trkpt>
      <trkpt lat="45.18413" lon="0.93487">
        <ele>211.65</ele>
        <time>2017-12-07T14:20:46.190Z</time>
      </trkpt>
      <trkpt lat="45.18408" lon="0.93487">
        <ele>211.58</ele>
        <time>2017-12-07T14:20:50.200Z</time>
      </trkpt>
      <trkpt lat="45.18404" lon="0.93488">
        <ele>211.55</ele>
        <time>2017-12-07T14:20:53.203Z</time>
      </trkpt>
      <trkpt lat="45.18398" lon="0.93492">
        <ele>211.53</ele>
        <time>2017-12-07T14:20:57.233Z</time>
      </trkpt>
      <trkpt lat="45.18394" lon="0.93493">
        <ele>211.64</ele>
        <time>2017-12-07T14:21:02.244Z</time>
      </trkpt>
      <trkpt lat="45.18389" lon="0.93493">
        <ele>211.76</ele>
        <time>2017-12-07T14:21:06.251Z</time>
      </trkpt>
      <trkpt lat="45.18384" lon="0.93492">
        <ele>211.68</ele>
        <time>2017-12-07T14:21:10.257Z</time>
      </trkpt>
      <trkpt lat="45.18379" lon="0.9349">
        <ele>211.68</ele>
        <time>2017-12-07T14:21:14.264Z</time>
      </trkpt>
      <trkpt lat="45.18374" lon="0.9349">
        <ele>211.65</ele>
        <time>2017-12-07T14:21:19.267Z</time>
      </trkpt>
      <trkpt lat="45.18369" lon="0.93489">
        <ele>211.72</ele>
        <time>2017-12-07T14:21:22.247Z</time>
      </trkpt>
      <trkpt lat="45.18364" lon="0.93488">
        <ele>211.8</ele>
        <time>2017-12-07T14:21:26.251Z</time>
      </trkpt>
      <trkpt lat="45.18359" lon="0.93487">
        <ele>212.04</ele>
        <time>2017-12-07T14:21:30.259Z</time>
      </trkpt>
      <trkpt lat="45.18354" lon="0.93487">
        <ele>212.31</ele>
        <time>2017-12-07T14:21:33.265Z</time>
      </trkpt>
      <trkpt lat="45.18349" lon="0.93486">
        <ele>212.6</ele>
        <time>2017-12-07T14:21:37.272Z</time>
      </trkpt>
      <trkpt lat="45.18344" lon="0.93486">
        <ele>212.87</ele>
        <time>2017-12-07T14:21:41.277Z</time>
      </trkpt>
      <trkpt lat="45.18339" lon="0.93487">
        <ele>212.77</ele>
        <time>2017-12-07T14:21:45.282Z</time>
      </trkpt>
      <trkpt lat="45.18335" lon="0.93488">
        <ele>212.64</ele>
        <time>2017-12-07T14:21:50.286Z</time>
      </trkpt>
      <trkpt lat="45.1833" lon="0.9349">
        <ele>212.72</ele>
        <time>2017-12-07T14:21:57.295Z</time>
      </trkpt>
      <trkpt lat="45.18325" lon="0.93489">
        <ele>212.64</ele>
        <time>2017-12-07T14:22:11.338Z</time>
      </trkpt>
      <trkpt lat="45.1832" lon="0.93492">
        <ele>212.57</ele>
        <time>2017-12-07T14:22:16.350Z</time>
      </trkpt>
      <trkpt lat="45.18317" lon="0.93498">
        <ele>212.62</ele>
        <time>2017-12-07T14:22:27.374Z</time>
      </trkpt>
      <trkpt lat="45.18312" lon="0.935">
        <ele>211.95</ele>
        <time>2017-12-07T14:22:31.378Z</time>
      </trkpt>
      <trkpt lat="45.18308" lon="0.93501">
        <ele>212.79</ele>
        <time>2017-12-07T14:22:37.392Z</time>
      </trkpt>
      <trkpt lat="45.18301" lon="0.93503">
        <ele>213.21</ele>
        <time>2017-12-07T14:22:40.391Z</time>
      </trkpt>
      <trkpt lat="45.18296" lon="0.93501">
        <ele>213.55</ele>
        <time>2017-12-07T14:22:56.432Z</time>
      </trkpt>
      <trkpt lat="45.1829" lon="0.93504">
        <ele>213.5</ele>
        <time>2017-12-07T14:23:00.433Z</time>
      </trkpt>
      <trkpt lat="45.18286" lon="0.93506">
        <ele>213.52</ele>
        <time>2017-12-07T14:23:02.432Z</time>
      </trkpt>
      <trkpt lat="45.18281" lon="0.93507">
        <ele>213.64</ele>
        <time>2017-12-07T14:23:07.442Z</time>
      </trkpt>
      <trkpt lat="45.18276" lon="0.93509">
        <ele>213.17</ele>
        <time>2017-12-07T14:23:14.453Z</time>
      </trkpt>
      <trkpt lat="45.1827" lon="0.93509">
        <ele>212.47</ele>
        <time>2017-12-07T14:23:21.432Z</time>
      </trkpt>
      <trkpt lat="45.18265" lon="0.93507">
        <ele>213.28</ele>
        <time>2017-12-07T14:23:39.438Z</time>
      </trkpt>
      <trkpt lat="45.18265" lon="0.93513">
        <ele>213.84</ele>
        <time>2017-12-07T14:23:59.476Z</time>
      </trkpt>
      <trkpt lat="45.18263" lon="0.93508">
        <ele>213.05</ele>
        <time>2017-12-07T14:24:47.543Z</time>
      </trkpt>
      <trkpt lat="45.18257" lon="0.93508">
        <ele>213.01</ele>
        <time>2017-12-07T14:24:52.548Z</time>
      </trkpt>
      <trkpt lat="45.18251" lon="0.93509">
        <ele>212.91</ele>
        <time>2017-12-07T14:24:57.551Z</time>
      </trkpt>
      <trkpt lat="45.18245" lon="0.9351">
        <ele>212.95</ele>
        <time>2017-12-07T14:25:01.556Z</time>
      </trkpt>
      <trkpt lat="45.18241" lon="0.9351">
        <ele>212.71</ele>
        <time>2017-12-07T14:25:06.567Z</time>
      </trkpt>
      <trkpt lat="45.18235" lon="0.93509">
        <ele>212.36</ele>
        <time>2017-12-07T14:25:13.577Z</time>
      </trkpt>
      <trkpt lat="45.1823" lon="0.93506">
        <ele>212.58</ele>
        <time>2017-12-07T14:25:17.581Z</time>
      </trkpt>
      <trkpt lat="45.18225" lon="0.93506">
        <ele>213.06</ele>
        <time>2017-12-07T14:25:23.592Z</time>
      </trkpt>
      <trkpt lat="45.18219" lon="0.93505">
        <ele>213.32</ele>
        <time>2017-12-07T14:25:29.630Z</time>
      </trkpt>
      <trkpt lat="45.18215" lon="0.93505">
        <ele>213.72</ele>
        <time>2017-12-07T14:25:33.642Z</time>
      </trkpt>
      <trkpt lat="45.18211" lon="0.93501">
        <ele>214.18</ele>
        <time>2017-12-07T14:25:40.670Z</time>
      </trkpt>
      <trkpt lat="45.18206" lon="0.93503">
        <ele>214.23</ele>
        <time>2017-12-07T14:25:44.654Z</time>
      </trkpt>
      <trkpt lat="45.182" lon="0.93503">
        <ele>214.55</ele>
        <time>2017-12-07T14:25:49.676Z</time>
      </trkpt>
      <trkpt lat="45.18195" lon="0.93504">
        <ele>214.81</ele>
        <time>2017-12-07T14:25:52.673Z</time>
      </trkpt>
      <trkpt lat="45.1819" lon="0.93502">
        <ele>215.24</ele>
        <time>2017-12-07T14:25:56.690Z</time>
      </trkpt>
      <trkpt lat="45.18185" lon="0.93503">
        <ele>215.49</ele>
        <time>2017-12-07T14:26:00.675Z</time>
      </trkpt>
      <trkpt lat="45.18179" lon="0.93505">
        <ele>215.6</ele>
        <time>2017-12-07T14:26:04.685Z</time>
      </trkpt>
      <trkpt lat="45.18174" lon="0.93506">
        <ele>215.88</ele>
        <time>2017-12-07T14:26:08.687Z</time>
      </trkpt>
      <trkpt lat="45.1817" lon="0.93507">
        <ele>216.67</ele>
        <time>2017-12-07T14:26:14.693Z</time>
      </trkpt>
      <trkpt lat="45.18165" lon="0.9351">
        <ele>217.03</ele>
        <time>2017-12-07T14:26:17.694Z</time>
      </trkpt>
      <trkpt lat="45.1816" lon="0.93514">
        <ele>217.47</ele>
        <time>2017-12-07T14:26:21.693Z</time>
      </trkpt>
      <trkpt lat="45.18155" lon="0.93518">
        <ele>217.92</ele>
        <time>2017-12-07T14:26:25.697Z</time>
      </trkpt>
      <trkpt lat="45.18149" lon="0.93519">
        <ele>218.51</ele>
        <time>2017-12-07T14:26:30.941Z</time>
      </trkpt>
      <trkpt lat="45.18145" lon="0.93522">
        <ele>218.95</ele>
        <time>2017-12-07T14:26:34.942Z</time>
      </trkpt>
      <trkpt lat="45.1814" lon="0.93525">
        <ele>219.28</ele>
        <time>2017-12-07T14:26:38.952Z</time>
      </trkpt>
      <trkpt lat="45.18135" lon="0.93526">
        <ele>219.75</ele>
        <time>2017-12-07T14:26:42.955Z</time>
      </trkpt>
      <trkpt lat="45.1813" lon="0.93529">
        <ele>220.12</ele>
        <time>2017-12-07T14:26:45.937Z</time>
      </trkpt>
      <trkpt lat="45.18124" lon="0.93531">
        <ele>220.55</ele>
        <time>2017-12-07T14:26:50.955Z</time>
      </trkpt>
      <trkpt lat="45.18119" lon="0.93532">
        <ele>220.92</ele>
        <time>2017-12-07T14:26:54.954Z</time>
      </trkpt>
      <trkpt lat="45.18114" lon="0.93534">
        <ele>221.48</ele>
        <time>2017-12-07T14:26:57.954Z</time>
      </trkpt>
      <trkpt lat="45.1811" lon="0.93537">
        <ele>222.39</ele>
        <time>2017-12-07T14:27:03.952Z</time>
      </trkpt>
      <trkpt lat="45.18105" lon="0.9354">
        <ele>223.5</ele>
        <time>2017-12-07T14:27:09.964Z</time>
      </trkpt>
      <trkpt lat="45.18101" lon="0.93543">
        <ele>224.3</ele>
        <time>2017-12-07T14:27:16.962Z</time>
      </trkpt>
      <trkpt lat="45.18095" lon="0.93546">
        <ele>224.65</ele>
        <time>2017-12-07T14:27:21.972Z</time>
      </trkpt>
      <trkpt lat="45.1809" lon="0.93547">
        <ele>224.99</ele>
        <time>2017-12-07T14:27:24.974Z</time>
      </trkpt>
      <trkpt lat="45.18085" lon="0.93551">
        <ele>225.34</ele>
        <time>2017-12-07T14:27:28.954Z</time>
      </trkpt>
      <trkpt lat="45.18081" lon="0.93554">
        <ele>225.95</ele>
        <time>2017-12-07T14:27:32.981Z</time>
      </trkpt>
      <trkpt lat="45.18076" lon="0.93556">
        <ele>226.63</ele>
        <time>2017-12-07T14:27:36.982Z</time>
      </trkpt>
      <trkpt lat="45.18071" lon="0.93557">
        <ele>227.17</ele>
        <time>2017-12-07T14:27:39.984Z</time>
      </trkpt>
      <trkpt lat="45.18067" lon="0.93559">
        <ele>228.37</ele>
        <time>2017-12-07T14:27:44.982Z</time>
      </trkpt>
      <trkpt lat="45.18062" lon="0.93563">
        <ele>229.28</ele>
        <time>2017-12-07T14:27:49.974Z</time>
      </trkpt>
      <trkpt lat="45.18058" lon="0.93565">
        <ele>229.77</ele>
        <time>2017-12-07T14:27:56.993Z</time>
      </trkpt>
      <trkpt lat="45.18043" lon="0.93571">
        <ele>194.6</ele>
      </trkpt>
      <trkpt lat="45.18045" lon="0.93557">
        <ele>234.17</ele>
        <time>2017-12-07T14:30:04.140Z</time>
      </trkpt>
      <trkpt lat="45.17995" lon="0.9365">
        <ele>193.6</ele>
      </trkpt>
      <trkpt lat="45.18014" lon="0.93701">
        <ele>186.1</ele>
      </trkpt>
      <trkpt lat="45.18009" lon="0.93766">
        <ele>185.9</ele>
      </trkpt>
      <trkpt lat="45.17971" lon="0.93787">
        <ele>189.4</ele>
      </trkpt>
      <trkpt lat="45.17908" lon="0.93804">
        <ele>194.5</ele>
      </trkpt>
      <trkpt lat="45.17841" lon="0.93873">
        <ele>202.5</ele>
      </trkpt>
      <trkpt lat="45.17788" lon="0.93931">
        <ele>206.9</ele>
      </trkpt>
      <trkpt lat="45.1772" lon="0.9401">
        <ele>214.7</ele>
      </trkpt>
      <trkpt lat="45.17727" lon="0.94053">
        <ele>217.1</ele>
      </trkpt>
      <trkpt lat="45.17702" lon="0.94151">
        <ele>267.42</ele>
        <time>2017-12-07T15:07:55.322Z</time>
      </trkpt>
      <trkpt lat="45.17703" lon="0.94158">
        <ele>267.28</ele>
        <time>2017-12-07T15:07:59.328Z</time>
      </trkpt>
      <trkpt lat="45.17701" lon="0.94165">
        <ele>267.27</ele>
        <time>2017-12-07T15:08:03.333Z</time>
      </trkpt>
      <trkpt lat="45.17699" lon="0.94172">
        <ele>267.42</ele>
        <time>2017-12-07T15:08:07.344Z</time>
      </trkpt>
      <trkpt lat="45.17697" lon="0.9418">
        <ele>267.33</ele>
        <time>2017-12-07T15:08:12.361Z</time>
      </trkpt>
      <trkpt lat="45.17694" lon="0.94188">
        <ele>267.38</ele>
        <time>2017-12-07T15:08:16.343Z</time>
      </trkpt>
      <trkpt lat="45.17693" lon="0.94195">
        <ele>267.43</ele>
        <time>2017-12-07T15:08:22.343Z</time>
      </trkpt>
      <trkpt lat="45.17691" lon="0.94204">
        <ele>267.7</ele>
        <time>2017-12-07T15:08:26.345Z</time>
      </trkpt>
      <trkpt lat="45.17689" lon="0.9421">
        <ele>267.77</ele>
        <time>2017-12-07T15:08:30.347Z</time>
      </trkpt>
      <trkpt lat="45.17688" lon="0.94216">
        <ele>267.81</ele>
        <time>2017-12-07T15:08:33.347Z</time>
      </trkpt>
      <trkpt lat="45.17688" lon="0.94224">
        <ele>267.52</ele>
        <time>2017-12-07T15:08:37.340Z</time>
      </trkpt>
      <trkpt lat="45.17688" lon="0.94231">
        <ele>267.25</ele>
        <time>2017-12-07T15:08:42.349Z</time>
      </trkpt>
      <trkpt lat="45.17688" lon="0.94239">
        <ele>266.85</ele>
        <time>2017-12-07T15:08:46.351Z</time>
      </trkpt>
      <trkpt lat="45.17691" lon="0.94247">
        <ele>266.35</ele>
        <time>2017-12-07T15:08:50.350Z</time>
      </trkpt>
      <trkpt lat="45.17696" lon="0.9425">
        <ele>265.51</ele>
        <time>2017-12-07T15:08:56.351Z</time>
      </trkpt>
      <trkpt lat="45.17699" lon="0.94255">
        <ele>265</ele>
        <time>2017-12-07T15:09:02.354Z</time>
      </trkpt>
      <trkpt lat="45.17704" lon="0.94261">
        <ele>264.28</ele>
        <time>2017-12-07T15:09:07.356Z</time>
      </trkpt>
      <trkpt lat="45.17708" lon="0.94265">
        <ele>263.87</ele>
        <time>2017-12-07T15:09:11.395Z</time>
      </trkpt>
      <trkpt lat="45.17712" lon="0.94269">
        <ele>263.42</ele>
        <time>2017-12-07T15:09:14.359Z</time>
      </trkpt>
      <trkpt lat="45.17716" lon="0.94274">
        <ele>262.87</ele>
        <time>2017-12-07T15:09:18.360Z</time>
      </trkpt>
      <trkpt lat="45.17719" lon="0.94278">
        <ele>262.24</ele>
        <time>2017-12-07T15:09:22.361Z</time>
      </trkpt>
      <trkpt lat="45.17722" lon="0.94285">
        <ele>261.8</ele>
        <time>2017-12-07T15:09:25.362Z</time>
      </trkpt>
      <trkpt lat="45.17726" lon="0.94289">
        <ele>261.46</ele>
        <time>2017-12-07T15:09:29.363Z</time>
      </trkpt>
      <trkpt lat="45.17731" lon="0.94294">
        <ele>261.03</ele>
        <time>2017-12-07T15:09:33.365Z</time>
      </trkpt>
      <trkpt lat="45.17735" lon="0.94299">
        <ele>259.95</ele>
        <time>2017-12-07T15:09:39.366Z</time>
      </trkpt>
      <trkpt lat="45.1774" lon="0.94304">
        <ele>259.02</ele>
        <time>2017-12-07T15:09:44.368Z</time>
      </trkpt>
      <trkpt lat="45.17744" lon="0.94309">
        <ele>258.48</ele>
        <time>2017-12-07T15:09:49.370Z</time>
      </trkpt>
      <trkpt lat="45.17748" lon="0.94313">
        <ele>258.19</ele>
        <time>2017-12-07T15:09:53.371Z</time>
      </trkpt>
      <trkpt lat="45.17751" lon="0.94318">
        <ele>258.15</ele>
        <time>2017-12-07T15:09:57.372Z</time>
      </trkpt>
      <trkpt lat="45.17755" lon="0.94322">
        <ele>257.98</ele>
        <time>2017-12-07T15:10:01.376Z</time>
      </trkpt>
      <trkpt lat="45.17759" lon="0.94327">
        <ele>257.75</ele>
        <time>2017-12-07T15:10:04.386Z</time>
      </trkpt>
      <trkpt lat="45.17763" lon="0.94332">
        <ele>257.53</ele>
        <time>2017-12-07T15:10:08.508Z</time>
      </trkpt>
      <trkpt lat="45.17766" lon="0.94337">
        <ele>257.37</ele>
        <time>2017-12-07T15:10:14.402Z</time>
      </trkpt>
      <trkpt lat="45.1777" lon="0.94342">
        <ele>256.99</ele>
        <time>2017-12-07T15:10:19.399Z</time>
      </trkpt>
      <trkpt lat="45.17773" lon="0.94347">
        <ele>256.57</ele>
        <time>2017-12-07T15:10:24.411Z</time>
      </trkpt>
      <trkpt lat="45.17776" lon="0.94353">
        <ele>256.16</ele>
        <time>2017-12-07T15:10:30.407Z</time>
      </trkpt>
      <trkpt lat="45.1778" lon="0.94356">
        <ele>255.75</ele>
        <time>2017-12-07T15:10:38.432Z</time>
      </trkpt>
      <trkpt lat="45.17784" lon="0.9436">
        <ele>255.09</ele>
        <time>2017-12-07T15:10:46.439Z</time>
      </trkpt>
      <trkpt lat="45.17789" lon="0.94363">
        <ele>254.84</ele>
        <time>2017-12-07T15:10:55.454Z</time>
      </trkpt>
      <trkpt lat="45.17793" lon="0.94367">
        <ele>254.88</ele>
        <time>2017-12-07T15:10:59.462Z</time>
      </trkpt>
      <trkpt lat="45.17798" lon="0.9437">
        <ele>254.41</ele>
        <time>2017-12-07T15:11:04.456Z</time>
      </trkpt>
      <trkpt lat="45.17803" lon="0.94374">
        <ele>253.98</ele>
        <time>2017-12-07T15:11:08.461Z</time>
      </trkpt>
      <trkpt lat="45.17807" lon="0.94377">
        <ele>253.34</ele>
        <time>2017-12-07T15:11:14.458Z</time>
      </trkpt>
      <trkpt lat="45.17812" lon="0.9438">
        <ele>252.87</ele>
        <time>2017-12-07T15:11:18.473Z</time>
      </trkpt>
      <trkpt lat="45.17818" lon="0.94382">
        <ele>252.49</ele>
        <time>2017-12-07T15:11:22.469Z</time>
      </trkpt>
      <trkpt lat="45.17822" lon="0.94383">
        <ele>252.23</ele>
        <time>2017-12-07T15:11:25.483Z</time>
      </trkpt>
      <trkpt lat="45.17827" lon="0.94385">
        <ele>251.84</ele>
        <time>2017-12-07T15:11:31.481Z</time>
      </trkpt>
      <trkpt lat="45.17832" lon="0.94388">
        <ele>251.64</ele>
        <time>2017-12-07T15:11:35.493Z</time>
      </trkpt>
      <trkpt lat="45.17837" lon="0.94389">
        <ele>251.39</ele>
        <time>2017-12-07T15:11:39.501Z</time>
      </trkpt>
      <trkpt lat="45.17842" lon="0.94391">
        <ele>251.15</ele>
        <time>2017-12-07T15:11:43.503Z</time>
      </trkpt>
      <trkpt lat="45.17847" lon="0.94393">
        <ele>250.45</ele>
        <time>2017-12-07T15:11:51.511Z</time>
      </trkpt>
      <trkpt lat="45.17851" lon="0.94394">
        <ele>250.12</ele>
        <time>2017-12-07T15:11:55.522Z</time>
      </trkpt>
      <trkpt lat="45.17856" lon="0.94398">
        <ele>248.84</ele>
        <time>2017-12-07T15:12:02.507Z</time>
      </trkpt>
      <trkpt lat="45.1786" lon="0.94398">
        <ele>247.58</ele>
        <time>2017-12-07T15:12:12.340Z</time>
      </trkpt>
      <trkpt lat="45.17865" lon="0.94401">
        <ele>247.17</ele>
        <time>2017-12-07T15:12:18.183Z</time>
      </trkpt>
      <trkpt lat="45.1787" lon="0.94405">
        <ele>247.1</ele>
        <time>2017-12-07T15:12:22.193Z</time>
      </trkpt>
      <trkpt lat="45.17874" lon="0.94407">
        <ele>246.79</ele>
        <time>2017-12-07T15:12:25.168Z</time>
      </trkpt>
      <trkpt lat="45.17879" lon="0.9441">
        <ele>246.52</ele>
        <time>2017-12-07T15:12:31.222Z</time>
      </trkpt>
      <trkpt lat="45.17883" lon="0.94413">
        <ele>246.34</ele>
        <time>2017-12-07T15:12:36.231Z</time>
      </trkpt>
      <trkpt lat="45.17887" lon="0.94418">
        <ele>245.64</ele>
        <time>2017-12-07T15:12:46.247Z</time>
      </trkpt>
      <trkpt lat="45.17891" lon="0.9442">
        <ele>244.39</ele>
        <time>2017-12-07T15:12:53.258Z</time>
      </trkpt>
      <trkpt lat="45.17896" lon="0.94425">
        <ele>242.86</ele>
        <time>2017-12-07T15:12:58.296Z</time>
      </trkpt>
      <trkpt lat="45.17901" lon="0.9443">
        <ele>240.23</ele>
        <time>2017-12-07T15:13:07.302Z</time>
      </trkpt>
      <trkpt lat="45.17906" lon="0.94433">
        <ele>239.09</ele>
        <time>2017-12-07T15:13:10.308Z</time>
      </trkpt>
      <trkpt lat="45.17911" lon="0.94434">
        <ele>237.22</ele>
        <time>2017-12-07T15:13:17.319Z</time>
      </trkpt>
      <trkpt lat="45.17915" lon="0.94438">
        <ele>236.53</ele>
        <time>2017-12-07T15:13:20.324Z</time>
      </trkpt>
      <trkpt lat="45.1792" lon="0.94441">
        <ele>236.13</ele>
        <time>2017-12-07T15:13:23.332Z</time>
      </trkpt>
      <trkpt lat="45.17925" lon="0.94444">
        <ele>235.87</ele>
        <time>2017-12-07T15:13:27.342Z</time>
      </trkpt>
      <trkpt lat="45.1793" lon="0.94446">
        <ele>236.06</ele>
        <time>2017-12-07T15:13:33.351Z</time>
      </trkpt>
      <trkpt lat="45.17934" lon="0.9445">
        <ele>236.1</ele>
        <time>2017-12-07T15:13:37.329Z</time>
      </trkpt>
      <trkpt lat="45.17938" lon="0.94453">
        <ele>235.99</ele>
        <time>2017-12-07T15:13:41.353Z</time>
      </trkpt>
      <trkpt lat="45.17942" lon="0.94456">
        <ele>235.68</ele>
        <time>2017-12-07T15:13:46.354Z</time>
      </trkpt>
      <trkpt lat="45.17949" lon="0.94458">
        <ele>234.96</ele>
        <time>2017-12-07T15:13:51.364Z</time>
      </trkpt>
      <trkpt lat="45.17953" lon="0.94461">
        <ele>234.23</ele>
        <time>2017-12-07T15:13:56.376Z</time>
      </trkpt>
      <trkpt lat="45.17958" lon="0.94462">
        <ele>233.68</ele>
        <time>2017-12-07T15:14:04.360Z</time>
      </trkpt>
      <trkpt lat="45.17962" lon="0.94465">
        <ele>233.89</ele>
        <time>2017-12-07T15:14:07.365Z</time>
      </trkpt>
      <trkpt lat="45.17967" lon="0.94468">
        <ele>234.12</ele>
        <time>2017-12-07T15:14:11.373Z</time>
      </trkpt>
      <trkpt lat="45.17972" lon="0.9447">
        <ele>234.72</ele>
        <time>2017-12-07T15:14:16.409Z</time>
      </trkpt>
      <trkpt lat="45.17978" lon="0.94472">
        <ele>234.91</ele>
        <time>2017-12-07T15:14:19.412Z</time>
      </trkpt>
      <trkpt lat="45.17983" lon="0.94472">
        <ele>235.04</ele>
        <time>2017-12-07T15:14:22.418Z</time>
      </trkpt>
      <trkpt lat="45.17987" lon="0.94476">
        <ele>234.74</ele>
        <time>2017-12-07T15:14:31.442Z</time>
      </trkpt>
      <trkpt lat="45.17991" lon="0.94478">
        <ele>234.46</ele>
        <time>2017-12-07T15:14:33.443Z</time>
      </trkpt>
      <trkpt lat="45.17996" lon="0.94482">
        <ele>234.4</ele>
        <time>2017-12-07T15:14:35.442Z</time>
      </trkpt>
      <trkpt lat="45.18001" lon="0.94481">
        <ele>234.41</ele>
        <time>2017-12-07T15:14:38.470Z</time>
      </trkpt>
      <trkpt lat="45.18006" lon="0.94481">
        <ele>234.35</ele>
        <time>2017-12-07T15:14:43.463Z</time>
      </trkpt>
      <trkpt lat="45.18011" lon="0.94481">
        <ele>233.51</ele>
        <time>2017-12-07T15:14:51.462Z</time>
      </trkpt>
      <trkpt lat="45.18016" lon="0.9448">
        <ele>233.11</ele>
        <time>2017-12-07T15:14:56.464Z</time>
      </trkpt>
      <trkpt lat="45.18022" lon="0.94481">
        <ele>232.36</ele>
        <time>2017-12-07T15:15:01.468Z</time>
      </trkpt>
      <trkpt lat="45.18027" lon="0.94482">
        <ele>231.98</ele>
        <time>2017-12-07T15:15:05.471Z</time>
      </trkpt>
      <trkpt lat="45.18032" lon="0.94482">
        <ele>232.09</ele>
        <time>2017-12-07T15:15:12.473Z</time>
      </trkpt>
      <trkpt lat="45.18037" lon="0.94481">
        <ele>232.11</ele>
        <time>2017-12-07T15:15:15.502Z</time>
      </trkpt>
      <trkpt lat="45.18041" lon="0.94483">
        <ele>232.24</ele>
        <time>2017-12-07T15:15:26.494Z</time>
      </trkpt>
      <trkpt lat="45.18046" lon="0.94485">
        <ele>231.7</ele>
        <time>2017-12-07T15:15:36.504Z</time>
      </trkpt>
      <trkpt lat="45.1805" lon="0.94488">
        <ele>231.45</ele>
        <time>2017-12-07T15:15:42.489Z</time>
      </trkpt>
      <trkpt lat="45.18056" lon="0.94489">
        <ele>231.09</ele>
        <time>2017-12-07T15:15:46.497Z</time>
      </trkpt>
      <trkpt lat="45.18061" lon="0.9449">
        <ele>230.6</ele>
        <time>2017-12-07T15:15:57.517Z</time>
      </trkpt>
      <trkpt lat="45.18067" lon="0.94489">
        <ele>230.35</ele>
        <time>2017-12-07T15:16:01.552Z</time>
      </trkpt>
      <trkpt lat="45.18072" lon="0.94492">
        <ele>229.99</ele>
        <time>2017-12-07T15:16:11.555Z</time>
      </trkpt>
      <trkpt lat="45.18076" lon="0.94491">
        <ele>229.98</ele>
        <time>2017-12-07T15:16:13.563Z</time>
      </trkpt>
      <trkpt lat="45.18081" lon="0.94491">
        <ele>229.87</ele>
        <time>2017-12-07T15:16:15.562Z</time>
      </trkpt>
      <trkpt lat="45.18086" lon="0.94493">
        <ele>229.71</ele>
        <time>2017-12-07T15:16:21.578Z</time>
      </trkpt>
      <trkpt lat="45.1809" lon="0.94492">
        <ele>229.47</ele>
        <time>2017-12-07T15:16:24.584Z</time>
      </trkpt>
      <trkpt lat="45.18095" lon="0.94492">
        <ele>229.03</ele>
        <time>2017-12-07T15:16:28.589Z</time>
      </trkpt>
      <trkpt lat="45.181" lon="0.94492">
        <ele>228.55</ele>
        <time>2017-12-07T15:16:34.606Z</time>
      </trkpt>
      <trkpt lat="45.18106" lon="0.9449">
        <ele>228.58</ele>
        <time>2017-12-07T15:16:47.624Z</time>
      </trkpt>
      <trkpt lat="45.18111" lon="0.94487">
        <ele>228.05</ele>
        <time>2017-12-07T15:16:50.629Z</time>
      </trkpt>
      <trkpt lat="45.18115" lon="0.94484">
        <ele>227.32</ele>
        <time>2017-12-07T15:16:56.638Z</time>
      </trkpt>
      <trkpt lat="45.18121" lon="0.94484">
        <ele>226.83</ele>
        <time>2017-12-07T15:17:00.636Z</time>
      </trkpt>
      <trkpt lat="45.18128" lon="0.94483">
        <ele>226.49</ele>
        <time>2017-12-07T15:17:03.616Z</time>
      </trkpt>
      <trkpt lat="45.18133" lon="0.94483">
        <ele>226.09</ele>
        <time>2017-12-07T15:17:09.624Z</time>
      </trkpt>
      <trkpt lat="45.18137" lon="0.94482">
        <ele>225.91</ele>
        <time>2017-12-07T15:17:11.627Z</time>
      </trkpt>
      <trkpt lat="45.18142" lon="0.9448">
        <ele>223.95</ele>
        <time>2017-12-07T15:17:22.674Z</time>
      </trkpt>
      <trkpt lat="45.18147" lon="0.9448">
        <ele>222.35</ele>
        <time>2017-12-07T15:17:28.682Z</time>
      </trkpt>
      <trkpt lat="45.18153" lon="0.94481">
        <ele>221.36</ele>
        <time>2017-12-07T15:17:35.673Z</time>
      </trkpt>
      <trkpt lat="45.18158" lon="0.94482">
        <ele>221.22</ele>
        <time>2017-12-07T15:17:38.677Z</time>
      </trkpt>
      <trkpt lat="45.18164" lon="0.94482">
        <ele>221.23</ele>
        <time>2017-12-07T15:17:44.691Z</time>
      </trkpt>
      <trkpt lat="45.18169" lon="0.94483">
        <ele>221.15</ele>
        <time>2017-12-07T15:17:47.698Z</time>
      </trkpt>
      <trkpt lat="45.18174" lon="0.94483">
        <ele>221.07</ele>
        <time>2017-12-07T15:17:51.703Z</time>
      </trkpt>
      <trkpt lat="45.18179" lon="0.94485">
        <ele>220.89</ele>
        <time>2017-12-07T15:17:54.703Z</time>
      </trkpt>
      <trkpt lat="45.18184" lon="0.94488">
        <ele>220.85</ele>
        <time>2017-12-07T15:18:00.704Z</time>
      </trkpt>
      <trkpt lat="45.18189" lon="0.94489">
        <ele>220.78</ele>
        <time>2017-12-07T15:18:02.704Z</time>
      </trkpt>
      <trkpt lat="45.18194" lon="0.9449">
        <ele>220.66</ele>
        <time>2017-12-07T15:18:06.706Z</time>
      </trkpt>
      <trkpt lat="45.18199" lon="0.9449">
        <ele>220.59</ele>
        <time>2017-12-07T15:18:11.708Z</time>
      </trkpt>
      <trkpt lat="45.18205" lon="0.94491">
        <ele>220.52</ele>
        <time>2017-12-07T15:18:16.719Z</time>
      </trkpt>
      <trkpt lat="45.1821" lon="0.94492">
        <ele>220.64</ele>
        <time>2017-12-07T15:18:19.725Z</time>
      </trkpt>
      <trkpt lat="45.18216" lon="0.94493">
        <ele>220.49</ele>
        <time>2017-12-07T15:18:22.727Z</time>
      </trkpt>
      <trkpt lat="45.18221" lon="0.94494">
        <ele>220.45</ele>
        <time>2017-12-07T15:18:24.729Z</time>
      </trkpt>
      <trkpt lat="45.18226" lon="0.94494">
        <ele>220.41</ele>
        <time>2017-12-07T15:18:27.735Z</time>
      </trkpt>
      <trkpt lat="45.18231" lon="0.94494">
        <ele>220.05</ele>
        <time>2017-12-07T15:18:33.773Z</time>
      </trkpt>
      <trkpt lat="45.18236" lon="0.94493">
        <ele>219.65</ele>
        <time>2017-12-07T15:18:37.784Z</time>
      </trkpt>
      <trkpt lat="45.1824" lon="0.94495">
        <ele>218.83</ele>
        <time>2017-12-07T15:18:44.784Z</time>
      </trkpt>
      <trkpt lat="45.18245" lon="0.94499">
        <ele>217.98</ele>
        <time>2017-12-07T15:18:51.792Z</time>
      </trkpt>
      <trkpt lat="45.1825" lon="0.94499">
        <ele>217.79</ele>
        <time>2017-12-07T15:18:54.788Z</time>
      </trkpt>
      <trkpt lat="45.18255" lon="0.945">
        <ele>217.68</ele>
        <time>2017-12-07T15:18:57.788Z</time>
      </trkpt>
      <trkpt lat="45.18259" lon="0.945">
        <ele>217.46</ele>
        <time>2017-12-07T15:19:01.792Z</time>
      </trkpt>
      <trkpt lat="45.18264" lon="0.94499">
        <ele>217.34</ele>
        <time>2017-12-07T15:19:04.806Z</time>
      </trkpt>
      <trkpt lat="45.18269" lon="0.94498">
        <ele>217.14</ele>
        <time>2017-12-07T15:19:08.815Z</time>
      </trkpt>
      <trkpt lat="45.18274" lon="0.94498">
        <ele>217.15</ele>
        <time>2017-12-07T15:19:12.826Z</time>
      </trkpt>
      <trkpt lat="45.18279" lon="0.94497">
        <ele>217.47</ele>
        <time>2017-12-07T15:19:16.821Z</time>
      </trkpt>
      <trkpt lat="45.18284" lon="0.94496">
        <ele>217.72</ele>
        <time>2017-12-07T15:19:19.836Z</time>
      </trkpt>
      <trkpt lat="45.18289" lon="0.94496">
        <ele>217.85</ele>
        <time>2017-12-07T15:19:22.838Z</time>
      </trkpt>
      <trkpt lat="45.18294" lon="0.94495">
        <ele>217.83</ele>
        <time>2017-12-07T15:19:25.837Z</time>
      </trkpt>
      <trkpt lat="45.18298" lon="0.94494">
        <ele>217.62</ele>
        <time>2017-12-07T15:19:32.831Z</time>
      </trkpt>
      <trkpt lat="45.18303" lon="0.94496">
        <ele>217.8</ele>
        <time>2017-12-07T15:19:39.843Z</time>
      </trkpt>
      <trkpt lat="45.18308" lon="0.94497">
        <ele>218.19</ele>
        <time>2017-12-07T15:19:44.844Z</time>
      </trkpt>
      <trkpt lat="45.18313" lon="0.945">
        <ele>218.45</ele>
        <time>2017-12-07T15:19:47.843Z</time>
      </trkpt>
      <trkpt lat="45.18316" lon="0.94504">
        <ele>219.02</ele>
        <time>2017-12-07T15:19:56.847Z</time>
      </trkpt>
      <trkpt lat="45.18321" lon="0.94507">
        <ele>219.52</ele>
        <time>2017-12-07T15:20:04.842Z</time>
      </trkpt>
      <trkpt lat="45.18325" lon="0.94511">
        <ele>220.95</ele>
        <time>2017-12-07T15:20:10.843Z</time>
      </trkpt>
      <trkpt lat="45.1833" lon="0.94512">
        <ele>221.56</ele>
        <time>2017-12-07T15:20:13.853Z</time>
      </trkpt>
      <trkpt lat="45.18334" lon="0.94513">
        <ele>221.97</ele>
        <time>2017-12-07T15:20:15.850Z</time>
      </trkpt>
      <trkpt lat="45.1834" lon="0.94516">
        <ele>222.33</ele>
        <time>2017-12-07T15:20:18.858Z</time>
      </trkpt>
      <trkpt lat="45.18344" lon="0.94519">
        <ele>222.74</ele>
        <time>2017-12-07T15:20:25.862Z</time>
      </trkpt>
      <trkpt lat="45.18348" lon="0.94524">
        <ele>223.04</ele>
        <time>2017-12-07T15:20:29.864Z</time>
      </trkpt>
      <trkpt lat="45.18351" lon="0.94528">
        <ele>223.54</ele>
        <time>2017-12-07T15:20:34.864Z</time>
      </trkpt>
      <trkpt lat="45.18354" lon="0.94533">
        <ele>223.62</ele>
        <time>2017-12-07T15:20:41.866Z</time>
      </trkpt>
      <trkpt lat="45.18358" lon="0.94538">
        <ele>223.75</ele>
        <time>2017-12-07T15:20:47.863Z</time>
      </trkpt>
      <trkpt lat="45.18361" lon="0.94542">
        <ele>224.07</ele>
        <time>2017-12-07T15:20:50.863Z</time>
      </trkpt>
      <trkpt lat="45.18365" lon="0.94549">
        <ele>224.33</ele>
        <time>2017-12-07T15:20:53.875Z</time>
      </trkpt>
      <trkpt lat="45.18369" lon="0.94553">
        <ele>224.83</ele>
        <time>2017-12-07T15:20:57.878Z</time>
      </trkpt>
      <trkpt lat="45.18372" lon="0.94559">
        <ele>225.77</ele>
        <time>2017-12-07T15:21:09.881Z</time>
      </trkpt>
      <trkpt lat="45.18374" lon="0.94566">
        <ele>225.92</ele>
        <time>2017-12-07T15:21:14.893Z</time>
      </trkpt>
      <trkpt lat="45.18377" lon="0.94571">
        <ele>225.85</ele>
        <time>2017-12-07T15:21:18.894Z</time>
      </trkpt>
      <trkpt lat="45.18382" lon="0.94575">
        <ele>225.57</ele>
        <time>2017-12-07T15:21:22.895Z</time>
      </trkpt>
      <trkpt lat="45.18386" lon="0.94578">
        <ele>225.38</ele>
        <time>2017-12-07T15:21:26.893Z</time>
      </trkpt>
      <trkpt lat="45.18389" lon="0.94586">
        <ele>225.09</ele>
        <time>2017-12-07T15:21:35.904Z</time>
      </trkpt>
      <trkpt lat="45.18391" lon="0.94591">
        <ele>225.02</ele>
        <time>2017-12-07T15:21:38.904Z</time>
      </trkpt>
      <trkpt lat="45.18393" lon="0.94597">
        <ele>225.09</ele>
        <time>2017-12-07T15:21:42.903Z</time>
      </trkpt>
      <trkpt lat="45.18396" lon="0.94602">
        <ele>225.12</ele>
        <time>2017-12-07T15:21:46.892Z</time>
      </trkpt>
      <trkpt lat="45.18398" lon="0.94608">
        <ele>225.74</ele>
        <time>2017-12-07T15:21:55.910Z</time>
      </trkpt>
      <trkpt lat="45.18401" lon="0.94615">
        <ele>226.22</ele>
        <time>2017-12-07T15:21:59.915Z</time>
      </trkpt>
      <trkpt lat="45.18401" lon="0.94621">
        <ele>226.38</ele>
        <time>2017-12-07T15:22:03.910Z</time>
      </trkpt>
      <trkpt lat="45.18403" lon="0.94628">
        <ele>226.42</ele>
        <time>2017-12-07T15:22:08.919Z</time>
      </trkpt>
      <trkpt lat="45.18405" lon="0.94634">
        <ele>226.32</ele>
        <time>2017-12-07T15:22:13.914Z</time>
      </trkpt>
      <trkpt lat="45.18409" lon="0.94641">
        <ele>225.92</ele>
        <time>2017-12-07T15:22:18.914Z</time>
      </trkpt>
      <trkpt lat="45.18413" lon="0.94646">
        <ele>225.43</ele>
        <time>2017-12-07T15:22:22.913Z</time>
      </trkpt>
      <trkpt lat="45.18417" lon="0.9465">
        <ele>225.09</ele>
        <time>2017-12-07T15:22:25.915Z</time>
      </trkpt>
      <trkpt lat="45.18421" lon="0.94655">
        <ele>224.61</ele>
        <time>2017-12-07T15:22:29.915Z</time>
      </trkpt>
      <trkpt lat="45.18423" lon="0.9466">
        <ele>224.08</ele>
        <time>2017-12-07T15:22:35.923Z</time>
      </trkpt>
      <trkpt lat="45.18426" lon="0.94666">
        <ele>223.44</ele>
        <time>2017-12-07T15:22:43.924Z</time>
      </trkpt>
      <trkpt lat="45.18426" lon="0.94674">
        <ele>223.07</ele>
        <time>2017-12-07T15:22:48.922Z</time>
      </trkpt>
      <trkpt lat="45.18427" lon="0.94681">
        <ele>222.54</ele>
        <time>2017-12-07T15:22:53.923Z</time>
      </trkpt>
      <trkpt lat="45.1843" lon="0.94687">
        <ele>222.34</ele>
        <time>2017-12-07T15:23:01.927Z</time>
      </trkpt>
      <trkpt lat="45.18431" lon="0.94693">
        <ele>222.23</ele>
        <time>2017-12-07T15:23:04.927Z</time>
      </trkpt>
      <trkpt lat="45.18434" lon="0.947">
        <ele>222.36</ele>
        <time>2017-12-07T15:23:08.929Z</time>
      </trkpt>
      <trkpt lat="45.18438" lon="0.94705">
        <ele>222.87</ele>
        <time>2017-12-07T15:23:12.929Z</time>
      </trkpt>
      <trkpt lat="45.18442" lon="0.9471">
        <ele>223.67</ele>
        <time>2017-12-07T15:23:17.930Z</time>
      </trkpt>
      <trkpt lat="45.18444" lon="0.94718">
        <ele>224.67</ele>
        <time>2017-12-07T15:23:25.933Z</time>
      </trkpt>
      <trkpt lat="45.18447" lon="0.94725">
        <ele>225</ele>
        <time>2017-12-07T15:23:28.933Z</time>
      </trkpt>
      <trkpt lat="45.18451" lon="0.9473">
        <ele>225.7</ele>
        <time>2017-12-07T15:23:36.936Z</time>
      </trkpt>
      <trkpt lat="45.18455" lon="0.94734">
        <ele>225.76</ele>
        <time>2017-12-07T15:23:40.937Z</time>
      </trkpt>
      <trkpt lat="45.18457" lon="0.94742">
        <ele>225.63</ele>
        <time>2017-12-07T15:23:44.937Z</time>
      </trkpt>
      <trkpt lat="45.18457" lon="0.94748">
        <ele>225.24</ele>
        <time>2017-12-07T15:23:48.938Z</time>
      </trkpt>
      <trkpt lat="45.18461" lon="0.94754">
        <ele>224.26</ele>
        <time>2017-12-07T15:23:53.941Z</time>
      </trkpt>
      <trkpt lat="45.18465" lon="0.94761">
        <ele>223.91</ele>
        <time>2017-12-07T15:23:59.942Z</time>
      </trkpt>
      <trkpt lat="45.18465" lon="0.94767">
        <ele>224.22</ele>
        <time>2017-12-07T15:24:03.949Z</time>
      </trkpt>
      <trkpt lat="45.18465" lon="0.94774">
        <ele>224.67</ele>
        <time>2017-12-07T15:24:07.949Z</time>
      </trkpt>
      <trkpt lat="45.18467" lon="0.94781">
        <ele>225.08</ele>
        <time>2017-12-07T15:24:11.952Z</time>
      </trkpt>
      <trkpt lat="45.18467" lon="0.94789">
        <ele>225.47</ele>
        <time>2017-12-07T15:24:15.952Z</time>
      </trkpt>
      <trkpt lat="45.18469" lon="0.94797">
        <ele>225.49</ele>
        <time>2017-12-07T15:24:19.955Z</time>
      </trkpt>
      <trkpt lat="45.18472" lon="0.94804">
        <ele>225.47</ele>
        <time>2017-12-07T15:24:23.956Z</time>
      </trkpt>
      <trkpt lat="45.18468" lon="0.94809">
        <ele>225.58</ele>
        <time>2017-12-07T15:24:28.957Z</time>
      </trkpt>
      <trkpt lat="45.18469" lon="0.94817">
        <ele>225.77</ele>
        <time>2017-12-07T15:24:31.959Z</time>
      </trkpt>
      <trkpt lat="45.18472" lon="0.94821">
        <ele>225.96</ele>
        <time>2017-12-07T15:24:37.961Z</time>
      </trkpt>
      <trkpt lat="45.18477" lon="0.94823">
        <ele>225.94</ele>
        <time>2017-12-07T15:24:41.961Z</time>
      </trkpt>
      <trkpt lat="45.18481" lon="0.94827">
        <ele>226.07</ele>
        <time>2017-12-07T15:24:45.963Z</time>
      </trkpt>
      <trkpt lat="45.18485" lon="0.94831">
        <ele>225.56</ele>
        <time>2017-12-07T15:24:51.964Z</time>
      </trkpt>
      <trkpt lat="45.1849" lon="0.94836">
        <ele>225.06</ele>
        <time>2017-12-07T15:24:56.965Z</time>
      </trkpt>
      <trkpt lat="45.18493" lon="0.94841">
        <ele>224.21</ele>
        <time>2017-12-07T15:25:02.969Z</time>
      </trkpt>
      <trkpt lat="45.18496" lon="0.94845">
        <ele>223.59</ele>
        <time>2017-12-07T15:25:12.973Z</time>
      </trkpt>
      <trkpt lat="45.18502" lon="0.94849">
        <ele>223.18</ele>
        <time>2017-12-07T15:25:17.974Z</time>
      </trkpt>
      <trkpt lat="45.18506" lon="0.94854">
        <ele>222.69</ele>
        <time>2017-12-07T15:25:23.981Z</time>
      </trkpt>
      <trkpt lat="45.18509" lon="0.94859">
        <ele>222.77</ele>
        <time>2017-12-07T15:25:31.984Z</time>
      </trkpt>
      <trkpt lat="45.18514" lon="0.94862">
        <ele>223.31</ele>
        <time>2017-12-07T15:25:37.985Z</time>
      </trkpt>
      <trkpt lat="45.18521" lon="0.94876">
        <ele>228.47</ele>
        <time>2017-12-07T15:33:03.540Z</time>
      </trkpt>
      <trkpt lat="45.18525" lon="0.9488">
        <ele>228.78</ele>
        <time>2017-12-07T15:33:06.631Z</time>
      </trkpt>
      <trkpt lat="45.18529" lon="0.94883">
        <ele>229.26</ele>
        <time>2017-12-07T15:33:15.573Z</time>
      </trkpt>
      <trkpt lat="45.18533" lon="0.94887">
        <ele>229.33</ele>
        <time>2017-12-07T15:33:24.596Z</time>
      </trkpt>
      <trkpt lat="45.18539" lon="0.94889">
        <ele>229.94</ele>
        <time>2017-12-07T15:33:44.602Z</time>
      </trkpt>
      <trkpt lat="45.18544" lon="0.94894">
        <ele>230.04</ele>
        <time>2017-12-07T15:33:49.613Z</time>
      </trkpt>
      <trkpt lat="45.18544" lon="0.94901">
        <ele>230.48</ele>
        <time>2017-12-07T15:34:02.632Z</time>
      </trkpt>
      <trkpt lat="45.18549" lon="0.94904">
        <ele>230.34</ele>
        <time>2017-12-07T15:34:09.646Z</time>
      </trkpt>
      <trkpt lat="45.18553" lon="0.94907">
        <ele>230.74</ele>
        <time>2017-12-07T15:34:15.660Z</time>
      </trkpt>
      <trkpt lat="45.18557" lon="0.94912">
        <ele>231.46</ele>
        <time>2017-12-07T15:34:28.678Z</time>
      </trkpt>
      <trkpt lat="45.1856" lon="0.94918">
        <ele>231.98</ele>
        <time>2017-12-07T15:34:36.694Z</time>
      </trkpt>
      <trkpt lat="45.18563" lon="0.94923">
        <ele>232.59</ele>
        <time>2017-12-07T15:34:42.740Z</time>
      </trkpt>
      <trkpt lat="45.18564" lon="0.94929">
        <ele>232.64</ele>
        <time>2017-12-07T15:34:46.744Z</time>
      </trkpt>
      <trkpt lat="45.18564" lon="0.94938">
        <ele>232.29</ele>
        <time>2017-12-07T15:34:52.754Z</time>
      </trkpt>
      <trkpt lat="45.18564" lon="0.94945">
        <ele>232.37</ele>
        <time>2017-12-07T15:34:55.753Z</time>
      </trkpt>
      <trkpt lat="45.18562" lon="0.94953">
        <ele>233.49</ele>
        <time>2017-12-07T15:35:13.752Z</time>
      </trkpt>
      <trkpt lat="45.18564" lon="0.9496">
        <ele>233.75</ele>
        <time>2017-12-07T15:35:29.785Z</time>
      </trkpt>
      <trkpt lat="45.18564" lon="0.94967">
        <ele>233.88</ele>
        <time>2017-12-07T15:35:39.793Z</time>
      </trkpt>
      <trkpt lat="45.18562" lon="0.94975">
        <ele>234.12</ele>
        <time>2017-12-07T15:35:44.795Z</time>
      </trkpt>
      <trkpt lat="45.18565" lon="0.94983">
        <ele>234.31</ele>
        <time>2017-12-07T15:35:48.804Z</time>
      </trkpt>
      <trkpt lat="45.18567" lon="0.94989">
        <ele>234.5</ele>
        <time>2017-12-07T15:35:53.820Z</time>
      </trkpt>
      <trkpt lat="45.18569" lon="0.94996">
        <ele>234.8</ele>
        <time>2017-12-07T15:35:58.831Z</time>
      </trkpt>
      <trkpt lat="45.1857" lon="0.95003">
        <ele>236.12</ele>
        <time>2017-12-07T15:36:14.856Z</time>
      </trkpt>
      <trkpt lat="45.18572" lon="0.9501">
        <ele>236.99</ele>
        <time>2017-12-07T15:36:26.827Z</time>
      </trkpt>
      <trkpt lat="45.18574" lon="0.95016">
        <ele>237.07</ele>
        <time>2017-12-07T15:36:29.828Z</time>
      </trkpt>
      <trkpt lat="45.18576" lon="0.95023">
        <ele>238.39</ele>
        <time>2017-12-07T15:36:37.830Z</time>
      </trkpt>
      <trkpt lat="45.18578" lon="0.9503">
        <ele>240.36</ele>
        <time>2017-12-07T15:36:50.834Z</time>
      </trkpt>
      <trkpt lat="45.18577" lon="0.95036">
        <ele>241.95</ele>
        <time>2017-12-07T15:36:59.841Z</time>
      </trkpt>
      <trkpt lat="45.18575" lon="0.95042">
        <ele>242.48</ele>
        <time>2017-12-07T15:37:05.845Z</time>
      </trkpt>
      <trkpt lat="45.18577" lon="0.95051">
        <ele>242.54</ele>
        <time>2017-12-07T15:37:08.846Z</time>
      </trkpt>
      <trkpt lat="45.18579" lon="0.95057">
        <ele>242.62</ele>
        <time>2017-12-07T15:37:10.846Z</time>
      </trkpt>
      <trkpt lat="45.18581" lon="0.95063">
        <ele>242.74</ele>
        <time>2017-12-07T15:37:12.847Z</time>
      </trkpt>
      <trkpt lat="45.18583" lon="0.95069">
        <ele>243.44</ele>
        <time>2017-12-07T15:37:16.848Z</time>
      </trkpt>
      <trkpt lat="45.18585" lon="0.95075">
        <ele>244.51</ele>
        <time>2017-12-07T15:37:22.850Z</time>
      </trkpt>
      <trkpt lat="45.18586" lon="0.95082">
        <ele>245.23</ele>
        <time>2017-12-07T15:37:25.852Z</time>
      </trkpt>
      <trkpt lat="45.18588" lon="0.9509">
        <ele>246.43</ele>
        <time>2017-12-07T15:37:32.857Z</time>
      </trkpt>
      <trkpt lat="45.1859" lon="0.95095">
        <ele>246.78</ele>
        <time>2017-12-07T15:37:35.861Z</time>
      </trkpt>
      <trkpt lat="45.18592" lon="0.95103">
        <ele>248.33</ele>
        <time>2017-12-07T15:37:50.868Z</time>
      </trkpt>
      <trkpt lat="45.18594" lon="0.95108">
        <ele>248.54</ele>
        <time>2017-12-07T15:37:52.873Z</time>
      </trkpt>
      <trkpt lat="45.18597" lon="0.95115">
        <ele>248.81</ele>
        <time>2017-12-07T15:37:55.874Z</time>
      </trkpt>
      <trkpt lat="45.186" lon="0.95121">
        <ele>249.45</ele>
        <time>2017-12-07T15:38:01.875Z</time>
      </trkpt>
      <trkpt lat="45.18601" lon="0.95128">
        <ele>249.66</ele>
        <time>2017-12-07T15:38:04.877Z</time>
      </trkpt>
      <trkpt lat="45.18601" lon="0.95134">
        <ele>250</ele>
        <time>2017-12-07T15:38:08.878Z</time>
      </trkpt>
      <trkpt lat="45.18607" lon="0.95139">
        <ele>250.11</ele>
        <time>2017-12-07T15:38:11.879Z</time>
      </trkpt>
      <trkpt lat="45.1861" lon="0.95144">
        <ele>250.28</ele>
        <time>2017-12-07T15:38:13.880Z</time>
      </trkpt>
      <trkpt lat="45.18611" lon="0.95153">
        <ele>250.74</ele>
        <time>2017-12-07T15:38:16.881Z</time>
      </trkpt>
      <trkpt lat="45.18612" lon="0.9516">
        <ele>251.47</ele>
        <time>2017-12-07T15:38:23.884Z</time>
      </trkpt>
      <trkpt lat="45.1861" lon="0.95166">
        <ele>252.92</ele>
        <time>2017-12-07T15:38:29.886Z</time>
      </trkpt>
      <trkpt lat="45.18607" lon="0.95173">
        <ele>253.96</ele>
        <time>2017-12-07T15:38:38.893Z</time>
      </trkpt>
      <trkpt lat="45.18605" lon="0.9518">
        <ele>254.35</ele>
        <time>2017-12-07T15:38:42.894Z</time>
      </trkpt>
      <trkpt lat="45.18604" lon="0.95187">
        <ele>255.37</ele>
        <time>2017-12-07T15:38:47.896Z</time>
      </trkpt>
      <trkpt lat="45.186" lon="0.95191">
        <ele>256.72</ele>
        <time>2017-12-07T15:38:53.897Z</time>
      </trkpt>
      <trkpt lat="45.18599" lon="0.95198">
        <ele>258.06</ele>
        <time>2017-12-07T15:38:59.898Z</time>
      </trkpt>
      <trkpt lat="45.18601" lon="0.95205">
        <ele>259.65</ele>
        <time>2017-12-07T15:39:09.901Z</time>
      </trkpt>
      <trkpt lat="45.18605" lon="0.95209">
        <ele>260.89</ele>
        <time>2017-12-07T15:39:21.904Z</time>
      </trkpt>
      <trkpt lat="45.18609" lon="0.95214">
        <ele>261.5</ele>
        <time>2017-12-07T15:39:30.907Z</time>
      </trkpt>
      <trkpt lat="45.18607" lon="0.9522">
        <ele>261.91</ele>
        <time>2017-12-07T15:39:36.910Z</time>
      </trkpt>
      <trkpt lat="45.18607" lon="0.95228">
        <ele>262.07</ele>
        <time>2017-12-07T15:39:42.911Z</time>
      </trkpt>
      <trkpt lat="45.18606" lon="0.95235">
        <ele>262.21</ele>
        <time>2017-12-07T15:39:45.912Z</time>
      </trkpt>
      <trkpt lat="45.18606" lon="0.95241">
        <ele>262.14</ele>
        <time>2017-12-07T15:39:49.913Z</time>
      </trkpt>
      <trkpt lat="45.18604" lon="0.95247">
        <ele>263.62</ele>
        <time>2017-12-07T15:40:01.917Z</time>
      </trkpt>
      <trkpt lat="45.18605" lon="0.95254">
        <ele>265.37</ele>
        <time>2017-12-07T15:40:07.917Z</time>
      </trkpt>
      <trkpt lat="45.18605" lon="0.95262">
        <ele>266.02</ele>
        <time>2017-12-07T15:40:11.918Z</time>
      </trkpt>
      <trkpt lat="45.18605" lon="0.95268">
        <ele>267.5</ele>
        <time>2017-12-07T15:40:22.920Z</time>
      </trkpt>
      <trkpt lat="45.18607" lon="0.95276">
        <ele>268.23</ele>
        <time>2017-12-07T15:40:26.923Z</time>
      </trkpt>
      <trkpt lat="45.18607" lon="0.95282">
        <ele>269.64</ele>
        <time>2017-12-07T15:40:32.924Z</time>
      </trkpt>
      <trkpt lat="45.18605" lon="0.95289">
        <ele>270.39</ele>
        <time>2017-12-07T15:40:37.924Z</time>
      </trkpt>
      <trkpt lat="45.18605" lon="0.95296">
        <ele>270.58</ele>
        <time>2017-12-07T15:40:44.927Z</time>
      </trkpt>
      <trkpt lat="45.18604" lon="0.95303">
        <ele>271.19</ele>
        <time>2017-12-07T15:40:51.931Z</time>
      </trkpt>
      <trkpt lat="45.18605" lon="0.95309">
        <ele>271.82</ele>
        <time>2017-12-07T15:40:57.932Z</time>
      </trkpt>
      <trkpt lat="45.18606" lon="0.95316">
        <ele>272.42</ele>
        <time>2017-12-07T15:41:01.933Z</time>
      </trkpt>
      <trkpt lat="45.18608" lon="0.95322">
        <ele>272.95</ele>
        <time>2017-12-07T15:41:08.936Z</time>
      </trkpt>
      <trkpt lat="45.18611" lon="0.95328">
        <ele>273.69</ele>
        <time>2017-12-07T15:41:17.939Z</time>
      </trkpt>
      <trkpt lat="45.18613" lon="0.95334">
        <ele>274.6</ele>
        <time>2017-12-07T15:41:25.940Z</time>
      </trkpt>
      <trkpt lat="45.18617" lon="0.95341">
        <ele>275.09</ele>
        <time>2017-12-07T15:41:29.942Z</time>
      </trkpt>
      <trkpt lat="45.1862" lon="0.95347">
        <ele>275.7</ele>
        <time>2017-12-07T15:41:40.946Z</time>
      </trkpt>
      <trkpt lat="45.18625" lon="0.95351">
        <ele>276.18</ele>
        <time>2017-12-07T15:41:48.951Z</time>
      </trkpt>
      <trkpt lat="45.18627" lon="0.95357">
        <ele>276.09</ele>
        <time>2017-12-07T15:41:54.962Z</time>
      </trkpt>
      <trkpt lat="45.1863" lon="0.95363">
        <ele>276.26</ele>
        <time>2017-12-07T15:42:03.980Z</time>
      </trkpt>
      <trkpt lat="45.1863" lon="0.95369">
        <ele>276.27</ele>
        <time>2017-12-07T15:42:11.994Z</time>
      </trkpt>
      <trkpt lat="45.18631" lon="0.95376">
        <ele>276.64</ele>
        <time>2017-12-07T15:42:20.120Z</time>
      </trkpt>
      <trkpt lat="45.1863" lon="0.95384">
        <ele>277.15</ele>
        <time>2017-12-07T15:42:26.230Z</time>
      </trkpt>
      <trkpt lat="45.18629" lon="0.95392">
        <ele>278.72</ele>
        <time>2017-12-07T15:42:32.340Z</time>
      </trkpt>
      <trkpt lat="45.18631" lon="0.95399">
        <ele>279.57</ele>
        <time>2017-12-07T15:42:37.410Z</time>
      </trkpt>
      <trkpt lat="45.18632" lon="0.95406">
        <ele>280.17</ele>
        <time>2017-12-07T15:42:42.520Z</time>
      </trkpt>
      <trkpt lat="45.18634" lon="0.95413">
        <ele>280.72</ele>
        <time>2017-12-07T15:42:46.600Z</time>
      </trkpt>
      <trkpt lat="45.18635" lon="0.95419">
        <ele>281.42</ele>
        <time>2017-12-07T15:42:50.670Z</time>
      </trkpt>
      <trkpt lat="45.18637" lon="0.95426">
        <ele>282.05</ele>
        <time>2017-12-07T15:42:55.750Z</time>
      </trkpt>
      <trkpt lat="45.18636" lon="0.95433">
        <ele>283</ele>
        <time>2017-12-07T15:43:01.840Z</time>
      </trkpt>
      <trkpt lat="45.18637" lon="0.95439">
        <ele>283.71</ele>
        <time>2017-12-07T15:43:07.970Z</time>
      </trkpt>
      <trkpt lat="45.1864" lon="0.95445">
        <ele>284.21</ele>
        <time>2017-12-07T15:43:12.109Z</time>
      </trkpt>
      <trkpt lat="45.18643" lon="0.9545">
        <ele>284.55</ele>
        <time>2017-12-07T15:43:17.146Z</time>
      </trkpt>
      <trkpt lat="45.18647" lon="0.95456">
        <ele>285.22</ele>
        <time>2017-12-07T15:43:22.187Z</time>
      </trkpt>
      <trkpt lat="45.1865" lon="0.9546">
        <ele>285.62</ele>
        <time>2017-12-07T15:43:30.145Z</time>
      </trkpt>
      <trkpt lat="45.18652" lon="0.95467">
        <ele>285.8</ele>
        <time>2017-12-07T15:43:36.159Z</time>
      </trkpt>
      <trkpt lat="45.18654" lon="0.95473">
        <ele>285.85</ele>
        <time>2017-12-07T15:43:39.166Z</time>
      </trkpt>
      <trkpt lat="45.18657" lon="0.95478">
        <ele>286.14</ele>
        <time>2017-12-07T15:43:46.182Z</time>
      </trkpt>
      <trkpt lat="45.1866" lon="0.95484">
        <ele>286.44</ele>
        <time>2017-12-07T15:43:51.194Z</time>
      </trkpt>
      <trkpt lat="45.18663" lon="0.9549">
        <ele>286.6</ele>
        <time>2017-12-07T15:43:55.202Z</time>
      </trkpt>
      <trkpt lat="45.18666" lon="0.95497">
        <ele>286.91</ele>
        <time>2017-12-07T15:44:00.214Z</time>
      </trkpt>
      <trkpt lat="45.1867" lon="0.95502">
        <ele>286.82</ele>
        <time>2017-12-07T15:44:07.229Z</time>
      </trkpt>
      <trkpt lat="45.18672" lon="0.95507">
        <ele>286.92</ele>
        <time>2017-12-07T15:44:14.270Z</time>
      </trkpt>
      <trkpt lat="45.18674" lon="0.95515">
        <ele>287.4</ele>
        <time>2017-12-07T15:44:20.285Z</time>
      </trkpt>
      <trkpt lat="45.18676" lon="0.95522">
        <ele>287.51</ele>
        <time>2017-12-07T15:44:24.263Z</time>
      </trkpt>
      <trkpt lat="45.18678" lon="0.95528">
        <ele>288.02</ele>
        <time>2017-12-07T15:44:29.271Z</time>
      </trkpt>
      <trkpt lat="45.18682" lon="0.95533">
        <ele>288.68</ele>
        <time>2017-12-07T15:44:37.285Z</time>
      </trkpt>
      <trkpt lat="45.18686" lon="0.95534">
        <ele>289.05</ele>
        <time>2017-12-07T15:44:40.290Z</time>
      </trkpt>
      <trkpt lat="45.18687" lon="0.95541">
        <ele>289.45</ele>
        <time>2017-12-07T15:44:49.307Z</time>
      </trkpt>
      <trkpt lat="45.18685" lon="0.95547">
        <ele>289.53</ele>
        <time>2017-12-07T15:45:06.316Z</time>
      </trkpt>
      <trkpt lat="45.18685" lon="0.95554">
        <ele>292.28</ele>
        <time>2017-12-07T15:46:51.445Z</time>
      </trkpt>
      <trkpt lat="45.18678" lon="0.95579">
        <ele>244.6</ele>
      </trkpt>
      <trkpt lat="45.18675" lon="0.95587">
        <ele>244.1</ele>
      </trkpt>
      <trkpt lat="45.18696" lon="0.95611">
        <ele>240.6</ele>
      </trkpt>
      <trkpt lat="45.18698" lon="0.95613">
        <ele>281.83</ele>
        <time>2017-12-07T12:52:04.790Z</time>
      </trkpt>
      <trkpt lat="45.18703" lon="0.95616">
        <ele>282.55</ele>
        <time>2017-12-07T12:52:08.800Z</time>
      </trkpt>
      <trkpt lat="45.18708" lon="0.95618">
        <ele>283.14</ele>
        <time>2017-12-07T12:52:12.800Z</time>
      </trkpt>
      <trkpt lat="45.18713" lon="0.95621">
        <ele>283.04</ele>
        <time>2017-12-07T12:52:16.820Z</time>
      </trkpt>
      <trkpt lat="45.18716" lon="0.95628">
        <ele>282.76</ele>
        <time>2017-12-07T12:52:20.830Z</time>
      </trkpt>
      <trkpt lat="45.18732" lon="0.9564">
        <ele>282.3</ele>
        <time>2017-12-07T12:52:36.870Z</time>
      </trkpt>
      <trkpt lat="45.18739" lon="0.9564">
        <ele>281.9</ele>
        <time>2017-12-07T12:52:40.762Z</time>
      </trkpt>
      <trkpt lat="45.18743" lon="0.95642">
        <ele>281.68</ele>
        <time>2017-12-07T12:52:44.764Z</time>
      </trkpt>
      <trkpt lat="45.18747" lon="0.95645">
        <ele>281.31</ele>
        <time>2017-12-07T12:52:46.766Z</time>
      </trkpt>
      <trkpt lat="45.18752" lon="0.95647">
        <ele>281.04</ele>
        <time>2017-12-07T12:52:50.766Z</time>
      </trkpt>
      <trkpt lat="45.18757" lon="0.95647">
        <ele>280.78</ele>
        <time>2017-12-07T12:52:56.768Z</time>
      </trkpt>
      <trkpt lat="45.18764" lon="0.95648">
        <ele>281.24</ele>
        <time>2017-12-07T12:53:01.770Z</time>
      </trkpt>
      <trkpt lat="45.1877" lon="0.9565">
        <ele>281.11</ele>
        <time>2017-12-07T12:53:05.772Z</time>
      </trkpt>
      <trkpt lat="45.18774" lon="0.95654">
        <ele>280.32</ele>
        <time>2017-12-07T12:53:09.773Z</time>
      </trkpt>
      <trkpt lat="45.18778" lon="0.95657">
        <ele>280.15</ele>
        <time>2017-12-07T12:53:13.775Z</time>
      </trkpt>
      <trkpt lat="45.18782" lon="0.9566">
        <ele>279.73</ele>
        <time>2017-12-07T12:53:16.776Z</time>
      </trkpt>
      <trkpt lat="45.18786" lon="0.95665">
        <ele>279.59</ele>
        <time>2017-12-07T12:53:19.777Z</time>
      </trkpt>
      <trkpt lat="45.1879" lon="0.95669">
        <ele>279.19</ele>
        <time>2017-12-07T12:53:22.778Z</time>
      </trkpt>
      <trkpt lat="45.18794" lon="0.95672">
        <ele>278.58</ele>
        <time>2017-12-07T12:53:26.778Z</time>
      </trkpt>
      <trkpt lat="45.18798" lon="0.95678">
        <ele>278.26</ele>
        <time>2017-12-07T12:53:31.778Z</time>
      </trkpt>
      <trkpt lat="45.18801" lon="0.95684">
        <ele>278.01</ele>
        <time>2017-12-07T12:53:35.780Z</time>
      </trkpt>
      <trkpt lat="45.18803" lon="0.95689">
        <ele>277.72</ele>
        <time>2017-12-07T12:53:38.780Z</time>
      </trkpt>
      <trkpt lat="45.18807" lon="0.95695">
        <ele>276.69</ele>
        <time>2017-12-07T12:53:44.780Z</time>
      </trkpt>
      <trkpt lat="45.18809" lon="0.95703">
        <ele>273.87</ele>
        <time>2017-12-07T12:54:01.785Z</time>
      </trkpt>
      <trkpt lat="45.18812" lon="0.9571">
        <ele>273.26</ele>
        <time>2017-12-07T12:54:14.793Z</time>
      </trkpt>
      <trkpt lat="45.18816" lon="0.95718">
        <ele>272.48</ele>
        <time>2017-12-07T12:54:19.795Z</time>
      </trkpt>
      <trkpt lat="45.18817" lon="0.95724">
        <ele>272.13</ele>
        <time>2017-12-07T12:54:21.796Z</time>
      </trkpt>
      <trkpt lat="45.18821" lon="0.95729">
        <ele>271.56</ele>
        <time>2017-12-07T12:54:24.804Z</time>
      </trkpt>
      <trkpt lat="45.18825" lon="0.95733">
        <ele>270.72</ele>
        <time>2017-12-07T12:54:28.807Z</time>
      </trkpt>
      <trkpt lat="45.18831" lon="0.95735">
        <ele>270.23</ele>
        <time>2017-12-07T12:54:32.810Z</time>
      </trkpt>
      <trkpt lat="45.18834" lon="0.95739">
        <ele>269.35</ele>
        <time>2017-12-07T12:54:37.814Z</time>
      </trkpt>
      <trkpt lat="45.1884" lon="0.95742">
        <ele>268.49</ele>
        <time>2017-12-07T12:54:41.820Z</time>
      </trkpt>
      <trkpt lat="45.18844" lon="0.95744">
        <ele>267.78</ele>
        <time>2017-12-07T12:54:44.821Z</time>
      </trkpt>
      <trkpt lat="45.1885" lon="0.95746">
        <ele>267.32</ele>
        <time>2017-12-07T12:54:47.823Z</time>
      </trkpt>
      <trkpt lat="45.18856" lon="0.95748">
        <ele>267.19</ele>
        <time>2017-12-07T12:54:50.825Z</time>
      </trkpt>
      <trkpt lat="45.1886" lon="0.9575">
        <ele>266.88</ele>
        <time>2017-12-07T12:54:53.827Z</time>
      </trkpt>
      <trkpt lat="45.18864" lon="0.95756">
        <ele>265.88</ele>
        <time>2017-12-07T12:54:57.831Z</time>
      </trkpt>
      <trkpt lat="45.18868" lon="0.95759">
        <ele>265.14</ele>
        <time>2017-12-07T12:55:02.835Z</time>
      </trkpt>
      <trkpt lat="45.18872" lon="0.95759">
        <ele>264.37</ele>
        <time>2017-12-07T12:55:08.839Z</time>
      </trkpt>
      <trkpt lat="45.18877" lon="0.95758">
        <ele>264.53</ele>
        <time>2017-12-07T12:55:12.842Z</time>
      </trkpt>
      <trkpt lat="45.18882" lon="0.95757">
        <ele>264.97</ele>
        <time>2017-12-07T12:55:16.848Z</time>
      </trkpt>
      <trkpt lat="45.18886" lon="0.9576">
        <ele>265.22</ele>
        <time>2017-12-07T12:55:19.855Z</time>
      </trkpt>
      <trkpt lat="45.18891" lon="0.95764">
        <ele>265.3</ele>
        <time>2017-12-07T12:55:23.859Z</time>
      </trkpt>
      <trkpt lat="45.18896" lon="0.95767">
        <ele>265.49</ele>
        <time>2017-12-07T12:55:27.860Z</time>
      </trkpt>
      <trkpt lat="45.18901" lon="0.95769">
        <ele>265.61</ele>
        <time>2017-12-07T12:55:31.862Z</time>
      </trkpt>
      <trkpt lat="45.18906" lon="0.95771">
        <ele>265.66</ele>
        <time>2017-12-07T12:55:35.869Z</time>
      </trkpt>
      <trkpt lat="45.1891" lon="0.95773">
        <ele>265.8</ele>
        <time>2017-12-07T12:55:39.878Z</time>
      </trkpt>
      <trkpt lat="45.18916" lon="0.95775">
        <ele>265.86</ele>
        <time>2017-12-07T12:55:43.887Z</time>
      </trkpt>
      <trkpt lat="45.1892" lon="0.9578">
        <ele>265.87</ele>
        <time>2017-12-07T12:55:47.892Z</time>
      </trkpt>
      <trkpt lat="45.18924" lon="0.95784">
        <ele>265.63</ele>
        <time>2017-12-07T12:55:52.903Z</time>
      </trkpt>
      <trkpt lat="45.18926" lon="0.9579">
        <ele>265.2</ele>
        <time>2017-12-07T12:55:57.910Z</time>
      </trkpt>
      <trkpt lat="45.18929" lon="0.95797">
        <ele>264.53</ele>
        <time>2017-12-07T12:56:02.914Z</time>
      </trkpt>
      <trkpt lat="45.18933" lon="0.95802">
        <ele>263.64</ele>
        <time>2017-12-07T12:56:07.916Z</time>
      </trkpt>
      <trkpt lat="45.18935" lon="0.95809">
        <ele>262.91</ele>
        <time>2017-12-07T12:56:12.919Z</time>
      </trkpt>
      <trkpt lat="45.18938" lon="0.95815">
        <ele>262.21</ele>
        <time>2017-12-07T12:56:17.927Z</time>
      </trkpt>
      <trkpt lat="45.18944" lon="0.95819">
        <ele>261.26</ele>
        <time>2017-12-07T12:56:21.931Z</time>
      </trkpt>
      <trkpt lat="45.18949" lon="0.95818">
        <ele>260.35</ele>
        <time>2017-12-07T12:56:25.937Z</time>
      </trkpt>
      <trkpt lat="45.18954" lon="0.95816">
        <ele>260.04</ele>
        <time>2017-12-07T12:56:28.944Z</time>
      </trkpt>
      <trkpt lat="45.18959" lon="0.95813">
        <ele>259.76</ele>
        <time>2017-12-07T12:56:33.955Z</time>
      </trkpt>
      <trkpt lat="45.18965" lon="0.9581">
        <ele>259.31</ele>
        <time>2017-12-07T12:56:37.989Z</time>
      </trkpt>
      <trkpt lat="45.18969" lon="0.95807">
        <ele>259.05</ele>
        <time>2017-12-07T12:56:43.010Z</time>
      </trkpt>
      <trkpt lat="45.18975" lon="0.95805">
        <ele>258.26</ele>
        <time>2017-12-07T12:56:48.080Z</time>
      </trkpt>
      <trkpt lat="45.1898" lon="0.95805">
        <ele>257.51</ele>
        <time>2017-12-07T12:56:51.990Z</time>
      </trkpt>
      <trkpt lat="45.18985" lon="0.95804">
        <ele>256.99</ele>
        <time>2017-12-07T12:56:55.996Z</time>
      </trkpt>
      <trkpt lat="45.1899" lon="0.95801">
        <ele>256.62</ele>
        <time>2017-12-07T12:57:00.030Z</time>
      </trkpt>
      <trkpt lat="45.18995" lon="0.95802">
        <ele>256.11</ele>
        <time>2017-12-07T12:57:04.110Z</time>
      </trkpt>
      <trkpt lat="45.19001" lon="0.95803">
        <ele>255.94</ele>
        <time>2017-12-07T12:57:09.190Z</time>
      </trkpt>
      <trkpt lat="45.19005" lon="0.95804">
        <ele>255.6</ele>
        <time>2017-12-07T12:57:12.260Z</time>
      </trkpt>
      <trkpt lat="45.1901" lon="0.95805">
        <ele>254.97</ele>
        <time>2017-12-07T12:57:16.320Z</time>
      </trkpt>
      <trkpt lat="45.19015" lon="0.95805">
        <ele>254.1</ele>
        <time>2017-12-07T12:57:20.410Z</time>
      </trkpt>
      <trkpt lat="45.19021" lon="0.95804">
        <ele>252.92</ele>
        <time>2017-12-07T12:57:25.470Z</time>
      </trkpt>
      <trkpt lat="45.19027" lon="0.95804">
        <ele>252.16</ele>
        <time>2017-12-07T12:57:29.480Z</time>
      </trkpt>
      <trkpt lat="45.19032" lon="0.95805">
        <ele>251.52</ele>
        <time>2017-12-07T12:57:35.510Z</time>
      </trkpt>
      <trkpt lat="45.19037" lon="0.95806">
        <ele>250.77</ele>
        <time>2017-12-07T12:57:40.580Z</time>
      </trkpt>
      <trkpt lat="45.19042" lon="0.95807">
        <ele>250.34</ele>
        <time>2017-12-07T12:57:43.630Z</time>
      </trkpt>
      <trkpt lat="45.19046" lon="0.9581">
        <ele>249.97</ele>
        <time>2017-12-07T12:57:47.730Z</time>
      </trkpt>
      <trkpt lat="45.19052" lon="0.95811">
        <ele>249.54</ele>
        <time>2017-12-07T12:57:51.113Z</time>
      </trkpt>
      <trkpt lat="45.19057" lon="0.95813">
        <ele>248.71</ele>
        <time>2017-12-07T12:57:56.123Z</time>
      </trkpt>
      <trkpt lat="45.19062" lon="0.95815">
        <ele>247.79</ele>
        <time>2017-12-07T12:58:02.127Z</time>
      </trkpt>
      <trkpt lat="45.19067" lon="0.95816">
        <ele>246.86</ele>
        <time>2017-12-07T12:58:06.980Z</time>
      </trkpt>
      <trkpt lat="45.19072" lon="0.95818">
        <ele>245.91</ele>
        <time>2017-12-07T12:58:11.107Z</time>
      </trkpt>
      <trkpt lat="45.19076" lon="0.95821">
        <ele>244.9</ele>
        <time>2017-12-07T12:58:16.110Z</time>
      </trkpt>
      <trkpt lat="45.19082" lon="0.95824">
        <ele>244.49</ele>
        <time>2017-12-07T12:58:20.111Z</time>
      </trkpt>
      <trkpt lat="45.19086" lon="0.95825">
        <ele>244.03</ele>
        <time>2017-12-07T12:58:24.112Z</time>
      </trkpt>
      <trkpt lat="45.1909" lon="0.95827">
        <ele>243.56</ele>
        <time>2017-12-07T12:58:28.112Z</time>
      </trkpt>
      <trkpt lat="45.19095" lon="0.95829">
        <ele>242.99</ele>
        <time>2017-12-07T12:58:33.114Z</time>
      </trkpt>
      <trkpt lat="45.19101" lon="0.95831">
        <ele>242.18</ele>
        <time>2017-12-07T12:58:38.116Z</time>
      </trkpt>
      <trkpt lat="45.19106" lon="0.95832">
        <ele>242.02</ele>
        <time>2017-12-07T12:58:42.117Z</time>
      </trkpt>
      <trkpt lat="45.19111" lon="0.95834">
        <ele>241.94</ele>
        <time>2017-12-07T12:58:46.118Z</time>
      </trkpt>
      <trkpt lat="45.19116" lon="0.95836">
        <ele>241.72</ele>
        <time>2017-12-07T12:58:49.120Z</time>
      </trkpt>
      <trkpt lat="45.19121" lon="0.95837">
        <ele>241.29</ele>
        <time>2017-12-07T12:58:53.121Z</time>
      </trkpt>
      <trkpt lat="45.19125" lon="0.9584">
        <ele>240.71</ele>
        <time>2017-12-07T12:58:59.126Z</time>
      </trkpt>
      <trkpt lat="45.19129" lon="0.95845">
        <ele>240.55</ele>
        <time>2017-12-07T12:59:03.127Z</time>
      </trkpt>
      <trkpt lat="45.19133" lon="0.95848">
        <ele>240.53</ele>
        <time>2017-12-07T12:59:06.131Z</time>
      </trkpt>
      <trkpt lat="45.19137" lon="0.95852">
        <ele>240.78</ele>
        <time>2017-12-07T12:59:10.132Z</time>
      </trkpt>
      <trkpt lat="45.19141" lon="0.95857">
        <ele>241.12</ele>
        <time>2017-12-07T12:59:15.173Z</time>
      </trkpt>
      <trkpt lat="45.19144" lon="0.95862">
        <ele>240.99</ele>
        <time>2017-12-07T12:59:20.168Z</time>
      </trkpt>
      <trkpt lat="45.19146" lon="0.95869">
        <ele>240.91</ele>
        <time>2017-12-07T12:59:26.180Z</time>
      </trkpt>
      <trkpt lat="45.19148" lon="0.95875">
        <ele>240.78</ele>
        <time>2017-12-07T12:59:30.179Z</time>
      </trkpt>
      <trkpt lat="45.19151" lon="0.95881">
        <ele>240.4</ele>
        <time>2017-12-07T12:59:34.178Z</time>
      </trkpt>
      <trkpt lat="45.19153" lon="0.95888">
        <ele>240.19</ele>
        <time>2017-12-07T12:59:39.190Z</time>
      </trkpt>
      <trkpt lat="45.19156" lon="0.95894">
        <ele>239.94</ele>
        <time>2017-12-07T12:59:44.201Z</time>
      </trkpt>
      <trkpt lat="45.19159" lon="0.95898">
        <ele>239.68</ele>
        <time>2017-12-07T12:59:48.200Z</time>
      </trkpt>
      <trkpt lat="45.19162" lon="0.95904">
        <ele>239.35</ele>
        <time>2017-12-07T12:59:52.199Z</time>
      </trkpt>
      <trkpt lat="45.19165" lon="0.95908">
        <ele>239.3</ele>
        <time>2017-12-07T12:59:56.197Z</time>
      </trkpt>
      <trkpt lat="45.19169" lon="0.95913">
        <ele>239.13</ele>
        <time>2017-12-07T13:00:01.208Z</time>
      </trkpt>
      <trkpt lat="45.19172" lon="0.95918">
        <ele>239.02</ele>
        <time>2017-12-07T13:00:05.209Z</time>
      </trkpt>
      <trkpt lat="45.19177" lon="0.95922">
        <ele>238.99</ele>
        <time>2017-12-07T13:00:10.199Z</time>
      </trkpt>
      <trkpt lat="45.19182" lon="0.95924">
        <ele>239.03</ele>
        <time>2017-12-07T13:00:13.201Z</time>
      </trkpt>
      <trkpt lat="45.19186" lon="0.95926">
        <ele>239</ele>
        <time>2017-12-07T13:00:16.207Z</time>
      </trkpt>
      <trkpt lat="45.19191" lon="0.95929">
        <ele>239.03</ele>
        <time>2017-12-07T13:00:20.198Z</time>
      </trkpt>
      <trkpt lat="45.19195" lon="0.95932">
        <ele>239.4</ele>
        <time>2017-12-07T13:00:24.209Z</time>
      </trkpt>
      <trkpt lat="45.19199" lon="0.95935">
        <ele>239.74</ele>
        <time>2017-12-07T13:00:28.209Z</time>
      </trkpt>
      <trkpt lat="45.19203" lon="0.95939">
        <ele>239.89</ele>
        <time>2017-12-07T13:00:32.223Z</time>
      </trkpt>
      <trkpt lat="45.19206" lon="0.95946">
        <ele>240.44</ele>
        <time>2017-12-07T13:00:37.219Z</time>
      </trkpt>
      <trkpt lat="45.19209" lon="0.95951">
        <ele>240.54</ele>
        <time>2017-12-07T13:00:41.232Z</time>
      </trkpt>
      <trkpt lat="45.19214" lon="0.95954">
        <ele>241.02</ele>
        <time>2017-12-07T13:00:47.221Z</time>
      </trkpt>
      <trkpt lat="45.19217" lon="0.9596">
        <ele>241.48</ele>
        <time>2017-12-07T13:00:53.251Z</time>
      </trkpt>
      <trkpt lat="45.19221" lon="0.95966">
        <ele>241.88</ele>
        <time>2017-12-07T13:00:57.244Z</time>
      </trkpt>
      <trkpt lat="45.19225" lon="0.9597">
        <ele>242.02</ele>
        <time>2017-12-07T13:01:01.234Z</time>
      </trkpt>
      <trkpt lat="45.19228" lon="0.95974">
        <ele>242.67</ele>
        <time>2017-12-07T13:01:06.265Z</time>
      </trkpt>
      <trkpt lat="45.19233" lon="0.95978">
        <ele>243.08</ele>
        <time>2017-12-07T13:01:10.275Z</time>
      </trkpt>
      <trkpt lat="45.19238" lon="0.95981">
        <ele>243.72</ele>
        <time>2017-12-07T13:01:14.281Z</time>
      </trkpt>
      <trkpt lat="45.19243" lon="0.95986">
        <ele>244.21</ele>
        <time>2017-12-07T13:01:19.282Z</time>
      </trkpt>
      <trkpt lat="45.19247" lon="0.9599">
        <ele>244.5</ele>
        <time>2017-12-07T13:01:22.293Z</time>
      </trkpt>
      <trkpt lat="45.19252" lon="0.95993">
        <ele>244.53</ele>
        <time>2017-12-07T13:01:26.267Z</time>
      </trkpt>
      <trkpt lat="45.19253" lon="0.96001">
        <ele>244.39</ele>
        <time>2017-12-07T13:01:34.281Z</time>
      </trkpt>
      <trkpt lat="45.19256" lon="0.96005">
        <ele>244.44</ele>
        <time>2017-12-07T13:01:37.285Z</time>
      </trkpt>
      <trkpt lat="45.1926" lon="0.96011">
        <ele>244.93</ele>
        <time>2017-12-07T13:01:41.291Z</time>
      </trkpt>
      <trkpt lat="45.19265" lon="0.96016">
        <ele>245.12</ele>
        <time>2017-12-07T13:01:45.294Z</time>
      </trkpt>
      <trkpt lat="45.19268" lon="0.96022">
        <ele>245.37</ele>
        <time>2017-12-07T13:01:49.299Z</time>
      </trkpt>
      <trkpt lat="45.1927" lon="0.96028">
        <ele>245.56</ele>
        <time>2017-12-07T13:01:52.306Z</time>
      </trkpt>
      <trkpt lat="45.19273" lon="0.96035">
        <ele>245.9</ele>
        <time>2017-12-07T13:01:56.312Z</time>
      </trkpt>
      <trkpt lat="45.19277" lon="0.9604">
        <ele>246.28</ele>
        <time>2017-12-07T13:02:00.317Z</time>
      </trkpt>
      <trkpt lat="45.19279" lon="0.96046">
        <ele>246.59</ele>
        <time>2017-12-07T13:02:04.323Z</time>
      </trkpt>
      <trkpt lat="45.19282" lon="0.96052">
        <ele>246.89</ele>
        <time>2017-12-07T13:02:09.333Z</time>
      </trkpt>
      <trkpt lat="45.19286" lon="0.96058">
        <ele>247.07</ele>
        <time>2017-12-07T13:02:14.342Z</time>
      </trkpt>
      <trkpt lat="45.1929" lon="0.96063">
        <ele>247.28</ele>
        <time>2017-12-07T13:02:18.347Z</time>
      </trkpt>
      <trkpt lat="45.19295" lon="0.96068">
        <ele>247.55</ele>
        <time>2017-12-07T13:02:22.353Z</time>
      </trkpt>
      <trkpt lat="45.19299" lon="0.96072">
        <ele>247.86</ele>
        <time>2017-12-07T13:02:27.381Z</time>
      </trkpt>
      <trkpt lat="45.19303" lon="0.96077">
        <ele>248.28</ele>
        <time>2017-12-07T13:02:31.389Z</time>
      </trkpt>
      <trkpt lat="45.19307" lon="0.96082">
        <ele>248.4</ele>
        <time>2017-12-07T13:02:35.402Z</time>
      </trkpt>
      <trkpt lat="45.1931" lon="0.96086">
        <ele>248.52</ele>
        <time>2017-12-07T13:02:39.412Z</time>
      </trkpt>
      <trkpt lat="45.19315" lon="0.96089">
        <ele>248.5</ele>
        <time>2017-12-07T13:02:44.421Z</time>
      </trkpt>
      <trkpt lat="45.19318" lon="0.96095">
        <ele>248.66</ele>
        <time>2017-12-07T13:02:48.420Z</time>
      </trkpt>
      <trkpt lat="45.19321" lon="0.96101">
        <ele>248.75</ele>
        <time>2017-12-07T13:02:53.427Z</time>
      </trkpt>
      <trkpt lat="45.19326" lon="0.96105">
        <ele>248.97</ele>
        <time>2017-12-07T13:02:58.405Z</time>
      </trkpt>
      <trkpt lat="45.19331" lon="0.96107">
        <ele>249.03</ele>
        <time>2017-12-07T13:03:02.409Z</time>
      </trkpt>
      <trkpt lat="45.19335" lon="0.96104">
        <ele>249.16</ele>
        <time>2017-12-07T13:03:05.413Z</time>
      </trkpt>
      <trkpt lat="45.19338" lon="0.96098">
        <ele>249.28</ele>
        <time>2017-12-07T13:03:09.420Z</time>
      </trkpt>
      <trkpt lat="45.19339" lon="0.96092">
        <ele>248.96</ele>
        <time>2017-12-07T13:03:15.431Z</time>
      </trkpt>
      <trkpt lat="45.19339" lon="0.96083">
        <ele>248.85</ele>
        <time>2017-12-07T13:03:19.439Z</time>
      </trkpt>
      <trkpt lat="45.19338" lon="0.96075">
        <ele>248.93</ele>
        <time>2017-12-07T13:03:23.472Z</time>
      </trkpt>
      <trkpt lat="45.19337" lon="0.96069">
        <ele>249.12</ele>
        <time>2017-12-07T13:03:27.480Z</time>
      </trkpt>
      <trkpt lat="45.19337" lon="0.96062">
        <ele>249.5</ele>
        <time>2017-12-07T13:03:32.486Z</time>
      </trkpt>
      <trkpt lat="45.19338" lon="0.96055">
        <ele>249.82</ele>
        <time>2017-12-07T13:03:36.469Z</time>
      </trkpt>
      <trkpt lat="45.19337" lon="0.96047">
        <ele>250.29</ele>
        <time>2017-12-07T13:03:40.476Z</time>
      </trkpt>
      <trkpt lat="45.19336" lon="0.96041">
        <ele>250.9</ele>
        <time>2017-12-07T13:03:45.485Z</time>
      </trkpt>
      <trkpt lat="45.19337" lon="0.96033">
        <ele>251.31</ele>
        <time>2017-12-07T13:03:49.496Z</time>
      </trkpt>
      <trkpt lat="45.19338" lon="0.96027">
        <ele>251.67</ele>
        <time>2017-12-07T13:03:55.530Z</time>
      </trkpt>
      <trkpt lat="45.19339" lon="0.9602">
        <ele>252.13</ele>
        <time>2017-12-07T13:04:00.515Z</time>
      </trkpt>
      <trkpt lat="45.1934" lon="0.96014">
        <ele>252.5</ele>
        <time>2017-12-07T13:04:04.532Z</time>
      </trkpt>
      <trkpt lat="45.1934" lon="0.96006">
        <ele>252.92</ele>
        <time>2017-12-07T13:04:08.532Z</time>
      </trkpt>
      <trkpt lat="45.1934" lon="0.95999">
        <ele>253.51</ele>
        <time>2017-12-07T13:04:13.531Z</time>
      </trkpt>
      <trkpt lat="45.19338" lon="0.95992">
        <ele>253.85</ele>
        <time>2017-12-07T13:04:17.540Z</time>
      </trkpt>
      <trkpt lat="45.19337" lon="0.95985">
        <ele>254.3</ele>
        <time>2017-12-07T13:04:21.550Z</time>
      </trkpt>
      <trkpt lat="45.19337" lon="0.95977">
        <ele>254.96</ele>
        <time>2017-12-07T13:04:25.559Z</time>
      </trkpt>
      <trkpt lat="45.19338" lon="0.9597">
        <ele>255.57</ele>
        <time>2017-12-07T13:04:30.563Z</time>
      </trkpt>
      <trkpt lat="45.19338" lon="0.95963">
        <ele>256.23</ele>
        <time>2017-12-07T13:04:35.572Z</time>
      </trkpt>
      <trkpt lat="45.19338" lon="0.95955">
        <ele>256.65</ele>
        <time>2017-12-07T13:04:40.581Z</time>
      </trkpt>
      <trkpt lat="45.19338" lon="0.95948">
        <ele>257.45</ele>
        <time>2017-12-07T13:04:46.565Z</time>
      </trkpt>
      <trkpt lat="45.19339" lon="0.95942">
        <ele>258.15</ele>
        <time>2017-12-07T13:04:51.604Z</time>
      </trkpt>
      <trkpt lat="45.19339" lon="0.95934">
        <ele>258.86</ele>
        <time>2017-12-07T13:04:57.613Z</time>
      </trkpt>
      <trkpt lat="45.19341" lon="0.95927">
        <ele>259.33</ele>
        <time>2017-12-07T13:05:02.619Z</time>
      </trkpt>
      <trkpt lat="45.19342" lon="0.9592">
        <ele>259.67</ele>
        <time>2017-12-07T13:05:07.600Z</time>
      </trkpt>
      <trkpt lat="45.19345" lon="0.95913">
        <ele>260.14</ele>
        <time>2017-12-07T13:05:12.611Z</time>
      </trkpt>
      <trkpt lat="45.19347" lon="0.95907">
        <ele>260.41</ele>
        <time>2017-12-07T13:05:17.620Z</time>
      </trkpt>
      <trkpt lat="45.19349" lon="0.95901">
        <ele>260.53</ele>
        <time>2017-12-07T13:05:22.661Z</time>
      </trkpt>
      <trkpt lat="45.19351" lon="0.95894">
        <ele>261.25</ele>
        <time>2017-12-07T13:05:28.670Z</time>
      </trkpt>
      <trkpt lat="45.19353" lon="0.95887">
        <ele>261.57</ele>
        <time>2017-12-07T13:05:32.674Z</time>
      </trkpt>
      <trkpt lat="45.19355" lon="0.9588">
        <ele>261.63</ele>
        <time>2017-12-07T13:05:36.672Z</time>
      </trkpt>
      <trkpt lat="45.19358" lon="0.95875">
        <ele>261.64</ele>
        <time>2017-12-07T13:05:42.686Z</time>
      </trkpt>
      <trkpt lat="45.19361" lon="0.95869">
        <ele>261.94</ele>
        <time>2017-12-07T13:05:46.668Z</time>
      </trkpt>
      <trkpt lat="45.19365" lon="0.95864">
        <ele>262.42</ele>
        <time>2017-12-07T13:05:51.679Z</time>
      </trkpt>
      <trkpt lat="45.19367" lon="0.95858">
        <ele>262.99</ele>
        <time>2017-12-07T13:05:56.687Z</time>
      </trkpt>
      <trkpt lat="45.1937" lon="0.95854">
        <ele>263.42</ele>
        <time>2017-12-07T13:06:00.691Z</time>
      </trkpt>
      <trkpt lat="45.19375" lon="0.95849">
        <ele>263.87</ele>
        <time>2017-12-07T13:06:07.697Z</time>
      </trkpt>
      <trkpt lat="45.19375" lon="0.95841">
        <ele>264.36</ele>
        <time>2017-12-07T13:06:13.709Z</time>
      </trkpt>
      <trkpt lat="45.19376" lon="0.95834">
        <ele>264.86</ele>
        <time>2017-12-07T13:06:18.741Z</time>
      </trkpt>
      <trkpt lat="45.19379" lon="0.95828">
        <ele>265.67</ele>
        <time>2017-12-07T13:06:22.753Z</time>
      </trkpt>
      <trkpt lat="45.1938" lon="0.95821">
        <ele>266.23</ele>
        <time>2017-12-07T13:06:25.753Z</time>
      </trkpt>
      <trkpt lat="45.19381" lon="0.95814">
        <ele>266.8</ele>
        <time>2017-12-07T13:06:31.760Z</time>
      </trkpt>
      <trkpt lat="45.19379" lon="0.95807">
        <ele>267.36</ele>
        <time>2017-12-07T13:06:36.772Z</time>
      </trkpt>
      <trkpt lat="45.19378" lon="0.958">
        <ele>267.72</ele>
        <time>2017-12-07T13:06:40.780Z</time>
      </trkpt>
      <trkpt lat="45.19376" lon="0.95795">
        <ele>267.86</ele>
        <time>2017-12-07T13:06:45.791Z</time>
      </trkpt>
      <trkpt lat="45.19374" lon="0.95788">
        <ele>267.77</ele>
        <time>2017-12-07T13:06:50.797Z</time>
      </trkpt>
      <trkpt lat="45.19372" lon="0.95782">
        <ele>267.8</ele>
        <time>2017-12-07T13:06:56.810Z</time>
      </trkpt>
      <trkpt lat="45.19371" lon="0.95775">
        <ele>267.49</ele>
        <time>2017-12-07T13:07:02.789Z</time>
      </trkpt>
      <trkpt lat="45.1937" lon="0.95769">
        <ele>267.27</ele>
        <time>2017-12-07T13:07:08.801Z</time>
      </trkpt>
      <trkpt lat="45.1937" lon="0.95762">
        <ele>267.41</ele>
        <time>2017-12-07T13:07:13.813Z</time>
      </trkpt>
      <trkpt lat="45.19368" lon="0.95755">
        <ele>267.83</ele>
        <time>2017-12-07T13:07:17.821Z</time>
      </trkpt>
      <trkpt lat="45.19368" lon="0.95749">
        <ele>268.66</ele>
        <time>2017-12-07T13:07:22.829Z</time>
      </trkpt>
      <trkpt lat="45.19367" lon="0.95742">
        <ele>269.97</ele>
        <time>2017-12-07T13:07:27.840Z</time>
      </trkpt>
      <trkpt lat="45.19366" lon="0.95735">
        <ele>271.37</ele>
        <time>2017-12-07T13:07:32.850Z</time>
      </trkpt>
      <trkpt lat="45.19362" lon="0.95729">
        <ele>272.01</ele>
        <time>2017-12-07T13:07:35.855Z</time>
      </trkpt>
      <trkpt lat="45.19359" lon="0.95725">
        <ele>272.75</ele>
        <time>2017-12-07T13:07:39.865Z</time>
      </trkpt>
      <trkpt lat="45.19355" lon="0.9572">
        <ele>273.43</ele>
        <time>2017-12-07T13:07:43.895Z</time>
      </trkpt>
      <trkpt lat="45.19351" lon="0.95716">
        <ele>274.53</ele>
        <time>2017-12-07T13:07:48.912Z</time>
      </trkpt>
      <trkpt lat="45.19349" lon="0.9571">
        <ele>275.22</ele>
        <time>2017-12-07T13:07:53.911Z</time>
      </trkpt>
      <trkpt lat="45.19348" lon="0.95704">
        <ele>275.81</ele>
        <time>2017-12-07T13:07:57.952Z</time>
      </trkpt>
      <trkpt lat="45.19348" lon="0.95697">
        <ele>276.14</ele>
        <time>2017-12-07T13:08:00.933Z</time>
      </trkpt>
      <trkpt lat="45.19349" lon="0.9569">
        <ele>276.59</ele>
        <time>2017-12-07T13:08:05.941Z</time>
      </trkpt>
      <trkpt lat="45.1935" lon="0.95683">
        <ele>277.19</ele>
        <time>2017-12-07T13:08:09.942Z</time>
      </trkpt>
      <trkpt lat="45.19351" lon="0.95676">
        <ele>277.8</ele>
        <time>2017-12-07T13:08:13.943Z</time>
      </trkpt>
      <trkpt lat="45.19352" lon="0.95669">
        <ele>278.53</ele>
        <time>2017-12-07T13:08:18.941Z</time>
      </trkpt>
      <trkpt lat="45.19354" lon="0.95662">
        <ele>279</ele>
        <time>2017-12-07T13:08:23.946Z</time>
      </trkpt>
      <trkpt lat="45.19355" lon="0.95655">
        <ele>279.22</ele>
        <time>2017-12-07T13:08:27.950Z</time>
      </trkpt>
      <trkpt lat="45.19358" lon="0.9565">
        <ele>279.55</ele>
        <time>2017-12-07T13:08:32.961Z</time>
      </trkpt>
      <trkpt lat="45.19361" lon="0.95644">
        <ele>279.78</ele>
        <time>2017-12-07T13:08:36.962Z</time>
      </trkpt>
      <trkpt lat="45.19364" lon="0.95638">
        <ele>279.92</ele>
        <time>2017-12-07T13:08:40.974Z</time>
      </trkpt>
      <trkpt lat="45.19366" lon="0.95632">
        <ele>280.09</ele>
        <time>2017-12-07T13:08:45.987Z</time>
      </trkpt>
      <trkpt lat="45.19368" lon="0.95624">
        <ele>280.09</ele>
        <time>2017-12-07T13:08:51.978Z</time>
      </trkpt>
      <trkpt lat="45.19371" lon="0.95617">
        <ele>280.04</ele>
        <time>2017-12-07T13:08:55.994Z</time>
      </trkpt>
      <trkpt lat="45.19372" lon="0.9561">
        <ele>279.99</ele>
        <time>2017-12-07T13:08:59.994Z</time>
      </trkpt>
      <trkpt lat="45.19374" lon="0.95604">
        <ele>279.84</ele>
        <time>2017-12-07T13:09:04.994Z</time>
      </trkpt>
      <trkpt lat="45.19376" lon="0.95598">
        <ele>279.62</ele>
        <time>2017-12-07T13:09:10.030Z</time>
      </trkpt>
      <trkpt lat="45.19379" lon="0.95592">
        <ele>279.52</ele>
        <time>2017-12-07T13:09:15.030Z</time>
      </trkpt>
      <trkpt lat="45.19381" lon="0.95586">
        <ele>279.42</ele>
        <time>2017-12-07T13:09:18.030Z</time>
      </trkpt>
      <trkpt lat="45.19383" lon="0.9558">
        <ele>279.43</ele>
        <time>2017-12-07T13:09:23.040Z</time>
      </trkpt>
      <trkpt lat="45.19384" lon="0.95573">
        <ele>279.5</ele>
        <time>2017-12-07T13:09:28.090Z</time>
      </trkpt>
      <trkpt lat="45.19386" lon="0.95567">
        <ele>279.91</ele>
        <time>2017-12-07T13:09:32.010Z</time>
      </trkpt>
      <trkpt lat="45.19388" lon="0.9556">
        <ele>279.93</ele>
        <time>2017-12-07T13:09:36.020Z</time>
      </trkpt>
      <trkpt lat="45.19391" lon="0.95553">
        <ele>279.97</ele>
        <time>2017-12-07T13:09:40.020Z</time>
      </trkpt>
      <trkpt lat="45.19391" lon="0.95546">
        <ele>279.95</ele>
        <time>2017-12-07T13:09:44.120Z</time>
      </trkpt>
      <trkpt lat="45.19393" lon="0.95539">
        <ele>280.04</ele>
        <time>2017-12-07T13:09:49.309Z</time>
      </trkpt>
      <trkpt lat="45.19395" lon="0.95533">
        <ele>280.01</ele>
        <time>2017-12-07T13:09:55.311Z</time>
      </trkpt>
      <trkpt lat="45.19397" lon="0.95526">
        <ele>279.96</ele>
        <time>2017-12-07T13:10:00.307Z</time>
      </trkpt>
      <trkpt lat="45.194" lon="0.9552">
        <ele>279.84</ele>
        <time>2017-12-07T13:10:06.306Z</time>
      </trkpt>
      <trkpt lat="45.19402" lon="0.95513">
        <ele>279.45</ele>
        <time>2017-12-07T13:10:11.321Z</time>
      </trkpt>
      <trkpt lat="45.19404" lon="0.95507">
        <ele>279.36</ele>
        <time>2017-12-07T13:10:15.318Z</time>
      </trkpt>
      <trkpt lat="45.19406" lon="0.955">
        <ele>279.41</ele>
        <time>2017-12-07T13:10:18.316Z</time>
      </trkpt>
      <trkpt lat="45.19409" lon="0.95494">
        <ele>279.74</ele>
        <time>2017-12-07T13:10:23.331Z</time>
      </trkpt>
      <trkpt lat="45.19411" lon="0.95488">
        <ele>279.99</ele>
        <time>2017-12-07T13:10:27.319Z</time>
      </trkpt>
      <trkpt lat="45.19413" lon="0.95481">
        <ele>280.35</ele>
        <time>2017-12-07T13:10:32.329Z</time>
      </trkpt>
      <trkpt lat="45.19415" lon="0.95475">
        <ele>280.63</ele>
        <time>2017-12-07T13:10:36.328Z</time>
      </trkpt>
      <trkpt lat="45.19417" lon="0.95468">
        <ele>280.86</ele>
        <time>2017-12-07T13:10:41.328Z</time>
      </trkpt>
      <trkpt lat="45.19416" lon="0.95461">
        <ele>280.93</ele>
        <time>2017-12-07T13:10:44.341Z</time>
      </trkpt>
      <trkpt lat="45.19416" lon="0.95454">
        <ele>281.11</ele>
        <time>2017-12-07T13:10:49.339Z</time>
      </trkpt>
      <trkpt lat="45.19416" lon="0.95447">
        <ele>281.6</ele>
        <time>2017-12-07T13:10:53.340Z</time>
      </trkpt>
      <trkpt lat="45.19416" lon="0.9544">
        <ele>281.65</ele>
        <time>2017-12-07T13:10:57.340Z</time>
      </trkpt>
      <trkpt lat="45.19416" lon="0.95432">
        <ele>281.65</ele>
        <time>2017-12-07T13:11:02.348Z</time>
      </trkpt>
      <trkpt lat="45.19419" lon="0.95426">
        <ele>281.55</ele>
        <time>2017-12-07T13:11:06.349Z</time>
      </trkpt>
      <trkpt lat="45.19421" lon="0.95418">
        <ele>281.8</ele>
        <time>2017-12-07T13:11:10.350Z</time>
      </trkpt>
      <trkpt lat="45.19421" lon="0.95409">
        <ele>282.52</ele>
        <time>2017-12-07T13:11:15.337Z</time>
      </trkpt>
      <trkpt lat="45.19422" lon="0.95402">
        <ele>282.73</ele>
        <time>2017-12-07T13:11:19.348Z</time>
      </trkpt>
      <trkpt lat="45.19424" lon="0.95395">
        <ele>282.8</ele>
        <time>2017-12-07T13:11:24.359Z</time>
      </trkpt>
      <trkpt lat="45.19426" lon="0.95388">
        <ele>282.79</ele>
        <time>2017-12-07T13:11:29.363Z</time>
      </trkpt>
      <trkpt lat="45.19427" lon="0.95382">
        <ele>282.96</ele>
        <time>2017-12-07T13:11:32.367Z</time>
      </trkpt>
      <trkpt lat="45.19429" lon="0.95375">
        <ele>282.95</ele>
        <time>2017-12-07T13:11:36.354Z</time>
      </trkpt>
      <trkpt lat="45.19431" lon="0.9537">
        <ele>283.06</ele>
        <time>2017-12-07T13:11:40.379Z</time>
      </trkpt>
      <trkpt lat="45.19434" lon="0.95365">
        <ele>283.21</ele>
        <time>2017-12-07T13:11:44.388Z</time>
      </trkpt>
      <trkpt lat="45.19437" lon="0.95359">
        <ele>283.6</ele>
        <time>2017-12-07T13:11:48.390Z</time>
      </trkpt>
      <trkpt lat="45.19438" lon="0.95353">
        <ele>284.25</ele>
        <time>2017-12-07T13:11:52.379Z</time>
      </trkpt>
      <trkpt lat="45.1944" lon="0.95347">
        <ele>284.7</ele>
        <time>2017-12-07T13:11:55.397Z</time>
      </trkpt>
      <trkpt lat="45.19439" lon="0.9534">
        <ele>285.2</ele>
        <time>2017-12-07T13:12:00.413Z</time>
      </trkpt>
      <trkpt lat="45.19441" lon="0.95332">
        <ele>285.52</ele>
        <time>2017-12-07T13:12:05.420Z</time>
      </trkpt>
      <trkpt lat="45.19443" lon="0.95325">
        <ele>285.67</ele>
        <time>2017-12-07T13:12:09.433Z</time>
      </trkpt>
      <trkpt lat="45.19444" lon="0.95319">
        <ele>285.69</ele>
        <time>2017-12-07T13:12:15.438Z</time>
      </trkpt>
      <trkpt lat="45.19445" lon="0.95311">
        <ele>285.56</ele>
        <time>2017-12-07T13:12:20.450Z</time>
      </trkpt>
      <trkpt lat="45.19447" lon="0.95304">
        <ele>285.47</ele>
        <time>2017-12-07T13:12:24.459Z</time>
      </trkpt>
      <trkpt lat="45.19448" lon="0.95297">
        <ele>285.6</ele>
        <time>2017-12-07T13:12:28.464Z</time>
      </trkpt>
      <trkpt lat="45.19449" lon="0.9529">
        <ele>285.55</ele>
        <time>2017-12-07T13:12:33.469Z</time>
      </trkpt>
      <trkpt lat="45.1945" lon="0.95283">
        <ele>285.57</ele>
        <time>2017-12-07T13:12:37.473Z</time>
      </trkpt>
      <trkpt lat="45.19452" lon="0.95277">
        <ele>285.64</ele>
        <time>2017-12-07T13:12:41.477Z</time>
      </trkpt>
      <trkpt lat="45.19453" lon="0.9527">
        <ele>286.01</ele>
        <time>2017-12-07T13:12:46.472Z</time>
      </trkpt>
      <trkpt lat="45.19453" lon="0.95263">
        <ele>286.68</ele>
        <time>2017-12-07T13:12:52.504Z</time>
      </trkpt>
      <trkpt lat="45.19451" lon="0.95257">
        <ele>287.09</ele>
        <time>2017-12-07T13:12:56.513Z</time>
      </trkpt>
      <trkpt lat="45.19447" lon="0.95252">
        <ele>287.31</ele>
        <time>2017-12-07T13:13:01.520Z</time>
      </trkpt>
      <trkpt lat="45.19443" lon="0.9525">
        <ele>287.45</ele>
        <time>2017-12-07T13:13:06.527Z</time>
      </trkpt>
      <trkpt lat="45.19438" lon="0.95246">
        <ele>287.62</ele>
        <time>2017-12-07T13:13:12.512Z</time>
      </trkpt>
      <trkpt lat="45.19434" lon="0.95244">
        <ele>287.86</ele>
        <time>2017-12-07T13:13:16.520Z</time>
      </trkpt>
      <trkpt lat="45.1943" lon="0.9524">
        <ele>287.98</ele>
        <time>2017-12-07T13:13:19.524Z</time>
      </trkpt>
      <trkpt lat="45.19426" lon="0.95235">
        <ele>287.88</ele>
        <time>2017-12-07T13:13:23.559Z</time>
      </trkpt>
      <trkpt lat="45.19422" lon="0.9523">
        <ele>287.61</ele>
        <time>2017-12-07T13:13:29.567Z</time>
      </trkpt>
      <trkpt lat="45.19417" lon="0.95227">
        <ele>287.38</ele>
        <time>2017-12-07T13:13:33.573Z</time>
      </trkpt>
      <trkpt lat="45.19413" lon="0.95224">
        <ele>287.59</ele>
        <time>2017-12-07T13:13:37.574Z</time>
      </trkpt>
      <trkpt lat="45.19407" lon="0.9522">
        <ele>287.65</ele>
        <time>2017-12-07T13:13:41.572Z</time>
      </trkpt>
      <trkpt lat="45.19404" lon="0.95214">
        <ele>288.14</ele>
        <time>2017-12-07T13:13:46.579Z</time>
      </trkpt>
      <trkpt lat="45.19399" lon="0.95209">
        <ele>288.82</ele>
        <time>2017-12-07T13:13:51.564Z</time>
      </trkpt>
      <trkpt lat="45.19394" lon="0.95203">
        <ele>289.21</ele>
        <time>2017-12-07T13:13:54.578Z</time>
      </trkpt>
      <trkpt lat="45.1939" lon="0.95199">
        <ele>289.61</ele>
        <time>2017-12-07T13:13:59.587Z</time>
      </trkpt>
      <trkpt lat="45.19386" lon="0.95193">
        <ele>289.96</ele>
        <time>2017-12-07T13:14:03.588Z</time>
      </trkpt>
      <trkpt lat="45.19382" lon="0.9519">
        <ele>289.95</ele>
        <time>2017-12-07T13:14:07.600Z</time>
      </trkpt>
      <trkpt lat="45.19378" lon="0.95186">
        <ele>289.85</ele>
        <time>2017-12-07T13:14:11.607Z</time>
      </trkpt>
      <trkpt lat="45.19374" lon="0.95182">
        <ele>289.79</ele>
        <time>2017-12-07T13:14:15.610Z</time>
      </trkpt>
      <trkpt lat="45.1937" lon="0.95178">
        <ele>289.88</ele>
        <time>2017-12-07T13:14:18.617Z</time>
      </trkpt>
      <trkpt lat="45.19365" lon="0.95173">
        <ele>289.91</ele>
        <time>2017-12-07T13:14:23.624Z</time>
      </trkpt>
      <trkpt lat="45.19362" lon="0.95166">
        <ele>289.87</ele>
        <time>2017-12-07T13:14:27.632Z</time>
      </trkpt>
      <trkpt lat="45.19358" lon="0.95165">
        <ele>289.99</ele>
        <time>2017-12-07T13:14:32.643Z</time>
      </trkpt>
      <trkpt lat="45.19354" lon="0.95159">
        <ele>290.17</ele>
        <time>2017-12-07T13:14:38.625Z</time>
      </trkpt>
      <trkpt lat="45.1935" lon="0.95153">
        <ele>290.56</ele>
        <time>2017-12-07T13:14:43.633Z</time>
      </trkpt>
      <trkpt lat="45.19346" lon="0.95149">
        <ele>290.69</ele>
        <time>2017-12-07T13:14:46.636Z</time>
      </trkpt>
      <trkpt lat="45.19341" lon="0.95147">
        <ele>290.93</ele>
        <time>2017-12-07T13:14:49.670Z</time>
      </trkpt>
      <trkpt lat="45.19336" lon="0.95143">
        <ele>291.18</ele>
        <time>2017-12-07T13:14:53.679Z</time>
      </trkpt>
      <trkpt lat="45.19331" lon="0.95141">
        <ele>291.6</ele>
        <time>2017-12-07T13:14:58.684Z</time>
      </trkpt>
      <trkpt lat="45.19327" lon="0.95138">
        <ele>291.93</ele>
        <time>2017-12-07T13:15:02.693Z</time>
      </trkpt>
      <trkpt lat="45.19323" lon="0.95134">
        <ele>292.07</ele>
        <time>2017-12-07T13:15:07.700Z</time>
      </trkpt>
      <trkpt lat="45.19319" lon="0.95131">
        <ele>292.21</ele>
        <time>2017-12-07T13:15:14.709Z</time>
      </trkpt>
      <trkpt lat="45.19314" lon="0.95129">
        <ele>292.24</ele>
        <time>2017-12-07T13:15:18.718Z</time>
      </trkpt>
      <trkpt lat="45.19309" lon="0.95129">
        <ele>292.56</ele>
        <time>2017-12-07T13:15:22.720Z</time>
      </trkpt>
      <trkpt lat="45.19304" lon="0.95127">
        <ele>292.82</ele>
        <time>2017-12-07T13:15:26.729Z</time>
      </trkpt>
      <trkpt lat="45.19299" lon="0.95125">
        <ele>293.03</ele>
        <time>2017-12-07T13:15:30.732Z</time>
      </trkpt>
      <trkpt lat="45.19295" lon="0.95122">
        <ele>293.24</ele>
        <time>2017-12-07T13:15:34.736Z</time>
      </trkpt>
      <trkpt lat="45.19291" lon="0.95116">
        <ele>294.18</ele>
        <time>2017-12-07T13:15:40.749Z</time>
      </trkpt>
      <trkpt lat="45.19288" lon="0.95111">
        <ele>294.62</ele>
        <time>2017-12-07T13:15:45.761Z</time>
      </trkpt>
      <trkpt lat="45.19284" lon="0.95107">
        <ele>294.63</ele>
        <time>2017-12-07T13:15:51.765Z</time>
      </trkpt>
      <trkpt lat="45.1928" lon="0.95103">
        <ele>294.5</ele>
        <time>2017-12-07T13:15:55.767Z</time>
      </trkpt>
      <trkpt lat="45.19275" lon="0.95098">
        <ele>293.97</ele>
        <time>2017-12-07T13:15:59.777Z</time>
      </trkpt>
      <trkpt lat="45.19272" lon="0.95093">
        <ele>293.68</ele>
        <time>2017-12-07T13:16:04.040Z</time>
      </trkpt>
      <trkpt lat="45.19269" lon="0.95087">
        <ele>293.55</ele>
        <time>2017-12-07T13:16:06.080Z</time>
      </trkpt>
      <trkpt lat="45.19264" lon="0.95083">
        <ele>293.13</ele>
        <time>2017-12-07T13:16:11.200Z</time>
      </trkpt>
      <trkpt lat="45.1926" lon="0.95079">
        <ele>292.85</ele>
        <time>2017-12-07T13:16:16.270Z</time>
      </trkpt>
      <trkpt lat="45.19257" lon="0.95074">
        <ele>292.59</ele>
        <time>2017-12-07T13:16:21.350Z</time>
      </trkpt>
      <trkpt lat="45.19255" lon="0.95068">
        <ele>292.54</ele>
        <time>2017-12-07T13:16:26.300Z</time>
      </trkpt>
      <trkpt lat="45.19253" lon="0.9506">
        <ele>292.6</ele>
        <time>2017-12-07T13:16:31.320Z</time>
      </trkpt>
      <trkpt lat="45.19251" lon="0.95054">
        <ele>292.54</ele>
        <time>2017-12-07T13:16:35.400Z</time>
      </trkpt>
      <trkpt lat="45.1925" lon="0.95048">
        <ele>292.32</ele>
        <time>2017-12-07T13:16:42.490Z</time>
      </trkpt>
      <trkpt lat="45.19248" lon="0.9504">
        <ele>291.89</ele>
        <time>2017-12-07T13:16:58.510Z</time>
      </trkpt>
      <trkpt lat="45.19247" lon="0.95033">
        <ele>291.98</ele>
        <time>2017-12-07T13:17:01.530Z</time>
      </trkpt>
      <trkpt lat="45.19246" lon="0.95024">
        <ele>292</ele>
        <time>2017-12-07T13:17:04.600Z</time>
      </trkpt>
      <trkpt lat="45.19245" lon="0.95017">
        <ele>292.11</ele>
        <time>2017-12-07T13:17:07.640Z</time>
      </trkpt>
      <trkpt lat="45.19244" lon="0.95008">
        <ele>292.33</ele>
        <time>2017-12-07T13:17:09.670Z</time>
      </trkpt>
      <trkpt lat="45.19244" lon="0.95002">
        <ele>292.47</ele>
        <time>2017-12-07T13:17:13.740Z</time>
      </trkpt>
      <trkpt lat="45.19245" lon="0.94996">
        <ele>292.32</ele>
        <time>2017-12-07T13:17:18.810Z</time>
      </trkpt>
      <trkpt lat="45.19245" lon="0.94989">
        <ele>292.13</ele>
        <time>2017-12-07T13:17:22.900Z</time>
      </trkpt>
      <trkpt lat="45.19245" lon="0.94981">
        <ele>291.96</ele>
        <time>2017-12-07T13:17:28.101Z</time>
      </trkpt>
      <trkpt lat="45.19247" lon="0.94975">
        <ele>291.82</ele>
        <time>2017-12-07T13:17:33.273Z</time>
      </trkpt>
      <trkpt lat="45.19248" lon="0.94968">
        <ele>291.41</ele>
        <time>2017-12-07T13:17:38.282Z</time>
      </trkpt>
      <trkpt lat="45.19248" lon="0.94961">
        <ele>291.13</ele>
        <time>2017-12-07T13:17:41.288Z</time>
      </trkpt>
      <trkpt lat="45.19248" lon="0.94953">
        <ele>290.51</ele>
        <time>2017-12-07T13:17:46.299Z</time>
      </trkpt>
      <trkpt lat="45.19249" lon="0.94945">
        <ele>289.81</ele>
        <time>2017-12-07T13:17:51.305Z</time>
      </trkpt>
      <trkpt lat="45.19249" lon="0.94938">
        <ele>289.37</ele>
        <time>2017-12-07T13:17:56.312Z</time>
      </trkpt>
      <trkpt lat="45.19251" lon="0.94931">
        <ele>289.05</ele>
        <time>2017-12-07T13:18:02.324Z</time>
      </trkpt>
      <trkpt lat="45.19251" lon="0.94925">
        <ele>288.28</ele>
        <time>2017-12-07T13:18:08.367Z</time>
      </trkpt>
      <trkpt lat="45.19251" lon="0.94918">
        <ele>287.75</ele>
        <time>2017-12-07T13:18:13.377Z</time>
      </trkpt>
      <trkpt lat="45.19252" lon="0.94911">
        <ele>287.8</ele>
        <time>2017-12-07T13:18:18.379Z</time>
      </trkpt>
      <trkpt lat="45.19252" lon="0.94904">
        <ele>287.9</ele>
        <time>2017-12-07T13:18:21.381Z</time>
      </trkpt>
      <trkpt lat="45.19253" lon="0.94897">
        <ele>287.89</ele>
        <time>2017-12-07T13:18:25.379Z</time>
      </trkpt>
      <trkpt lat="45.19252" lon="0.94891">
        <ele>287.96</ele>
        <time>2017-12-07T13:18:28.383Z</time>
      </trkpt>
      <trkpt lat="45.19253" lon="0.94883">
        <ele>288.22</ele>
        <time>2017-12-07T13:18:32.389Z</time>
      </trkpt>
      <trkpt lat="45.19252" lon="0.94877">
        <ele>288.18</ele>
        <time>2017-12-07T13:18:36.400Z</time>
      </trkpt>
      <trkpt lat="45.19252" lon="0.94869">
        <ele>288.01</ele>
        <time>2017-12-07T13:18:43.384Z</time>
      </trkpt>
      <trkpt lat="45.19253" lon="0.94862">
        <ele>287.88</ele>
        <time>2017-12-07T13:18:47.392Z</time>
      </trkpt>
      <trkpt lat="45.19254" lon="0.94856">
        <ele>287.68</ele>
        <time>2017-12-07T13:18:51.398Z</time>
      </trkpt>
      <trkpt lat="45.19255" lon="0.9485">
        <ele>287.12</ele>
        <time>2017-12-07T13:18:58.399Z</time>
      </trkpt>
      <trkpt lat="45.19254" lon="0.94842">
        <ele>286.5</ele>
        <time>2017-12-07T13:19:02.404Z</time>
      </trkpt>
      <trkpt lat="45.19255" lon="0.94835">
        <ele>285.89</ele>
        <time>2017-12-07T13:19:08.407Z</time>
      </trkpt>
      <trkpt lat="45.19256" lon="0.94828">
        <ele>285</ele>
        <time>2017-12-07T13:19:13.408Z</time>
      </trkpt>
      <trkpt lat="45.19257" lon="0.94821">
        <ele>284.61</ele>
        <time>2017-12-07T13:19:17.409Z</time>
      </trkpt>
      <trkpt lat="45.19256" lon="0.94814">
        <ele>283.97</ele>
        <time>2017-12-07T13:19:22.414Z</time>
      </trkpt>
      <trkpt lat="45.19257" lon="0.94808">
        <ele>282.23</ele>
        <time>2017-12-07T13:19:29.419Z</time>
      </trkpt>
      <trkpt lat="45.19257" lon="0.94801">
        <ele>281.43</ele>
        <time>2017-12-07T13:19:34.421Z</time>
      </trkpt>
      <trkpt lat="45.19258" lon="0.94793">
        <ele>281.08</ele>
        <time>2017-12-07T13:19:39.423Z</time>
      </trkpt>
      <trkpt lat="45.19256" lon="0.94787">
        <ele>280.89</ele>
        <time>2017-12-07T13:19:43.425Z</time>
      </trkpt>
      <trkpt lat="45.19253" lon="0.94781">
        <ele>280.6</ele>
        <time>2017-12-07T13:19:46.426Z</time>
      </trkpt>
      <trkpt lat="45.19251" lon="0.94774">
        <ele>279.44</ele>
        <time>2017-12-07T13:19:52.435Z</time>
      </trkpt>
      <trkpt lat="45.19248" lon="0.94769">
        <ele>278.76</ele>
        <time>2017-12-07T13:19:57.436Z</time>
      </trkpt>
      <trkpt lat="45.19246" lon="0.94762">
        <ele>278.16</ele>
        <time>2017-12-07T13:20:01.440Z</time>
      </trkpt>
      <trkpt lat="45.19244" lon="0.94755">
        <ele>277.88</ele>
        <time>2017-12-07T13:20:05.442Z</time>
      </trkpt>
      <trkpt lat="45.19243" lon="0.94747">
        <ele>277.29</ele>
        <time>2017-12-07T13:20:11.444Z</time>
      </trkpt>
      <trkpt lat="45.19243" lon="0.94739">
        <ele>277.13</ele>
        <time>2017-12-07T13:20:15.446Z</time>
      </trkpt>
      <trkpt lat="45.19241" lon="0.94733">
        <ele>277.8</ele>
        <time>2017-12-07T13:20:22.452Z</time>
      </trkpt>
      <trkpt lat="45.19238" lon="0.94727">
        <ele>278.06</ele>
        <time>2017-12-07T13:20:27.457Z</time>
      </trkpt>
      <trkpt lat="45.19235" lon="0.9472">
        <ele>277.86</ele>
        <time>2017-12-07T13:20:33.459Z</time>
      </trkpt>
      <trkpt lat="45.19233" lon="0.94713">
        <ele>277.89</ele>
        <time>2017-12-07T13:20:37.846Z</time>
      </trkpt>
      <trkpt lat="45.19231" lon="0.94706">
        <ele>277.73</ele>
        <time>2017-12-07T13:20:39.847Z</time>
      </trkpt>
      <trkpt lat="45.19228" lon="0.947">
        <ele>277.23</ele>
        <time>2017-12-07T13:20:43.848Z</time>
      </trkpt>
      <trkpt lat="45.19225" lon="0.94695">
        <ele>276.31</ele>
        <time>2017-12-07T13:20:48.849Z</time>
      </trkpt>
      <trkpt lat="45.19223" lon="0.9469">
        <ele>275.77</ele>
        <time>2017-12-07T13:20:53.852Z</time>
      </trkpt>
      <trkpt lat="45.1922" lon="0.94683">
        <ele>276.07</ele>
        <time>2017-12-07T13:20:58.886Z</time>
      </trkpt>
      <trkpt lat="45.1922" lon="0.94676">
        <ele>276.31</ele>
        <time>2017-12-07T13:21:02.884Z</time>
      </trkpt>
      <trkpt lat="45.1922" lon="0.94669">
        <ele>276.34</ele>
        <time>2017-12-07T13:21:06.885Z</time>
      </trkpt>
      <trkpt lat="45.1922" lon="0.94662">
        <ele>276.03</ele>
        <time>2017-12-07T13:21:11.883Z</time>
      </trkpt>
      <trkpt lat="45.19224" lon="0.94658">
        <ele>276.75</ele>
        <time>2017-12-07T13:21:18.895Z</time>
      </trkpt>
      <trkpt lat="45.19225" lon="0.94651">
        <ele>277.1</ele>
        <time>2017-12-07T13:21:22.892Z</time>
      </trkpt>
      <trkpt lat="45.19226" lon="0.94644">
        <ele>277.23</ele>
        <time>2017-12-07T13:21:27.899Z</time>
      </trkpt>
      <trkpt lat="45.19228" lon="0.94636">
        <ele>276.51</ele>
        <time>2017-12-07T13:21:32.899Z</time>
      </trkpt>
      <trkpt lat="45.1923" lon="0.94629">
        <ele>275.63</ele>
        <time>2017-12-07T13:21:37.904Z</time>
      </trkpt>
      <trkpt lat="45.19231" lon="0.94622">
        <ele>274.95</ele>
        <time>2017-12-07T13:21:41.889Z</time>
      </trkpt>
      <trkpt lat="45.19232" lon="0.94614">
        <ele>274.26</ele>
        <time>2017-12-07T13:21:46.903Z</time>
      </trkpt>
      <trkpt lat="45.19233" lon="0.94608">
        <ele>273.69</ele>
        <time>2017-12-07T13:21:50.903Z</time>
      </trkpt>
      <trkpt lat="45.19234" lon="0.946">
        <ele>272.47</ele>
        <time>2017-12-07T13:21:58.895Z</time>
      </trkpt>
      <trkpt lat="45.19235" lon="0.94594">
        <ele>271.15</ele>
        <time>2017-12-07T13:22:04.903Z</time>
      </trkpt>
      <trkpt lat="45.19237" lon="0.94588">
        <ele>270.22</ele>
        <time>2017-12-07T13:22:09.894Z</time>
      </trkpt>
      <trkpt lat="45.19239" lon="0.94581">
        <ele>269.64</ele>
        <time>2017-12-07T13:22:14.902Z</time>
      </trkpt>
      <trkpt lat="45.19242" lon="0.94576">
        <ele>269.21</ele>
        <time>2017-12-07T13:22:20.901Z</time>
      </trkpt>
      <trkpt lat="45.19244" lon="0.94569">
        <ele>269.07</ele>
        <time>2017-12-07T13:22:24.900Z</time>
      </trkpt>
      <trkpt lat="45.19246" lon="0.94563">
        <ele>268.86</ele>
        <time>2017-12-07T13:22:29.903Z</time>
      </trkpt>
      <trkpt lat="45.1925" lon="0.94558">
        <ele>269.31</ele>
        <time>2017-12-07T13:22:38.906Z</time>
      </trkpt>
      <trkpt lat="45.19254" lon="0.94552">
        <ele>269.12</ele>
        <time>2017-12-07T13:22:43.908Z</time>
      </trkpt>
      <trkpt lat="45.19257" lon="0.94546">
        <ele>269.16</ele>
        <time>2017-12-07T13:22:47.910Z</time>
      </trkpt>
      <trkpt lat="45.19259" lon="0.9454">
        <ele>269.1</ele>
        <time>2017-12-07T13:22:50.910Z</time>
      </trkpt>
      <trkpt lat="45.19262" lon="0.94533">
        <ele>268.79</ele>
        <time>2017-12-07T13:22:55.913Z</time>
      </trkpt>
      <trkpt lat="45.19264" lon="0.94525">
        <ele>268.16</ele>
        <time>2017-12-07T13:22:59.913Z</time>
      </trkpt>
      <trkpt lat="45.19265" lon="0.94519">
        <ele>267.56</ele>
        <time>2017-12-07T13:23:02.914Z</time>
      </trkpt>
      <trkpt lat="45.19266" lon="0.94511">
        <ele>266.89</ele>
        <time>2017-12-07T13:23:06.915Z</time>
      </trkpt>
      <trkpt lat="45.19267" lon="0.94505">
        <ele>266.34</ele>
        <time>2017-12-07T13:23:10.917Z</time>
      </trkpt>
      <trkpt lat="45.19267" lon="0.94496">
        <ele>266.1</ele>
        <time>2017-12-07T13:23:15.921Z</time>
      </trkpt>
      <trkpt lat="45.19272" lon="0.94492">
        <ele>265.3</ele>
        <time>2017-12-07T13:23:23.922Z</time>
      </trkpt>
      <trkpt lat="45.19275" lon="0.94488">
        <ele>263.84</ele>
        <time>2017-12-07T13:23:30.926Z</time>
      </trkpt>
      <trkpt lat="45.19278" lon="0.94482">
        <ele>262.48</ele>
        <time>2017-12-07T13:23:36.929Z</time>
      </trkpt>
      <trkpt lat="45.19281" lon="0.94477">
        <ele>260.9</ele>
        <time>2017-12-07T13:23:42.100Z</time>
      </trkpt>
      <trkpt lat="45.19284" lon="0.94472">
        <ele>258.51</ele>
        <time>2017-12-07T13:23:48.931Z</time>
      </trkpt>
      <trkpt lat="45.19285" lon="0.94465">
        <ele>257.15</ele>
        <time>2017-12-07T13:23:52.933Z</time>
      </trkpt>
      <trkpt lat="45.19286" lon="0.94458">
        <ele>255.3</ele>
        <time>2017-12-07T13:23:57.939Z</time>
      </trkpt>
      <trkpt lat="45.1929" lon="0.94453">
        <ele>253.1</ele>
        <time>2017-12-07T13:24:03.946Z</time>
      </trkpt>
      <trkpt lat="45.19294" lon="0.94449">
        <ele>251.81</ele>
        <time>2017-12-07T13:24:09.955Z</time>
      </trkpt>
      <trkpt lat="45.19299" lon="0.94445">
        <ele>251.34</ele>
        <time>2017-12-07T13:24:19.956Z</time>
      </trkpt>
      <trkpt lat="45.19305" lon="0.94443">
        <ele>251.3</ele>
        <time>2017-12-07T13:24:22.982Z</time>
      </trkpt>
      <trkpt lat="45.1931" lon="0.94444">
        <ele>251.7</ele>
        <time>2017-12-07T13:24:29.986Z</time>
      </trkpt>
      <trkpt lat="45.19316" lon="0.94446">
        <ele>251.87</ele>
        <time>2017-12-07T13:24:33.994Z</time>
      </trkpt>
      <trkpt lat="45.19321" lon="0.94444">
        <ele>252.18</ele>
        <time>2017-12-07T13:24:44.030Z</time>
      </trkpt>
      <trkpt lat="45.19326" lon="0.94444">
        <ele>252.44</ele>
        <time>2017-12-07T13:24:48.120Z</time>
      </trkpt>
      <trkpt lat="45.19331" lon="0.94445">
        <ele>252.61</ele>
        <time>2017-12-07T13:24:53Z</time>
      </trkpt>
      <trkpt lat="45.19337" lon="0.94446">
        <ele>252.87</ele>
        <time>2017-12-07T13:24:58.160Z</time>
      </trkpt>
      <trkpt lat="45.19341" lon="0.94447">
        <ele>252.72</ele>
        <time>2017-12-07T13:25:04.080Z</time>
      </trkpt>
      <trkpt lat="45.19349" lon="0.94445">
        <ele>252.65</ele>
        <time>2017-12-07T13:25:08.050Z</time>
      </trkpt>
      <trkpt lat="45.19355" lon="0.94443">
        <ele>252.48</ele>
        <time>2017-12-07T13:25:10.100Z</time>
      </trkpt>
      <trkpt lat="45.1936" lon="0.94442">
        <ele>252.45</ele>
        <time>2017-12-07T13:25:13.120Z</time>
      </trkpt>
      <trkpt lat="45.19365" lon="0.94442">
        <ele>251.87</ele>
        <time>2017-12-07T13:25:20.500Z</time>
      </trkpt>
      <trkpt lat="45.1937" lon="0.9444">
        <ele>250.79</ele>
        <time>2017-12-07T13:25:24.590Z</time>
      </trkpt>
      <trkpt lat="45.19374" lon="0.94438">
        <ele>249.58</ele>
        <time>2017-12-07T13:25:30.690Z</time>
      </trkpt>
      <trkpt lat="45.19381" lon="0.94437">
        <ele>247.41</ele>
        <time>2017-12-07T13:25:44.890Z</time>
      </trkpt>
      <trkpt lat="45.19386" lon="0.94436">
        <ele>246.77</ele>
        <time>2017-12-07T13:25:48.102Z</time>
      </trkpt>
      <trkpt lat="45.1939" lon="0.94433">
        <ele>246.77</ele>
        <time>2017-12-07T13:25:56.114Z</time>
      </trkpt>
      <trkpt lat="45.19397" lon="0.94431">
        <ele>246.83</ele>
        <time>2017-12-07T13:25:59.113Z</time>
      </trkpt>
      <trkpt lat="45.19402" lon="0.9443">
        <ele>246.98</ele>
        <time>2017-12-07T13:26:02.950Z</time>
      </trkpt>
      <trkpt lat="45.19407" lon="0.9443">
        <ele>246.99</ele>
        <time>2017-12-07T13:26:04.980Z</time>
      </trkpt>
      <trkpt lat="45.19412" lon="0.94431">
        <ele>247.02</ele>
        <time>2017-12-07T13:26:09.104Z</time>
      </trkpt>
      <trkpt lat="45.19418" lon="0.94434">
        <ele>246.82</ele>
        <time>2017-12-07T13:26:11.107Z</time>
      </trkpt>
      <trkpt lat="45.19422" lon="0.94435">
        <ele>246.63</ele>
        <time>2017-12-07T13:26:13.108Z</time>
      </trkpt>
      <trkpt lat="45.19428" lon="0.94436">
        <ele>246.21</ele>
        <time>2017-12-07T13:26:17.143Z</time>
      </trkpt>
      <trkpt lat="45.19432" lon="0.94437">
        <ele>245.53</ele>
        <time>2017-12-07T13:26:25.155Z</time>
      </trkpt>
      <trkpt lat="45.19437" lon="0.94439">
        <ele>245.17</ele>
        <time>2017-12-07T13:26:29.161Z</time>
      </trkpt>
      <trkpt lat="45.19441" lon="0.94442">
        <ele>244.73</ele>
        <time>2017-12-07T13:26:33.142Z</time>
      </trkpt>
      <trkpt lat="45.19445" lon="0.94445">
        <ele>243.85</ele>
        <time>2017-12-07T13:26:38.148Z</time>
      </trkpt>
      <trkpt lat="45.19449" lon="0.9445">
        <ele>243.18</ele>
        <time>2017-12-07T13:26:43.157Z</time>
      </trkpt>
      <trkpt lat="45.19453" lon="0.94447">
        <ele>242.57</ele>
        <time>2017-12-07T13:26:47.167Z</time>
      </trkpt>
      <trkpt lat="45.19457" lon="0.94442">
        <ele>241.57</ele>
        <time>2017-12-07T13:26:52.171Z</time>
      </trkpt>
      <trkpt lat="45.1946" lon="0.94437">
        <ele>240.75</ele>
        <time>2017-12-07T13:26:57.172Z</time>
      </trkpt>
      <trkpt lat="45.19463" lon="0.94432">
        <ele>240.24</ele>
        <time>2017-12-07T13:27:00.172Z</time>
      </trkpt>
      <trkpt lat="45.19467" lon="0.94427">
        <ele>239.38</ele>
        <time>2017-12-07T13:27:04.175Z</time>
      </trkpt>
      <trkpt lat="45.1947" lon="0.94422">
        <ele>238.67</ele>
        <time>2017-12-07T13:27:09.180Z</time>
      </trkpt>
      <trkpt lat="45.19474" lon="0.94417">
        <ele>238.34</ele>
        <time>2017-12-07T13:27:14.182Z</time>
      </trkpt>
      <trkpt lat="45.19478" lon="0.94413">
        <ele>238.11</ele>
        <time>2017-12-07T13:27:17.212Z</time>
      </trkpt>
      <trkpt lat="45.19482" lon="0.94409">
        <ele>237.77</ele>
        <time>2017-12-07T13:27:21.211Z</time>
      </trkpt>
      <trkpt lat="45.19486" lon="0.94405">
        <ele>237.51</ele>
        <time>2017-12-07T13:27:25.217Z</time>
      </trkpt>
      <trkpt lat="45.1949" lon="0.94401">
        <ele>237.42</ele>
        <time>2017-12-07T13:27:29.217Z</time>
      </trkpt>
      <trkpt lat="45.19495" lon="0.94399">
        <ele>237.6</ele>
        <time>2017-12-07T13:27:33.222Z</time>
      </trkpt>
      <trkpt lat="45.19499" lon="0.94395">
        <ele>237.79</ele>
        <time>2017-12-07T13:27:37.221Z</time>
      </trkpt>
      <trkpt lat="45.19503" lon="0.94392">
        <ele>237.79</ele>
        <time>2017-12-07T13:27:42.218Z</time>
      </trkpt>
      <trkpt lat="45.19506" lon="0.94386">
        <ele>238.08</ele>
        <time>2017-12-07T13:27:47.217Z</time>
      </trkpt>
      <trkpt lat="45.1951" lon="0.94382">
        <ele>238.38</ele>
        <time>2017-12-07T13:27:51.227Z</time>
      </trkpt>
      <trkpt lat="45.19517" lon="0.94378">
        <ele>238.36</ele>
        <time>2017-12-07T13:27:58.615Z</time>
      </trkpt>
      <trkpt lat="45.19521" lon="0.94373">
        <ele>238.38</ele>
        <time>2017-12-07T13:28:02.616Z</time>
      </trkpt>
      <trkpt lat="45.19525" lon="0.94369">
        <ele>237.86</ele>
        <time>2017-12-07T13:28:07.614Z</time>
      </trkpt>
      <trkpt lat="45.19528" lon="0.94361">
        <ele>235.66</ele>
        <time>2017-12-07T13:28:14.626Z</time>
      </trkpt>
      <trkpt lat="45.19532" lon="0.94356">
        <ele>234.05</ele>
        <time>2017-12-07T13:28:18.627Z</time>
      </trkpt>
      <trkpt lat="45.19535" lon="0.94352">
        <ele>231.62</ele>
        <time>2017-12-07T13:28:23.625Z</time>
      </trkpt>
      <trkpt lat="45.1954" lon="0.9435">
        <ele>228.35</ele>
        <time>2017-12-07T13:28:32.636Z</time>
      </trkpt>
      <trkpt lat="45.19544" lon="0.94346">
        <ele>227.46</ele>
        <time>2017-12-07T13:28:37.636Z</time>
      </trkpt>
      <trkpt lat="45.19547" lon="0.94339">
        <ele>227.48</ele>
        <time>2017-12-07T13:28:40.634Z</time>
      </trkpt>
      <trkpt lat="45.1955" lon="0.94333">
        <ele>227.85</ele>
        <time>2017-12-07T13:28:44.641Z</time>
      </trkpt>
      <trkpt lat="45.19554" lon="0.94327">
        <ele>227.91</ele>
        <time>2017-12-07T13:28:49.652Z</time>
      </trkpt>
      <trkpt lat="45.19558" lon="0.94322">
        <ele>227.86</ele>
        <time>2017-12-07T13:28:59.654Z</time>
      </trkpt>
      <trkpt lat="45.19561" lon="0.94316">
        <ele>227.61</ele>
        <time>2017-12-07T13:29:03.659Z</time>
      </trkpt>
      <trkpt lat="45.19564" lon="0.94309">
        <ele>227.51</ele>
        <time>2017-12-07T13:29:07.693Z</time>
      </trkpt>
      <trkpt lat="45.19567" lon="0.94303">
        <ele>227.38</ele>
        <time>2017-12-07T13:29:12.675Z</time>
      </trkpt>
      <trkpt lat="45.19571" lon="0.94299">
        <ele>227.38</ele>
        <time>2017-12-07T13:29:17.420Z</time>
      </trkpt>
      <trkpt lat="45.19575" lon="0.94295">
        <ele>226.76</ele>
        <time>2017-12-07T13:29:22.260Z</time>
      </trkpt>
      <trkpt lat="45.19578" lon="0.9429">
        <ele>225.88</ele>
        <time>2017-12-07T13:29:27.360Z</time>
      </trkpt>
      <trkpt lat="45.19582" lon="0.94287">
        <ele>225.41</ele>
        <time>2017-12-07T13:29:31.710Z</time>
      </trkpt>
      <trkpt lat="45.19585" lon="0.94282">
        <ele>225.16</ele>
        <time>2017-12-07T13:29:34.730Z</time>
      </trkpt>
      <trkpt lat="45.19589" lon="0.94278">
        <ele>224.9</ele>
        <time>2017-12-07T13:29:38.840Z</time>
      </trkpt>
      <trkpt lat="45.19593" lon="0.94273">
        <ele>224.89</ele>
        <time>2017-12-07T13:29:42.650Z</time>
      </trkpt>
      <trkpt lat="45.19597" lon="0.94268">
        <ele>224.63</ele>
        <time>2017-12-07T13:29:47.104Z</time>
      </trkpt>
      <trkpt lat="45.19601" lon="0.94261">
        <ele>224.23</ele>
        <time>2017-12-07T13:29:52.103Z</time>
      </trkpt>
      <trkpt lat="45.19606" lon="0.94257">
        <ele>223.32</ele>
        <time>2017-12-07T13:29:57.109Z</time>
      </trkpt>
      <trkpt lat="45.19609" lon="0.94252">
        <ele>222.07</ele>
        <time>2017-12-07T13:30:02.112Z</time>
      </trkpt>
      <trkpt lat="45.19613" lon="0.94247">
        <ele>221.28</ele>
        <time>2017-12-07T13:30:08.124Z</time>
      </trkpt>
      <trkpt lat="45.19616" lon="0.94242">
        <ele>220.89</ele>
        <time>2017-12-07T13:30:13.125Z</time>
      </trkpt>
      <trkpt lat="45.19618" lon="0.94236">
        <ele>220.49</ele>
        <time>2017-12-07T13:30:18.142Z</time>
      </trkpt>
      <trkpt lat="45.19622" lon="0.94231">
        <ele>220.48</ele>
        <time>2017-12-07T13:30:22.142Z</time>
      </trkpt>
      <trkpt lat="45.19626" lon="0.94227">
        <ele>220.26</ele>
        <time>2017-12-07T13:30:26.145Z</time>
      </trkpt>
      <trkpt lat="45.1963" lon="0.9422">
        <ele>220.15</ele>
        <time>2017-12-07T13:30:30.143Z</time>
      </trkpt>
      <trkpt lat="45.19632" lon="0.94213">
        <ele>219.8</ele>
        <time>2017-12-07T13:30:34.152Z</time>
      </trkpt>
      <trkpt lat="45.19635" lon="0.94207">
        <ele>219.45</ele>
        <time>2017-12-07T13:30:38.184Z</time>
      </trkpt>
      <trkpt lat="45.19638" lon="0.94202">
        <ele>219.08</ele>
        <time>2017-12-07T13:30:41.164Z</time>
      </trkpt>
      <trkpt lat="45.19641" lon="0.94196">
        <ele>218.97</ele>
        <time>2017-12-07T13:30:44.162Z</time>
      </trkpt>
      <trkpt lat="45.19644" lon="0.94191">
        <ele>218.9</ele>
        <time>2017-12-07T13:30:48.174Z</time>
      </trkpt>
      <trkpt lat="45.19649" lon="0.94187">
        <ele>218.75</ele>
        <time>2017-12-07T13:30:53.169Z</time>
      </trkpt>
      <trkpt lat="45.19653" lon="0.94183">
        <ele>219.03</ele>
        <time>2017-12-07T13:30:57.185Z</time>
      </trkpt>
      <trkpt lat="45.19656" lon="0.94176">
        <ele>219.23</ele>
        <time>2017-12-07T13:31:01.205Z</time>
      </trkpt>
      <trkpt lat="45.19659" lon="0.9417">
        <ele>219.22</ele>
        <time>2017-12-07T13:31:06.211Z</time>
      </trkpt>
      <trkpt lat="45.19663" lon="0.94164">
        <ele>218.7</ele>
        <time>2017-12-07T13:31:11.216Z</time>
      </trkpt>
      <trkpt lat="45.19666" lon="0.94158">
        <ele>218.37</ele>
        <time>2017-12-07T13:31:18.222Z</time>
      </trkpt>
      <trkpt lat="45.19669" lon="0.94154">
        <ele>218.39</ele>
        <time>2017-12-07T13:31:22.223Z</time>
      </trkpt>
      <trkpt lat="45.19672" lon="0.94149">
        <ele>218.4</ele>
        <time>2017-12-07T13:31:25.242Z</time>
      </trkpt>
      <trkpt lat="45.19676" lon="0.94144">
        <ele>218.53</ele>
        <time>2017-12-07T13:31:29.235Z</time>
      </trkpt>
      <trkpt lat="45.1968" lon="0.94139">
        <ele>218.93</ele>
        <time>2017-12-07T13:31:34.242Z</time>
      </trkpt>
      <trkpt lat="45.19684" lon="0.94134">
        <ele>218.58</ele>
        <time>2017-12-07T13:31:41.221Z</time>
      </trkpt>
      <trkpt lat="45.19687" lon="0.94126">
        <ele>218.44</ele>
        <time>2017-12-07T13:31:45.253Z</time>
      </trkpt>
      <trkpt lat="45.19689" lon="0.9412">
        <ele>218.38</ele>
        <time>2017-12-07T13:31:49.264Z</time>
      </trkpt>
      <trkpt lat="45.19693" lon="0.94115">
        <ele>218.21</ele>
        <time>2017-12-07T13:31:54.273Z</time>
      </trkpt>
      <trkpt lat="45.19697" lon="0.94109">
        <ele>218.06</ele>
        <time>2017-12-07T13:32:01.286Z</time>
      </trkpt>
      <trkpt lat="45.19701" lon="0.94104">
        <ele>218.13</ele>
        <time>2017-12-07T13:32:05.282Z</time>
      </trkpt>
      <trkpt lat="45.19706" lon="0.94102">
        <ele>218.24</ele>
        <time>2017-12-07T13:32:11.302Z</time>
      </trkpt>
      <trkpt lat="45.19711" lon="0.94097">
        <ele>218.29</ele>
        <time>2017-12-07T13:32:14.304Z</time>
      </trkpt>
      <trkpt lat="45.19714" lon="0.9409">
        <ele>218.4</ele>
        <time>2017-12-07T13:32:18.311Z</time>
      </trkpt>
      <trkpt lat="45.19719" lon="0.94085">
        <ele>218.26</ele>
        <time>2017-12-07T13:32:23.330Z</time>
      </trkpt>
      <trkpt lat="45.19722" lon="0.94078">
        <ele>217.81</ele>
        <time>2017-12-07T13:32:27.322Z</time>
      </trkpt>
      <trkpt lat="45.19726" lon="0.94073">
        <ele>217.3</ele>
        <time>2017-12-07T13:32:32.322Z</time>
      </trkpt>
      <trkpt lat="45.1973" lon="0.94068">
        <ele>217.34</ele>
        <time>2017-12-07T13:32:36.340Z</time>
      </trkpt>
      <trkpt lat="45.19732" lon="0.94062">
        <ele>217.45</ele>
        <time>2017-12-07T13:32:41.343Z</time>
      </trkpt>
      <trkpt lat="45.19734" lon="0.94056">
        <ele>217.09</ele>
        <time>2017-12-07T13:32:48.353Z</time>
      </trkpt>
      <trkpt lat="45.19734" lon="0.94048">
        <ele>216.59</ele>
        <time>2017-12-07T13:32:54.363Z</time>
      </trkpt>
      <trkpt lat="45.19737" lon="0.94042">
        <ele>215.48</ele>
        <time>2017-12-07T13:33:01.374Z</time>
      </trkpt>
      <trkpt lat="45.1974" lon="0.94038">
        <ele>214.07</ele>
        <time>2017-12-07T13:33:07.349Z</time>
      </trkpt>
      <trkpt lat="45.19743" lon="0.94031">
        <ele>212.43</ele>
        <time>2017-12-07T13:33:16.358Z</time>
      </trkpt>
      <trkpt lat="45.19747" lon="0.94025">
        <ele>211.66</ele>
        <time>2017-12-07T13:33:20.394Z</time>
      </trkpt>
      <trkpt lat="45.19748" lon="0.94018">
        <ele>211.28</ele>
        <time>2017-12-07T13:33:23.393Z</time>
      </trkpt>
      <trkpt lat="45.19751" lon="0.94012">
        <ele>210.1</ele>
        <time>2017-12-07T13:33:28.405Z</time>
      </trkpt>
      <trkpt lat="45.19754" lon="0.94006">
        <ele>209.15</ele>
        <time>2017-12-07T13:33:32.396Z</time>
      </trkpt>
      <trkpt lat="45.19754" lon="0.93998">
        <ele>208.69</ele>
        <time>2017-12-07T13:33:35.413Z</time>
      </trkpt>
      <trkpt lat="45.19756" lon="0.9399">
        <ele>208.46</ele>
        <time>2017-12-07T13:33:39.451Z</time>
      </trkpt>
      <trkpt lat="45.19758" lon="0.93983">
        <ele>208.15</ele>
        <time>2017-12-07T13:33:43.433Z</time>
      </trkpt>
      <trkpt lat="45.1976" lon="0.93978">
        <ele>207.92</ele>
        <time>2017-12-07T13:33:48.443Z</time>
      </trkpt>
      <trkpt lat="45.19764" lon="0.93972">
        <ele>208.17</ele>
        <time>2017-12-07T13:33:55.454Z</time>
      </trkpt>
      <trkpt lat="45.19767" lon="0.93966">
        <ele>207.72</ele>
        <time>2017-12-07T13:34:00.465Z</time>
      </trkpt>
      <trkpt lat="45.19769" lon="0.93958">
        <ele>207.47</ele>
        <time>2017-12-07T13:34:05.440Z</time>
      </trkpt>
      <trkpt lat="45.1977" lon="0.93952">
        <ele>207.43</ele>
        <time>2017-12-07T13:34:07.445Z</time>
      </trkpt>
      <trkpt lat="45.19771" lon="0.93946">
        <ele>207.43</ele>
        <time>2017-12-07T13:34:10.452Z</time>
      </trkpt>
      <trkpt lat="45.19772" lon="0.93938">
        <ele>207.4</ele>
        <time>2017-12-07T13:34:13.459Z</time>
      </trkpt>
      <trkpt lat="45.19772" lon="0.93932">
        <ele>207.09</ele>
        <time>2017-12-07T13:34:16.494Z</time>
      </trkpt>
      <trkpt lat="45.19774" lon="0.93926">
        <ele>206.75</ele>
        <time>2017-12-07T13:34:21.475Z</time>
      </trkpt>
      <trkpt lat="45.19777" lon="0.9392">
        <ele>206.51</ele>
        <time>2017-12-07T13:34:27.487Z</time>
      </trkpt>
      <trkpt lat="45.19778" lon="0.93913">
        <ele>206.27</ele>
        <time>2017-12-07T13:34:31.523Z</time>
      </trkpt>
      <trkpt lat="45.1978" lon="0.93905">
        <ele>205.88</ele>
        <time>2017-12-07T13:34:37.504Z</time>
      </trkpt>
      <trkpt lat="45.19781" lon="0.93898">
        <ele>205.78</ele>
        <time>2017-12-07T13:34:39.508Z</time>
      </trkpt>
      <trkpt lat="45.19783" lon="0.93891">
        <ele>205.83</ele>
        <time>2017-12-07T13:34:43.513Z</time>
      </trkpt>
      <trkpt lat="45.19784" lon="0.93884">
        <ele>205.46</ele>
        <time>2017-12-07T13:34:50.526Z</time>
      </trkpt>
      <trkpt lat="45.19785" lon="0.93878">
        <ele>205.22</ele>
        <time>2017-12-07T13:34:54.555Z</time>
      </trkpt>
      <trkpt lat="45.19786" lon="0.93869">
        <ele>204.94</ele>
        <time>2017-12-07T13:34:57.553Z</time>
      </trkpt>
      <trkpt lat="45.19787" lon="0.93863">
        <ele>204.68</ele>
        <time>2017-12-07T13:35:03.561Z</time>
      </trkpt>
      <trkpt lat="45.19787" lon="0.93855">
        <ele>205.17</ele>
        <time>2017-12-07T13:35:10.569Z</time>
      </trkpt>
      <trkpt lat="45.19787" lon="0.93849">
        <ele>205.62</ele>
        <time>2017-12-07T13:35:13.587Z</time>
      </trkpt>
      <trkpt lat="45.19787" lon="0.93841">
        <ele>206.43</ele>
        <time>2017-12-07T13:35:17.585Z</time>
      </trkpt>
      <trkpt lat="45.19787" lon="0.93835">
        <ele>207.08</ele>
        <time>2017-12-07T13:35:22.600Z</time>
      </trkpt>
      <trkpt lat="45.19788" lon="0.93828">
        <ele>207.4</ele>
        <time>2017-12-07T13:35:26.604Z</time>
      </trkpt>
      <trkpt lat="45.19789" lon="0.93821">
        <ele>207.74</ele>
        <time>2017-12-07T13:35:30.603Z</time>
      </trkpt>
      <trkpt lat="45.19791" lon="0.93815">
        <ele>208.12</ele>
        <time>2017-12-07T13:35:36.605Z</time>
      </trkpt>
      <trkpt lat="45.19792" lon="0.93806">
        <ele>207.79</ele>
        <time>2017-12-07T13:35:41.607Z</time>
      </trkpt>
      <trkpt lat="45.19793" lon="0.938">
        <ele>207.24</ele>
        <time>2017-12-07T13:35:46.612Z</time>
      </trkpt>
      <trkpt lat="45.19795" lon="0.93793">
        <ele>206.71</ele>
        <time>2017-12-07T13:35:50.609Z</time>
      </trkpt>
      <trkpt lat="45.19795" lon="0.93786">
        <ele>206.56</ele>
        <time>2017-12-07T13:35:53.606Z</time>
      </trkpt>
      <trkpt lat="45.19793" lon="0.93779">
        <ele>206.43</ele>
        <time>2017-12-07T13:35:55.615Z</time>
      </trkpt>
      <trkpt lat="45.19793" lon="0.93771">
        <ele>206.05</ele>
        <time>2017-12-07T13:35:59.615Z</time>
      </trkpt>
      <trkpt lat="45.19792" lon="0.93765">
        <ele>205.82</ele>
        <time>2017-12-07T13:36:02.612Z</time>
      </trkpt>
      <trkpt lat="45.19792" lon="0.93757">
        <ele>205.47</ele>
        <time>2017-12-07T13:36:07.615Z</time>
      </trkpt>
      <trkpt lat="45.19791" lon="0.93749">
        <ele>204.66</ele>
        <time>2017-12-07T13:36:15.613Z</time>
      </trkpt>
      <trkpt lat="45.19789" lon="0.93741">
        <ele>204.44</ele>
        <time>2017-12-07T13:36:19.623Z</time>
      </trkpt>
      <trkpt lat="45.19789" lon="0.93734">
        <ele>204.14</ele>
        <time>2017-12-07T13:36:25.624Z</time>
      </trkpt>
      <trkpt lat="45.19787" lon="0.93727">
        <ele>204.13</ele>
        <time>2017-12-07T13:36:31.625Z</time>
      </trkpt>
      <trkpt lat="45.19783" lon="0.93719">
        <ele>204.12</ele>
        <time>2017-12-07T13:36:36.627Z</time>
      </trkpt>
      <trkpt lat="45.1978" lon="0.93714">
        <ele>204.27</ele>
        <time>2017-12-07T13:36:41.627Z</time>
      </trkpt>
      <trkpt lat="45.19777" lon="0.93709">
        <ele>204.34</ele>
        <time>2017-12-07T13:36:47.631Z</time>
      </trkpt>
      <trkpt lat="45.19773" lon="0.93705">
        <ele>204.37</ele>
        <time>2017-12-07T13:36:53.636Z</time>
      </trkpt>
      <trkpt lat="45.19771" lon="0.93697">
        <ele>204.55</ele>
        <time>2017-12-07T13:37:05.634Z</time>
      </trkpt>
      <trkpt lat="45.1977" lon="0.9369">
        <ele>206.24</ele>
        <time>2017-12-07T13:37:15.652Z</time>
      </trkpt>
      <trkpt lat="45.19769" lon="0.93682">
        <ele>206.61</ele>
        <time>2017-12-07T13:37:19.655Z</time>
      </trkpt>
      <trkpt lat="45.19766" lon="0.93674">
        <ele>206.77</ele>
        <time>2017-12-07T13:37:21.655Z</time>
      </trkpt>
      <trkpt lat="45.19764" lon="0.93667">
        <ele>206.85</ele>
        <time>2017-12-07T13:37:23.654Z</time>
      </trkpt>
      <trkpt lat="45.19759" lon="0.93657">
        <ele>206.9</ele>
        <time>2017-12-07T13:37:25.660Z</time>
      </trkpt>
      <trkpt lat="45.19757" lon="0.93648">
        <ele>207.04</ele>
        <time>2017-12-07T13:37:27.660Z</time>
      </trkpt>
      <trkpt lat="45.19754" lon="0.9364">
        <ele>206.92</ele>
        <time>2017-12-07T13:37:31.651Z</time>
      </trkpt>
      <trkpt lat="45.19749" lon="0.93636">
        <ele>206.63</ele>
        <time>2017-12-07T13:37:36.664Z</time>
      </trkpt>
      <trkpt lat="45.19745" lon="0.93632">
        <ele>206.26</ele>
        <time>2017-12-07T13:37:45.671Z</time>
      </trkpt>
      <trkpt lat="45.19741" lon="0.93626">
        <ele>205.46</ele>
        <time>2017-12-07T13:37:50.673Z</time>
      </trkpt>
      <trkpt lat="45.19737" lon="0.9362">
        <ele>204.94</ele>
        <time>2017-12-07T13:37:59.674Z</time>
      </trkpt>
      <trkpt lat="45.19732" lon="0.93614">
        <ele>204.96</ele>
        <time>2017-12-07T13:38:02.674Z</time>
      </trkpt>
      <trkpt lat="45.19728" lon="0.93611">
        <ele>204.63</ele>
        <time>2017-12-07T13:38:08.675Z</time>
      </trkpt>
      <trkpt lat="45.19724" lon="0.93606">
        <ele>204.07</ele>
        <time>2017-12-07T13:38:12.672Z</time>
      </trkpt>
      <trkpt lat="45.1972" lon="0.93601">
        <ele>203.29</ele>
        <time>2017-12-07T13:38:20.672Z</time>
      </trkpt>
      <trkpt lat="45.19717" lon="0.93594">
        <ele>202.59</ele>
        <time>2017-12-07T13:38:28.683Z</time>
      </trkpt>
      <trkpt lat="45.19716" lon="0.93585">
        <ele>202.22</ele>
        <time>2017-12-07T13:38:33.684Z</time>
      </trkpt>
      <trkpt lat="45.19713" lon="0.93576">
        <ele>202.28</ele>
        <time>2017-12-07T13:38:45.690Z</time>
      </trkpt>
      <trkpt lat="45.19712" lon="0.9357">
        <ele>202.1</ele>
        <time>2017-12-07T13:38:51.683Z</time>
      </trkpt>
      <trkpt lat="45.19712" lon="0.93562">
        <ele>202.07</ele>
        <time>2017-12-07T13:38:57.683Z</time>
      </trkpt>
      <trkpt lat="45.1971" lon="0.93556">
        <ele>202.1</ele>
        <time>2017-12-07T13:39:01.686Z</time>
      </trkpt>
      <trkpt lat="45.19708" lon="0.9355">
        <ele>202.2</ele>
        <time>2017-12-07T13:39:03.686Z</time>
      </trkpt>
      <trkpt lat="45.19707" lon="0.93542">
        <ele>202.24</ele>
        <time>2017-12-07T13:39:10.687Z</time>
      </trkpt>
      <trkpt lat="45.19706" lon="0.93534">
        <ele>201.95</ele>
        <time>2017-12-07T13:39:15.689Z</time>
      </trkpt>
      <trkpt lat="45.19704" lon="0.93529">
        <ele>202.13</ele>
        <time>2017-12-07T13:39:20.694Z</time>
      </trkpt>
      <trkpt lat="45.19703" lon="0.93521">
        <ele>202.04</ele>
        <time>2017-12-07T13:39:27.697Z</time>
      </trkpt>
      <trkpt lat="45.19704" lon="0.93511">
        <ele>202.44</ele>
        <time>2017-12-07T13:39:30.697Z</time>
      </trkpt>
      <trkpt lat="45.19704" lon="0.93504">
        <ele>202.7</ele>
        <time>2017-12-07T13:39:33.698Z</time>
      </trkpt>
      <trkpt lat="45.19706" lon="0.93495">
        <ele>203.07</ele>
        <time>2017-12-07T13:39:36.701Z</time>
      </trkpt>
      <trkpt lat="45.19706" lon="0.93488">
        <ele>203.03</ele>
        <time>2017-12-07T13:39:44.704Z</time>
      </trkpt>
      <trkpt lat="45.19706" lon="0.93478">
        <ele>202.44</ele>
        <time>2017-12-07T13:39:48.705Z</time>
      </trkpt>
      <trkpt lat="45.19705" lon="0.93469">
        <ele>202.12</ele>
        <time>2017-12-07T13:39:51.708Z</time>
      </trkpt>
      <trkpt lat="45.19707" lon="0.93463">
        <ele>202.29</ele>
        <time>2017-12-07T13:39:58.711Z</time>
      </trkpt>
      <trkpt lat="45.19708" lon="0.93454">
        <ele>202.3</ele>
        <time>2017-12-07T13:40:03.713Z</time>
      </trkpt>
      <trkpt lat="45.19711" lon="0.93446">
        <ele>201.49</ele>
        <time>2017-12-07T13:40:13.715Z</time>
      </trkpt>
      <trkpt lat="45.19713" lon="0.9344">
        <ele>200.92</ele>
        <time>2017-12-07T13:40:16.715Z</time>
      </trkpt>
      <trkpt lat="45.19716" lon="0.93434">
        <ele>200.09</ele>
        <time>2017-12-07T13:40:21.716Z</time>
      </trkpt>
      <trkpt lat="45.19718" lon="0.93428">
        <ele>198.78</ele>
        <time>2017-12-07T13:40:27.718Z</time>
      </trkpt>
      <trkpt lat="45.19721" lon="0.93422">
        <ele>197.87</ele>
        <time>2017-12-07T13:40:31.718Z</time>
      </trkpt>
      <trkpt lat="45.19725" lon="0.93417">
        <ele>197.16</ele>
        <time>2017-12-07T13:40:35.719Z</time>
      </trkpt>
      <trkpt lat="45.19728" lon="0.93412">
        <ele>196.46</ele>
        <time>2017-12-07T13:40:40.720Z</time>
      </trkpt>
      <trkpt lat="45.19731" lon="0.93407">
        <ele>196.11</ele>
        <time>2017-12-07T13:40:45.722Z</time>
      </trkpt>
      <trkpt lat="45.19734" lon="0.934">
        <ele>195.41</ele>
        <time>2017-12-07T13:40:49.726Z</time>
      </trkpt>
      <trkpt lat="45.19738" lon="0.93395">
        <ele>194.47</ele>
        <time>2017-12-07T13:40:53.727Z</time>
      </trkpt>
      <trkpt lat="45.1974" lon="0.93387">
        <ele>194.01</ele>
        <time>2017-12-07T13:40:56.727Z</time>
      </trkpt>
      <trkpt lat="45.19741" lon="0.93379">
        <ele>193.71</ele>
        <time>2017-12-07T13:41:00.728Z</time>
      </trkpt>
      <trkpt lat="45.19745" lon="0.93373">
        <ele>193.15</ele>
        <time>2017-12-07T13:41:06.730Z</time>
      </trkpt>
      <trkpt lat="45.19743" lon="0.93367">
        <ele>192.9</ele>
        <time>2017-12-07T13:41:15.733Z</time>
      </trkpt>
      <trkpt lat="45.19746" lon="0.93362">
        <ele>192.76</ele>
        <time>2017-12-07T13:41:18.734Z</time>
      </trkpt>
      <trkpt lat="45.19748" lon="0.93355">
        <ele>192.72</ele>
        <time>2017-12-07T13:41:21.735Z</time>
      </trkpt>
      <trkpt lat="45.19751" lon="0.93348">
        <ele>192.7</ele>
        <time>2017-12-07T13:41:24.736Z</time>
      </trkpt>
      <trkpt lat="45.19754" lon="0.93342">
        <ele>192.42</ele>
        <time>2017-12-07T13:41:27.737Z</time>
      </trkpt>
      <trkpt lat="45.19756" lon="0.93335">
        <ele>192</ele>
        <time>2017-12-07T13:41:30.738Z</time>
      </trkpt>
      <trkpt lat="45.19758" lon="0.9333">
        <ele>190.89</ele>
        <time>2017-12-07T13:41:35.742Z</time>
      </trkpt>
      <trkpt lat="45.19759" lon="0.93323">
        <ele>190.34</ele>
        <time>2017-12-07T13:41:42.747Z</time>
      </trkpt>
      <trkpt lat="45.19759" lon="0.93317">
        <ele>189.94</ele>
        <time>2017-12-07T13:41:45.749Z</time>
      </trkpt>
      <trkpt lat="45.1976" lon="0.93311">
        <ele>189.36</ele>
        <time>2017-12-07T13:41:53.755Z</time>
      </trkpt>
      <trkpt lat="45.19759" lon="0.93304">
        <ele>188.35</ele>
        <time>2017-12-07T13:42:03.763Z</time>
      </trkpt>
      <trkpt lat="45.19757" lon="0.93297">
        <ele>187.69</ele>
        <time>2017-12-07T13:42:07.765Z</time>
      </trkpt>
      <trkpt lat="45.19753" lon="0.9329">
        <ele>186.99</ele>
        <time>2017-12-07T13:42:14.769Z</time>
      </trkpt>
      <trkpt lat="45.19749" lon="0.93285">
        <ele>186.47</ele>
        <time>2017-12-07T13:42:17.769Z</time>
      </trkpt>
      <trkpt lat="45.19745" lon="0.93281">
        <ele>185.89</ele>
        <time>2017-12-07T13:42:24.770Z</time>
      </trkpt>
      <trkpt lat="45.19742" lon="0.93275">
        <ele>185.82</ele>
        <time>2017-12-07T13:42:29.776Z</time>
      </trkpt>
      <trkpt lat="45.19738" lon="0.93268">
        <ele>186.15</ele>
        <time>2017-12-07T13:42:35.779Z</time>
      </trkpt>
      <trkpt lat="45.19737" lon="0.93261">
        <ele>186.65</ele>
        <time>2017-12-07T13:42:38.783Z</time>
      </trkpt>
      <trkpt lat="45.19735" lon="0.93254">
        <ele>187.5</ele>
        <time>2017-12-07T13:42:43.785Z</time>
      </trkpt>
      <trkpt lat="45.19735" lon="0.93246">
        <ele>188.59</ele>
        <time>2017-12-07T13:42:50.787Z</time>
      </trkpt>
      <trkpt lat="45.19735" lon="0.93238">
        <ele>189.62</ele>
        <time>2017-12-07T13:42:57.789Z</time>
      </trkpt>
      <trkpt lat="45.19735" lon="0.9323">
        <ele>190.16</ele>
        <time>2017-12-07T13:43:01.795Z</time>
      </trkpt>
      <trkpt lat="45.19734" lon="0.93222">
        <ele>190.6</ele>
        <time>2017-12-07T13:43:04.800Z</time>
      </trkpt>
      <trkpt lat="45.19734" lon="0.93215">
        <ele>190.82</ele>
        <time>2017-12-07T13:43:07.812Z</time>
      </trkpt>
      <trkpt lat="45.19733" lon="0.93207">
        <ele>191.03</ele>
        <time>2017-12-07T13:43:12.800Z</time>
      </trkpt>
      <trkpt lat="45.19732" lon="0.932">
        <ele>191.2</ele>
        <time>2017-12-07T13:43:15.822Z</time>
      </trkpt>
      <trkpt lat="45.19731" lon="0.93193">
        <ele>191.44</ele>
        <time>2017-12-07T13:43:18.822Z</time>
      </trkpt>
      <trkpt lat="45.19732" lon="0.93186">
        <ele>191.08</ele>
        <time>2017-12-07T13:43:24.843Z</time>
      </trkpt>
      <trkpt lat="45.19715" lon="0.9314">
        <ele>177.63</ele>
        <time>2017-12-07T13:53:21.633Z</time>
      </trkpt>
      <trkpt lat="45.19712" lon="0.93135">
        <ele>179.15</ele>
        <time>2017-12-07T13:53:30.636Z</time>
      </trkpt>
      <trkpt lat="45.19709" lon="0.93129">
        <ele>179.54</ele>
        <time>2017-12-07T13:53:35.638Z</time>
      </trkpt>
      <trkpt lat="45.19707" lon="0.93123">
        <ele>180.12</ele>
        <time>2017-12-07T13:53:45.641Z</time>
      </trkpt>
      <trkpt lat="45.19707" lon="0.93116">
        <ele>180.43</ele>
        <time>2017-12-07T13:53:52.643Z</time>
      </trkpt>
      <trkpt lat="45.19708" lon="0.93109">
        <ele>180.27</ele>
        <time>2017-12-07T13:53:56.644Z</time>
      </trkpt>
      <trkpt lat="45.19709" lon="0.93103">
        <ele>179.42</ele>
        <time>2017-12-07T13:54:03.647Z</time>
      </trkpt>
      <trkpt lat="45.19709" lon="0.93094">
        <ele>177.83</ele>
        <time>2017-12-07T13:54:09.648Z</time>
      </trkpt>
      <trkpt lat="45.19709" lon="0.93087">
        <ele>176.7</ele>
        <time>2017-12-07T13:54:13.653Z</time>
      </trkpt>
      <trkpt lat="45.19708" lon="0.93081">
        <ele>176.18</ele>
        <time>2017-12-07T13:54:15.652Z</time>
      </trkpt>
      <trkpt lat="45.19708" lon="0.93074">
        <ele>175.26</ele>
        <time>2017-12-07T13:54:19.654Z</time>
      </trkpt>
      <trkpt lat="45.19708" lon="0.93066">
        <ele>174.47</ele>
        <time>2017-12-07T13:54:23.655Z</time>
      </trkpt>
      <trkpt lat="45.19708" lon="0.93058">
        <ele>173.99</ele>
        <time>2017-12-07T13:54:26.656Z</time>
      </trkpt>
      <trkpt lat="45.19706" lon="0.93051">
        <ele>172.57</ele>
        <time>2017-12-07T13:54:31.658Z</time>
      </trkpt>
      <trkpt lat="45.19704" lon="0.93044">
        <ele>171.84</ele>
        <time>2017-12-07T13:54:36.660Z</time>
      </trkpt>
      <trkpt lat="45.19699" lon="0.93038">
        <ele>171.51</ele>
        <time>2017-12-07T13:54:40.661Z</time>
      </trkpt>
      <trkpt lat="45.19695" lon="0.9303">
        <ele>171.18</ele>
        <time>2017-12-07T13:54:43.662Z</time>
      </trkpt>
      <trkpt lat="45.19692" lon="0.93024">
        <ele>170.89</ele>
        <time>2017-12-07T13:54:46.663Z</time>
      </trkpt>
      <trkpt lat="45.19688" lon="0.93016">
        <ele>170.34</ele>
        <time>2017-12-07T13:54:50.664Z</time>
      </trkpt>
      <trkpt lat="45.19687" lon="0.9301">
        <ele>169.8</ele>
        <time>2017-12-07T13:54:56.665Z</time>
      </trkpt>
      <trkpt lat="45.19685" lon="0.93004">
        <ele>169.46</ele>
        <time>2017-12-07T13:55:00.666Z</time>
      </trkpt>
      <trkpt lat="45.19683" lon="0.92997">
        <ele>168.93</ele>
        <time>2017-12-07T13:55:06.670Z</time>
      </trkpt>
      <trkpt lat="45.19678" lon="0.92962">
        <ele>134.6</ele>
      </trkpt>
      <trkpt lat="45.19677" lon="0.92919">
        <ele>133.9</ele>
      </trkpt>
      <trkpt lat="45.19673" lon="0.92888">
        <ele>135.3</ele>
      </trkpt>
      <trkpt lat="45.19614" lon="0.92858">
        <ele>140.3</ele>
      </trkpt>
      <trkpt lat="45.19602" lon="0.92851">
        <ele>141.1</ele>
      </trkpt>
      <trkpt lat="45.19567" lon="0.92829">
        <ele>143.7</ele>
      </trkpt>
      <trkpt lat="45.19522" lon="0.92817">
        <ele>147.4</ele>
      </trkpt>
      <trkpt lat="45.19488" lon="0.92729">
        <ele>152</ele>
      </trkpt>
      <trkpt lat="45.19458" lon="0.92607">
        <ele>159.4</ele>
      </trkpt>
      <trkpt lat="45.1946" lon="0.92515">
        <ele>165.6</ele>
      </trkpt>
      <trkpt lat="45.19434" lon="0.92483">
        <ele>167</ele>
      </trkpt>
      <trkpt lat="45.1938" lon="0.92443">
        <ele>168.9</ele>
      </trkpt>
      <trkpt lat="45.19303" lon="0.92364">
        <ele>170.2</ele>
      </trkpt>
      <trkpt lat="45.19215" lon="0.92276">
        <ele>176.4</ele>
      </trkpt>
      <trkpt lat="45.19124" lon="0.92146">
        <ele>188.1</ele>
      </trkpt>
      <trkpt lat="45.19128" lon="0.92136">
        <ele>186</ele>
        <time>2011-02-17T09:08:37Z</time>
      </trkpt>
      <trkpt lat="45.19072" lon="0.92092">
        <ele>186.4</ele>
        <time>2011-02-17T09:07:37Z</time>
      </trkpt>
      <trkpt lat="45.19033" lon="0.92046">
        <ele>183.7</ele>
        <time>2011-02-17T09:06:41Z</time>
      </trkpt>
      <trkpt lat="45.19023" lon="0.91968">
        <ele>184.4</ele>
        <time>2011-02-17T09:05:50Z</time>
      </trkpt>
      <trkpt lat="45.19043" lon="0.91913">
        <ele>195.7</ele>
      </trkpt>
      <trkpt lat="45.19042" lon="0.91837">
        <ele>191.1</ele>
        <time>2011-02-17T09:02:45Z</time>
      </trkpt>
      <trkpt lat="45.19012" lon="0.91807">
        <ele>194.5</ele>
        <time>2011-02-17T09:02:11Z</time>
      </trkpt>
      <trkpt lat="45.18953" lon="0.91783">
        <ele>199.6</ele>
        <time>2011-02-17T09:01:14Z</time>
      </trkpt>
      <trkpt lat="45.18923" lon="0.91733">
        <ele>202.6</ele>
        <time>2011-02-17T09:00:33Z</time>
      </trkpt>
      <trkpt lat="45.1888" lon="0.91514">
        <ele>221.1</ele>
        <time>2011-02-17T08:55:41Z</time>
      </trkpt>
      <trkpt lat="45.18861" lon="0.91422">
        <ele>225.8</ele>
        <time>2011-02-17T08:54:40Z</time>
      </trkpt>
      <trkpt lat="45.18839" lon="0.91316">
        <ele>227.8</ele>
        <time>2011-02-17T08:53:30Z</time>
      </trkpt>
      <trkpt lat="45.1876" lon="0.91197">
        <ele>225.3</ele>
        <time>2011-02-17T08:51:34Z</time>
      </trkpt>
      <trkpt lat="45.18722" lon="0.91157">
        <ele>224.1</ele>
        <time>2011-02-17T08:50:47Z</time>
      </trkpt>
      <trkpt lat="45.18708" lon="0.91122">
        <ele>223.8</ele>
        <time>2011-02-17T08:50:19Z</time>
      </trkpt>
      <trkpt lat="45.18697" lon="0.9108">
        <ele>224</ele>
        <time>2011-02-17T08:49:50Z</time>
      </trkpt>
      <trkpt lat="45.18672" lon="0.90999">
        <ele>225.7</ele>
        <time>2011-02-17T08:48:53Z</time>
      </trkpt>
      <trkpt lat="45.18728" lon="0.90939">
        <ele>225</ele>
        <time>2011-02-17T08:47:45Z</time>
      </trkpt>
      <trkpt lat="45.18784" lon="0.90891">
        <ele>229.5</ele>
      </trkpt>
      <trkpt lat="45.18815" lon="0.90833">
        <ele>224</ele>
      </trkpt>
      <trkpt lat="45.18814" lon="0.90893">
        <ele>225</ele>
      </trkpt>
      <trkpt lat="45.1882" lon="0.90926">
        <ele>224.3</ele>
      </trkpt>
      <trkpt lat="45.18863" lon="0.9089">
        <ele>223.8</ele>
        <time>2011-02-16T09:40:49Z</time>
      </trkpt>
      <trkpt lat="45.189" lon="0.90869">
        <ele>223.6</ele>
        <time>2011-02-16T09:40:11Z</time>
      </trkpt>
      <trkpt lat="45.18936" lon="0.9085">
        <ele>223</ele>
        <time>2011-02-16T09:39:33Z</time>
      </trkpt>
      <trkpt lat="45.18975" lon="0.90854">
        <ele>221.2</ele>
        <time>2011-02-16T09:38:51Z</time>
      </trkpt>
      <trkpt lat="45.19009" lon="0.90833">
        <ele>217.3</ele>
        <time>2011-02-16T09:38:02Z</time>
      </trkpt>
      <trkpt lat="45.19208" lon="0.9082">
        <ele>208.4</ele>
      </trkpt>
      <trkpt lat="45.19252" lon="0.90745">
        <ele>191.4</ele>
        <time>2011-02-16T09:31:33Z</time>
      </trkpt>
      <trkpt lat="45.19286" lon="0.90719">
        <ele>185.1</ele>
        <time>2011-02-16T09:30:32Z</time>
      </trkpt>
      <trkpt lat="45.19323" lon="0.9068">
        <ele>172.3</ele>
        <time>2011-02-16T09:28:35Z</time>
      </trkpt>
      <trkpt lat="45.19342" lon="0.90646">
        <ele>164.1</ele>
        <time>2011-02-16T09:27:20Z</time>
      </trkpt>
      <trkpt lat="45.19318" lon="0.90601">
        <ele>153.8</ele>
        <time>2011-02-16T09:25:46Z</time>
      </trkpt>
      <trkpt lat="45.1928" lon="0.90588">
        <ele>151.7</ele>
        <time>2011-02-16T09:25:03Z</time>
      </trkpt>
      <trkpt lat="45.19314" lon="0.90573">
        <ele>145.7</ele>
        <time>2011-02-16T09:24:05Z</time>
      </trkpt>
      <trkpt lat="45.19352" lon="0.90565">
        <ele>139.5</ele>
        <time>2011-02-16T09:23:05Z</time>
      </trkpt>
      <trkpt lat="45.19392" lon="0.90558">
        <ele>132.9</ele>
        <time>2011-02-16T09:22:01Z</time>
      </trkpt>
      <trkpt lat="45.19438" lon="0.90551">
        <ele>125</ele>
        <time>2011-02-16T09:20:45Z</time>
      </trkpt>
      <trkpt lat="45.19449" lon="0.90531">
        <ele>121.2</ele>
        <time>2011-02-16T09:20:09Z</time>
      </trkpt>
      <trkpt lat="45.19453" lon="0.90515">
        <ele>119.3</ele>
        <time>2011-02-16T09:19:51Z</time>
      </trkpt>
      <trkpt lat="45.19455" lon="0.90504">
        <ele>118</ele>
        <time>2011-02-16T09:19:38Z</time>
      </trkpt>
      <trkpt lat="45.19457" lon="0.90497">
        <ele>117.3</ele>
        <time>2011-02-16T09:19:31Z</time>
      </trkpt>
      <trkpt lat="45.19464" lon="0.9047">
        <ele>114.4</ele>
        <time>2011-02-16T09:19:00Z</time>
      </trkpt>
      <trkpt lat="45.19471" lon="0.90439">
        <ele>112.2</ele>
        <time>2011-02-16T09:18:31Z</time>
      </trkpt>
      <trkpt lat="45.19478" lon="0.90437">
        <ele>112</ele>
        <time>2011-02-16T09:18:24Z</time>
      </trkpt>
      <trkpt lat="45.19506" lon="0.90447">
        <ele>112</ele>
        <time>2011-02-16T09:17:56Z</time>
      </trkpt>
      <trkpt lat="45.19565" lon="0.90493">
        <ele>112.2</ele>
        <time>2011-02-16T09:16:52Z</time>
      </trkpt>
      <trkpt lat="45.19569" lon="0.90496">
        <ele>112.2</ele>
        <time>2011-02-16T09:16:48Z</time>
      </trkpt>
      <trkpt lat="45.19583" lon="0.90508">
        <ele>112.3</ele>
        <time>2011-02-16T09:16:33Z</time>
      </trkpt>
      <trkpt lat="45.19572" lon="0.90567">
        <ele>115.3</ele>
        <time>2011-02-16T09:15:54Z</time>
      </trkpt>
      <trkpt lat="45.1958" lon="0.90578">
        <ele>115.9</ele>
        <time>2011-02-16T09:15:44Z</time>
      </trkpt>
      <trkpt lat="45.19612" lon="0.90591">
        <ele>118.3</ele>
        <time>2011-02-16T09:15:15Z</time>
      </trkpt>
      <trkpt lat="45.197" lon="0.90628">
        <ele>120.6</ele>
        <time>2011-02-16T09:13:52Z</time>
      </trkpt>
      <trkpt lat="45.19778" lon="0.90656">
        <ele>121.7</ele>
        <time>2011-02-16T09:12:37Z</time>
      </trkpt>
      <trkpt lat="45.19801" lon="0.90652">
        <ele>120.6</ele>
        <time>2011-02-16T09:12:12Z</time>
      </trkpt>
      <trkpt lat="45.19812" lon="0.90643">
        <ele>119.5</ele>
        <time>2011-02-16T09:11:57Z</time>
      </trkpt>
      <trkpt lat="45.19818" lon="0.90637">
        <ele>118.7</ele>
        <time>2011-02-16T09:11:46Z</time>
      </trkpt>
      <trkpt lat="45.19868" lon="0.90627">
        <ele>120.2</ele>
        <time>2011-02-16T09:11:01Z</time>
      </trkpt>
      <trkpt lat="45.19988" lon="0.90593">
        <ele>120.5</ele>
        <time>2011-02-16T09:09:06Z</time>
      </trkpt>
      <trkpt lat="45.20033" lon="0.90568">
        <ele>120.4</ele>
        <time>2011-02-16T09:08:20Z</time>
      </trkpt>
      <trkpt lat="45.20054" lon="0.9054">
        <ele>120</ele>
        <time>2011-02-16T09:07:51Z</time>
      </trkpt>
      <trkpt lat="45.20083" lon="0.90484">
        <ele>117.6</ele>
        <time>2011-02-16T09:06:58Z</time>
      </trkpt>
      <trkpt lat="45.20156" lon="0.9043">
        <ele>118.2</ele>
        <time>2011-02-16T09:05:41Z</time>
      </trkpt>
      <trkpt lat="45.20191" lon="0.90391">
        <ele>118.8</ele>
        <time>2011-02-16T09:05:00Z</time>
      </trkpt>
      <trkpt lat="45.20224" lon="0.90352">
        <ele>119</ele>
        <time>2011-02-16T09:04:19Z</time>
      </trkpt>
      <trkpt lat="45.20266" lon="0.90334">
        <ele>120.4</ele>
        <time>2011-02-16T09:03:40Z</time>
      </trkpt>
      <trkpt lat="45.20328" lon="0.90334">
        <ele>123.2</ele>
        <time>2011-02-16T09:02:46Z</time>
      </trkpt>
      <trkpt lat="45.2038" lon="0.90315">
        <ele>122.3</ele>
        <time>2011-02-16T09:01:52Z</time>
      </trkpt>
      <trkpt lat="45.20402" lon="0.90315">
        <ele>121.7</ele>
        <time>2011-02-16T09:01:30Z</time>
      </trkpt>
      <trkpt lat="45.20446" lon="0.90345">
        <ele>123</ele>
        <time>2011-02-16T09:00:46Z</time>
      </trkpt>
      <trkpt lat="45.20501" lon="0.90352">
        <ele>126</ele>
        <time>2011-02-16T08:59:57Z</time>
      </trkpt>
      <trkpt lat="45.20562" lon="0.90351">
        <ele>125.2</ele>
        <time>2011-02-16T08:58:58Z</time>
      </trkpt>
      <trkpt lat="45.20584" lon="0.90363">
        <ele>125.4</ele>
        <time>2011-02-16T08:58:35Z</time>
      </trkpt>
      <trkpt lat="45.20643" lon="0.90355">
        <ele>123.4</ele>
        <time>2011-02-16T08:57:34Z</time>
      </trkpt>
      <trkpt lat="45.2065" lon="0.90341">
        <ele>122</ele>
        <time>2011-02-16T08:57:17Z</time>
      </trkpt>
      <trkpt lat="45.20666" lon="0.90273">
        <ele>117.5</ele>
        <time>2011-02-16T08:56:15Z</time>
      </trkpt>
      <trkpt lat="45.20679" lon="0.90244">
        <ele>116.4</ele>
        <time>2011-02-16T08:55:49Z</time>
      </trkpt>
      <trkpt lat="45.20701" lon="0.90225">
        <ele>115.6</ele>
        <time>2011-02-16T08:55:23Z</time>
      </trkpt>
      <trkpt lat="45.20728" lon="0.90217">
        <ele>115.3</ele>
        <time>2011-02-16T08:54:56Z</time>
      </trkpt>
      <trkpt lat="45.20783" lon="0.90218">
        <ele>115.6</ele>
        <time>2011-02-16T08:54:04Z</time>
      </trkpt>
      <trkpt lat="45.20824" lon="0.90253">
        <ele>118</ele>
        <time>2011-02-16T08:53:22Z</time>
      </trkpt>
      <trkpt lat="45.20844" lon="0.90267">
        <ele>118.6</ele>
        <time>2011-02-16T08:53:01Z</time>
      </trkpt>
      <trkpt lat="45.2088" lon="0.90273">
        <ele>118.3</ele>
        <time>2011-02-16T08:52:26Z</time>
      </trkpt>
      <trkpt lat="45.20911" lon="0.90252">
        <ele>116.8</ele>
        <time>2011-02-16T08:51:50Z</time>
      </trkpt>
      <trkpt lat="45.20925" lon="0.90221">
        <ele>115.8</ele>
        <time>2011-02-16T08:51:22Z</time>
      </trkpt>
      <trkpt lat="45.20929" lon="0.902">
        <ele>115</ele>
        <time>2011-02-16T08:51:06Z</time>
      </trkpt>
      <trkpt lat="45.2094" lon="0.90102">
        <ele>112.1</ele>
        <time>2011-02-16T08:49:51Z</time>
      </trkpt>
      <trkpt lat="45.20944" lon="0.90059">
        <ele>111.4</ele>
        <time>2011-02-16T08:49:20Z</time>
      </trkpt>
      <trkpt lat="45.20951" lon="0.90022">
        <ele>110.8</ele>
        <time>2011-02-16T08:48:53Z</time>
      </trkpt>
      <trkpt lat="45.20966" lon="0.8989">
        <ele>108</ele>
        <time>2011-02-16T08:47:17Z</time>
      </trkpt>
      <trkpt lat="45.20975" lon="0.89878">
        <ele>108</ele>
        <time>2011-02-16T08:47:05Z</time>
      </trkpt>
      <trkpt lat="45.2099" lon="0.8985">
        <ele>108</ele>
        <time>2011-02-16T08:46:42Z</time>
      </trkpt>
      <trkpt lat="45.21014" lon="0.89779">
        <ele>119</ele>
        <time>2011-02-16T08:45:18Z</time>
      </trkpt>
      <trkpt lat="45.20994" lon="0.89764">
        <ele>122.4</ele>
        <time>2011-02-16T08:44:49Z</time>
      </trkpt>
      <trkpt lat="45.20898" lon="0.89721">
        <ele>122.1</ele>
        <time>2011-02-16T08:43:12Z</time>
      </trkpt>
      <trkpt lat="45.2085" lon="0.897">
        <ele>115.9</ele>
        <time>2011-02-16T08:42:03Z</time>
      </trkpt>
      <trkpt lat="45.20853" lon="0.89655">
        <ele>118.4</ele>
        <time>2011-02-16T08:41:34Z</time>
      </trkpt>
      <trkpt lat="45.20855" lon="0.89635">
        <ele>117</ele>
        <time>2011-02-16T08:41:15Z</time>
      </trkpt>
      <trkpt lat="45.20873" lon="0.89563">
        <ele>118.3</ele>
        <time>2011-02-16T08:40:26Z</time>
      </trkpt>
      <trkpt lat="45.20878" lon="0.89543">
        <ele>119.2</ele>
        <time>2011-02-16T08:40:13Z</time>
      </trkpt>
      <trkpt lat="45.20888" lon="0.89525">
        <ele>118.6</ele>
        <time>2011-02-16T08:39:56Z</time>
      </trkpt>
      <trkpt lat="45.209" lon="0.8951">
        <ele>119.5</ele>
        <time>2011-02-16T08:39:42Z</time>
      </trkpt>
      <trkpt lat="45.20923" lon="0.89493">
        <ele>121.3</ele>
        <time>2011-02-16T08:39:19Z</time>
      </trkpt>
      <trkpt lat="45.20945" lon="0.89488">
        <ele>120.2</ele>
        <time>2011-02-16T08:38:54Z</time>
      </trkpt>
      <trkpt lat="45.20963" lon="0.8949">
        <ele>118.9</ele>
        <time>2011-02-16T08:38:34Z</time>
      </trkpt>
      <trkpt lat="45.20975" lon="0.89483">
        <ele>118.6</ele>
        <time>2011-02-16T08:38:20Z</time>
      </trkpt>
      <trkpt lat="45.20988" lon="0.89458">
        <ele>118.6</ele>
        <time>2011-02-16T08:37:59Z</time>
      </trkpt>
      <trkpt lat="45.20995" lon="0.89435">
        <ele>121.7</ele>
        <time>2011-02-16T08:37:35Z</time>
      </trkpt>
      <trkpt lat="45.21005" lon="0.89415">
        <ele>123</ele>
        <time>2011-02-16T08:37:19Z</time>
      </trkpt>
      <trkpt lat="45.21035" lon="0.8935">
        <ele>123.8</ele>
        <time>2011-02-16T08:36:28Z</time>
      </trkpt>
      <trkpt lat="45.21045" lon="0.89328">
        <ele>124.4</ele>
        <time>2011-02-16T08:36:12Z</time>
      </trkpt>
      <trkpt lat="45.21053" lon="0.89308">
        <ele>124.9</ele>
        <time>2011-02-16T08:35:57Z</time>
      </trkpt>
      <trkpt lat="45.2105" lon="0.89285">
        <ele>126.3</ele>
        <time>2011-02-16T08:35:42Z</time>
      </trkpt>
      <trkpt lat="45.21043" lon="0.8926">
        <ele>128.2</ele>
        <time>2011-02-16T08:35:24Z</time>
      </trkpt>
      <trkpt lat="45.21035" lon="0.89243">
        <ele>129.7</ele>
        <time>2011-02-16T08:35:10Z</time>
      </trkpt>
      <trkpt lat="45.21023" lon="0.8922">
        <ele>132</ele>
        <time>2011-02-16T08:34:49Z</time>
      </trkpt>
      <trkpt lat="45.21015" lon="0.89195">
        <ele>133.8</ele>
        <time>2011-02-16T08:34:31Z</time>
      </trkpt>
      <trkpt lat="45.21015" lon="0.89173">
        <ele>134.9</ele>
        <time>2011-02-16T08:34:17Z</time>
      </trkpt>
      <trkpt lat="45.2102" lon="0.89153">
        <ele>135.7</ele>
        <time>2011-02-16T08:34:04Z</time>
      </trkpt>
      <trkpt lat="45.21025" lon="0.89123">
        <ele>137</ele>
        <time>2011-02-16T08:33:44Z</time>
      </trkpt>
      <trkpt lat="45.21025" lon="0.89095">
        <ele>138.3</ele>
        <time>2011-02-16T08:33:27Z</time>
      </trkpt>
      <trkpt lat="45.2102" lon="0.89065">
        <ele>139.5</ele>
        <time>2011-02-16T08:33:08Z</time>
      </trkpt>
      <trkpt lat="45.21015" lon="0.89038">
        <ele>140.5</ele>
        <time>2011-02-16T08:32:50Z</time>
      </trkpt>
      <trkpt lat="45.20998" lon="0.89003">
        <ele>143.3</ele>
        <time>2011-02-16T08:32:22Z</time>
      </trkpt>
      <trkpt lat="45.20988" lon="0.89018">
        <ele>143.5</ele>
        <time>2011-02-16T08:32:08Z</time>
      </trkpt>
      <trkpt lat="45.20975" lon="0.89035">
        <ele>143.6</ele>
        <time>2011-02-16T08:31:52Z</time>
      </trkpt>
      <trkpt lat="45.2096" lon="0.8905">
        <ele>144.2</ele>
        <time>2011-02-16T08:31:35Z</time>
      </trkpt>
      <trkpt lat="45.20948" lon="0.89068">
        <ele>144.6</ele>
        <time>2011-02-16T08:31:19Z</time>
      </trkpt>
      <trkpt lat="45.20938" lon="0.89095">
        <ele>144.9</ele>
        <time>2011-02-16T08:30:59Z</time>
      </trkpt>
      <trkpt lat="45.2093" lon="0.89115">
        <ele>145.5</ele>
        <time>2011-02-16T08:30:45Z</time>
      </trkpt>
      <trkpt lat="45.20918" lon="0.8913">
        <ele>146.7</ele>
        <time>2011-02-16T08:30:30Z</time>
      </trkpt>
      <trkpt lat="45.20905" lon="0.89148">
        <ele>147.8</ele>
        <time>2011-02-16T08:30:14Z</time>
      </trkpt>
      <trkpt lat="45.20893" lon="0.8916">
        <ele>148.8</ele>
        <time>2011-02-16T08:30:01Z</time>
      </trkpt>
      <trkpt lat="45.2088" lon="0.8917">
        <ele>148.9</ele>
        <time>2011-02-16T08:29:47Z</time>
      </trkpt>
      <trkpt lat="45.20865" lon="0.8918">
        <ele>149.1</ele>
        <time>2011-02-16T08:29:32Z</time>
      </trkpt>
      <trkpt lat="45.20843" lon="0.89188">
        <ele>149.1</ele>
        <time>2011-02-16T08:29:10Z</time>
      </trkpt>
      <trkpt lat="45.20828" lon="0.89193">
        <ele>148.3</ele>
        <time>2011-02-16T08:28:53Z</time>
      </trkpt>
      <trkpt lat="45.2079" lon="0.89213">
        <ele>145.7</ele>
        <time>2011-02-16T08:28:07Z</time>
      </trkpt>
      <trkpt lat="45.2073" lon="0.89243">
        <ele>139.8</ele>
        <time>2011-02-16T08:26:48Z</time>
      </trkpt>
      <trkpt lat="45.20718" lon="0.8925">
        <ele>138.7</ele>
        <time>2011-02-16T08:26:32Z</time>
      </trkpt>
      <trkpt lat="45.20705" lon="0.8926">
        <ele>137.6</ele>
        <time>2011-02-16T08:26:15Z</time>
      </trkpt>
      <trkpt lat="45.20696" lon="0.89264">
        <ele>139.6</ele>
      </trkpt>
      <trkpt lat="45.20692" lon="0.8923">
        <ele>135.3</ele>
        <time>2011-02-17T08:26:29Z</time>
      </trkpt>
      <trkpt lat="45.20687" lon="0.892">
        <ele>133.2</ele>
        <time>2011-02-17T08:26:49Z</time>
      </trkpt>
      <trkpt lat="45.20685" lon="0.8917">
        <ele>130.6</ele>
        <time>2011-02-17T08:27:14Z</time>
      </trkpt>
      <trkpt lat="45.20685" lon="0.89137">
        <ele>127.9</ele>
        <time>2011-02-17T08:27:38Z</time>
      </trkpt>
      <trkpt lat="45.20681" lon="0.89107">
        <ele>124.3</ele>
        <time>2011-02-17T08:28:08Z</time>
      </trkpt>
      <trkpt lat="45.20679" lon="0.89073">
        <ele>120</ele>
        <time>2011-02-17T08:28:42Z</time>
      </trkpt>
      <trkpt lat="45.20681" lon="0.89043">
        <ele>116.3</ele>
        <time>2011-02-17T08:29:12Z</time>
      </trkpt>
      <trkpt lat="45.2069" lon="0.89017">
        <ele>114.3</ele>
        <time>2011-02-17T08:29:32Z</time>
      </trkpt>
      <trkpt lat="45.20698" lon="0.88989">
        <ele>111</ele>
        <time>2011-02-17T08:30:00Z</time>
      </trkpt>
      <trkpt lat="45.20736" lon="0.88926">
        <ele>111.4</ele>
        <time>2011-02-17T08:30:56Z</time>
      </trkpt>
      <trkpt lat="45.20774" lon="0.8885">
        <ele>129</ele>
      </trkpt>
      <trkpt lat="45.20796" lon="0.88765">
        <ele>115.7</ele>
        <time>2011-02-17T08:33:09Z</time>
      </trkpt>
      <trkpt lat="45.20932" lon="0.8833">
        <ele>103.3</ele>
        <time>2011-02-17T08:38:08Z</time>
      </trkpt>
      <trkpt lat="45.20976" lon="0.88272">
        <ele>108.9</ele>
        <time>2011-02-17T08:39:23Z</time>
      </trkpt>
      <trkpt lat="45.20997" lon="0.88246">
        <ele>115.6</ele>
        <time>2011-02-17T08:40:25Z</time>
      </trkpt>
      <trkpt lat="45.20989" lon="0.88186">
        <ele>116.8</ele>
        <time>2011-02-17T08:41:08Z</time>
      </trkpt>
      <trkpt lat="45.20985" lon="0.88156">
        <ele>116</ele>
        <time>2011-02-17T08:41:28Z</time>
      </trkpt>
      <trkpt lat="45.20996" lon="0.8815">
        <ele>120.9</ele>
        <time>2011-02-17T08:42:12Z</time>
      </trkpt>
      <trkpt lat="45.21" lon="0.88135">
        <ele>122.9</ele>
        <time>2011-02-17T08:42:31Z</time>
      </trkpt>
      <trkpt lat="45.20999" lon="0.88132">
        <ele>122.6</ele>
        <time>2011-02-17T08:42:33Z</time>
      </trkpt>
      <trkpt lat="45.20994" lon="0.88111">
        <ele>119.7</ele>
        <time>2011-02-17T08:42:56Z</time>
      </trkpt>
      <trkpt lat="45.20986" lon="0.88103">
        <ele>116</ele>
      </trkpt>
      <trkpt lat="45.20988" lon="0.88088">
        <ele>115.8</ele>
        <time>2011-02-17T08:43:24Z</time>
      </trkpt>
      <trkpt lat="45.2098" lon="0.88066">
        <ele>115.1</ele>
      </trkpt>
      <trkpt lat="45.20989" lon="0.8804">
        <ele>114.1</ele>
      </trkpt>
      <trkpt lat="45.20997" lon="0.88018">
        <ele>113.2</ele>
        <time>2011-02-17T08:44:20Z</time>
      </trkpt>
      <trkpt lat="45.21001" lon="0.87992">
        <ele>111.7</ele>
        <time>2011-02-17T08:44:37Z</time>
      </trkpt>
      <trkpt lat="45.21005" lon="0.87968">
        <ele>111.5</ele>
        <time>2011-02-17T08:44:53Z</time>
      </trkpt>
      <trkpt lat="45.21017" lon="0.87929">
        <ele>112.4</ele>
        <time>2011-02-17T08:45:24Z</time>
      </trkpt>
      <trkpt lat="45.21017" lon="0.87901">
        <ele>111.8</ele>
        <time>2011-02-17T08:45:42Z</time>
      </trkpt>
      <trkpt lat="45.21022" lon="0.87872">
        <ele>124.9</ele>
      </trkpt>
      <trkpt lat="45.21002" lon="0.87706">
        <ele>111.6</ele>
      </trkpt>
      <trkpt lat="45.20995" lon="0.87592">
        <ele>109.8</ele>
      </trkpt>
      <trkpt lat="45.20979" lon="0.87584">
        <ele>106.8</ele>
        <time>2011-02-17T08:49:12Z</time>
      </trkpt>
      <trkpt lat="45.20971" lon="0.8756">
        <ele>106.6</ele>
        <time>2011-02-17T08:49:29Z</time>
      </trkpt>
      <trkpt lat="45.20964" lon="0.87534">
        <ele>106.7</ele>
        <time>2011-02-17T08:49:48Z</time>
      </trkpt>
      <trkpt lat="45.20958" lon="0.87509">
        <ele>106.9</ele>
        <time>2011-02-17T08:50:07Z</time>
      </trkpt>
      <trkpt lat="45.20949" lon="0.87481">
        <ele>106.7</ele>
        <time>2011-02-17T08:50:27Z</time>
      </trkpt>
      <trkpt lat="45.20943" lon="0.87454">
        <ele>106.5</ele>
        <time>2011-02-17T08:50:45Z</time>
      </trkpt>
      <trkpt lat="45.20941" lon="0.87425">
        <ele>106.7</ele>
        <time>2011-02-17T08:51:05Z</time>
      </trkpt>
      <trkpt lat="45.20938" lon="0.87389">
        <ele>107.7</ele>
        <time>2011-02-17T08:51:32Z</time>
      </trkpt>
      <trkpt lat="45.20938" lon="0.87354">
        <ele>109</ele>
        <time>2011-02-17T08:51:59Z</time>
      </trkpt>
      <trkpt lat="45.20941" lon="0.87326">
        <ele>110.7</ele>
        <time>2011-02-17T08:52:23Z</time>
      </trkpt>
      <trkpt lat="45.20943" lon="0.87301">
        <ele>112.5</ele>
        <time>2011-02-17T08:52:47Z</time>
      </trkpt>
      <trkpt lat="45.20943" lon="0.87275">
        <ele>114.9</ele>
        <time>2011-02-17T08:53:13Z</time>
      </trkpt>
      <trkpt lat="45.20945" lon="0.87249">
        <ele>117.9</ele>
        <time>2011-02-17T08:53:42Z</time>
      </trkpt>
      <trkpt lat="45.20949" lon="0.87217">
        <ele>121.3</ele>
        <time>2011-02-17T08:54:17Z</time>
      </trkpt>
      <trkpt lat="45.20951" lon="0.87185">
        <ele>123.5</ele>
        <time>2011-02-17T08:54:46Z</time>
      </trkpt>
      <trkpt lat="45.2095" lon="0.87162">
        <ele>124.7</ele>
        <time>2011-02-17T08:55:05Z</time>
      </trkpt>
      <trkpt lat="45.20942" lon="0.87137">
        <ele>125</ele>
        <time>2011-02-17T08:55:24Z</time>
      </trkpt>
      <trkpt lat="45.20932" lon="0.87099">
        <ele>125.8</ele>
        <time>2011-02-17T08:55:53Z</time>
      </trkpt>
      <trkpt lat="45.20923" lon="0.87065">
        <ele>128.1</ele>
        <time>2011-02-17T08:56:24Z</time>
      </trkpt>
      <trkpt lat="45.20914" lon="0.87039">
        <ele>130.9</ele>
        <time>2011-02-17T08:56:54Z</time>
      </trkpt>
      <trkpt lat="45.20903" lon="0.87009">
        <ele>136.6</ele>
        <time>2011-02-17T08:57:47Z</time>
      </trkpt>
      <trkpt lat="45.20893" lon="0.86986">
        <ele>140.5</ele>
        <time>2011-02-17T08:58:23Z</time>
      </trkpt>
      <trkpt lat="45.20882" lon="0.86956">
        <ele>143.7</ele>
        <time>2011-02-17T08:58:58Z</time>
      </trkpt>
      <trkpt lat="45.20869" lon="0.86922">
        <ele>146.4</ele>
        <time>2011-02-17T08:59:33Z</time>
      </trkpt>
      <trkpt lat="45.20852" lon="0.86885">
        <ele>150.9</ele>
        <time>2011-02-17T09:00:19Z</time>
      </trkpt>
      <trkpt lat="45.20836" lon="0.86863">
        <ele>152.3</ele>
        <time>2011-02-17T09:00:45Z</time>
      </trkpt>
      <trkpt lat="45.2082" lon="0.8684">
        <ele>154.8</ele>
        <time>2011-02-17T09:01:15Z</time>
      </trkpt>
      <trkpt lat="45.20784" lon="0.86803">
        <ele>155.4</ele>
        <time>2011-02-17T09:01:59Z</time>
      </trkpt>
      <trkpt lat="45.20726" lon="0.86773">
        <ele>154.8</ele>
        <time>2011-02-17T09:02:56Z</time>
      </trkpt>
      <trkpt lat="45.20716" lon="0.86758">
        <ele>157.9</ele>
        <time>2011-02-17T09:03:25Z</time>
      </trkpt>
      <trkpt lat="45.20698" lon="0.86741">
        <ele>160.6</ele>
        <time>2011-02-17T09:03:56Z</time>
      </trkpt>
      <trkpt lat="45.20677" lon="0.86723">
        <ele>162.4</ele>
        <time>2011-02-17T09:04:25Z</time>
      </trkpt>
      <trkpt lat="45.20666" lon="0.86708">
        <ele>165.8</ele>
        <time>2011-02-17T09:04:56Z</time>
      </trkpt>
      <trkpt lat="45.20653" lon="0.86693">
        <ele>168.9</ele>
        <time>2011-02-17T09:05:25Z</time>
      </trkpt>
      <trkpt lat="45.20634" lon="0.86672">
        <ele>173.5</ele>
        <time>2011-02-17T09:06:09Z</time>
      </trkpt>
      <trkpt lat="45.20617" lon="0.86665">
        <ele>174.5</ele>
        <time>2011-02-17T09:06:28Z</time>
      </trkpt>
      <trkpt lat="45.20602" lon="0.86654">
        <ele>176.1</ele>
        <time>2011-02-17T09:06:49Z</time>
      </trkpt>
      <trkpt lat="45.20583" lon="0.86649">
        <ele>176.1</ele>
        <time>2011-02-17T09:07:08Z</time>
      </trkpt>
      <trkpt lat="45.20563" lon="0.86635">
        <ele>178</ele>
        <time>2011-02-17T09:07:35Z</time>
      </trkpt>
      <trkpt lat="45.2055" lon="0.86625">
        <ele>178.9</ele>
        <time>2011-02-17T09:07:52Z</time>
      </trkpt>
      <trkpt lat="45.20535" lon="0.86617">
        <ele>180.5</ele>
        <time>2011-02-17T09:08:12Z</time>
      </trkpt>
      <trkpt lat="45.20516" lon="0.86622">
        <ele>180.6</ele>
        <time>2011-02-17T09:08:31Z</time>
      </trkpt>
      <trkpt lat="45.20496" lon="0.86619">
        <ele>182</ele>
        <time>2011-02-17T09:08:54Z</time>
      </trkpt>
      <trkpt lat="45.2048" lon="0.86621">
        <ele>182.6</ele>
        <time>2011-02-17T09:09:11Z</time>
      </trkpt>
      <trkpt lat="45.2046" lon="0.86616">
        <ele>185</ele>
        <time>2011-02-17T09:09:39Z</time>
      </trkpt>
      <trkpt lat="45.20436" lon="0.86613">
        <ele>185.9</ele>
        <time>2011-02-17T09:10:04Z</time>
      </trkpt>
      <trkpt lat="45.20413" lon="0.8661">
        <ele>186.1</ele>
        <time>2011-02-17T09:10:26Z</time>
      </trkpt>
      <trkpt lat="45.204" lon="0.86605">
        <ele>186.2</ele>
        <time>2011-02-17T09:10:39Z</time>
      </trkpt>
      <trkpt lat="45.20378" lon="0.86615">
        <ele>185.8</ele>
        <time>2011-02-17T09:11:00Z</time>
      </trkpt>
      <trkpt lat="45.20359" lon="0.86625">
        <ele>184.6</ele>
        <time>2011-02-17T09:11:18Z</time>
      </trkpt>
      <trkpt lat="45.20335" lon="0.86633">
        <ele>184.5</ele>
        <time>2011-02-17T09:11:41Z</time>
      </trkpt>
      <trkpt lat="45.20315" lon="0.8664">
        <ele>184.3</ele>
        <time>2011-02-17T09:12:00Z</time>
      </trkpt>
      <trkpt lat="45.20293" lon="0.86655">
        <ele>183.3</ele>
        <time>2011-02-17T09:12:22Z</time>
      </trkpt>
      <trkpt lat="45.20273" lon="0.86659">
        <ele>183.6</ele>
        <time>2011-02-17T09:12:42Z</time>
      </trkpt>
      <trkpt lat="45.20257" lon="0.86655">
        <ele>184.6</ele>
        <time>2011-02-17T09:13:00Z</time>
      </trkpt>
      <trkpt lat="45.20234" lon="0.86636">
        <ele>187.4</ele>
        <time>2011-02-17T09:13:35Z</time>
      </trkpt>
      <trkpt lat="45.20216" lon="0.86628">
        <ele>189.5</ele>
        <time>2011-02-17T09:14:00Z</time>
      </trkpt>
      <trkpt lat="45.20181" lon="0.86658">
        <ele>189.6</ele>
        <time>2011-02-17T09:14:40Z</time>
      </trkpt>
      <trkpt lat="45.20161" lon="0.86669">
        <ele>189.4</ele>
        <time>2011-02-17T09:14:59Z</time>
      </trkpt>
      <trkpt lat="45.20143" lon="0.8668">
        <ele>189.3</ele>
        <time>2011-02-17T09:15:18Z</time>
      </trkpt>
      <trkpt lat="45.20123" lon="0.86689">
        <ele>188.6</ele>
        <time>2011-02-17T09:15:37Z</time>
      </trkpt>
      <trkpt lat="45.20105" lon="0.86703">
        <ele>186.3</ele>
        <time>2011-02-17T09:15:57Z</time>
      </trkpt>
      <trkpt lat="45.20084" lon="0.8671">
        <ele>185.6</ele>
        <time>2011-02-17T09:16:16Z</time>
      </trkpt>
      <trkpt lat="45.20066" lon="0.86724">
        <ele>183.8</ele>
        <time>2011-02-17T09:16:35Z</time>
      </trkpt>
      <trkpt lat="45.20045" lon="0.86734">
        <ele>183.1</ele>
        <time>2011-02-17T09:16:56Z</time>
      </trkpt>
      <trkpt lat="45.20026" lon="0.8675">
        <ele>182.2</ele>
        <time>2011-02-17T09:17:15Z</time>
      </trkpt>
      <trkpt lat="45.20008" lon="0.8676">
        <ele>181.7</ele>
        <time>2011-02-17T09:17:33Z</time>
      </trkpt>
      <trkpt lat="45.1999" lon="0.86759">
        <ele>180.6</ele>
        <time>2011-02-17T09:17:48Z</time>
      </trkpt>
      <trkpt lat="45.19972" lon="0.86754">
        <ele>179.6</ele>
        <time>2011-02-17T09:18:05Z</time>
      </trkpt>
      <trkpt lat="45.19953" lon="0.86746">
        <ele>177.5</ele>
        <time>2011-02-17T09:18:24Z</time>
      </trkpt>
      <trkpt lat="45.19927" lon="0.86735">
        <ele>173.8</ele>
        <time>2011-02-17T09:18:57Z</time>
      </trkpt>
      <trkpt lat="45.19906" lon="0.86724">
        <ele>172.5</ele>
        <time>2011-02-17T09:19:17Z</time>
      </trkpt>
      <trkpt lat="45.19879" lon="0.86723">
        <ele>170</ele>
        <time>2011-02-17T09:19:42Z</time>
      </trkpt>
      <trkpt lat="45.19858" lon="0.86724">
        <ele>168.1</ele>
        <time>2011-02-17T09:20:02Z</time>
      </trkpt>
      <trkpt lat="45.19838" lon="0.8673">
        <ele>165.5</ele>
        <time>2011-02-17T09:20:26Z</time>
      </trkpt>
      <trkpt lat="45.19816" lon="0.86726">
        <ele>164.7</ele>
        <time>2011-02-17T09:20:45Z</time>
      </trkpt>
      <trkpt lat="45.19799" lon="0.86717">
        <ele>164.9</ele>
        <time>2011-02-17T09:21:03Z</time>
      </trkpt>
      <trkpt lat="45.19777" lon="0.86713">
        <ele>164.1</ele>
        <time>2011-02-17T09:21:23Z</time>
      </trkpt>
      <trkpt lat="45.19757" lon="0.86711">
        <ele>162.7</ele>
        <time>2011-02-17T09:21:41Z</time>
      </trkpt>
      <trkpt lat="45.19738" lon="0.86706">
        <ele>161.8</ele>
        <time>2011-02-17T09:21:58Z</time>
      </trkpt>
      <trkpt lat="45.19718" lon="0.86697">
        <ele>159.8</ele>
        <time>2011-02-17T09:22:18Z</time>
      </trkpt>
      <trkpt lat="45.197" lon="0.86684">
        <ele>158</ele>
        <time>2011-02-17T09:22:36Z</time>
      </trkpt>
      <trkpt lat="45.19678" lon="0.86662">
        <ele>156.1</ele>
        <time>2011-02-17T09:23:01Z</time>
      </trkpt>
      <trkpt lat="45.1966" lon="0.86639">
        <ele>155.3</ele>
        <time>2011-02-17T09:23:23Z</time>
      </trkpt>
      <trkpt lat="45.19637" lon="0.8663">
        <ele>153</ele>
        <time>2011-02-17T09:23:45Z</time>
      </trkpt>
      <trkpt lat="45.19621" lon="0.86627">
        <ele>151.3</ele>
        <time>2011-02-17T09:24:01Z</time>
      </trkpt>
      <trkpt lat="45.19608" lon="0.86633">
        <ele>149.7</ele>
        <time>2011-02-17T09:24:16Z</time>
      </trkpt>
      <trkpt lat="45.19591" lon="0.86657">
        <ele>147</ele>
        <time>2011-02-17T09:24:40Z</time>
      </trkpt>
      <trkpt lat="45.19574" lon="0.86683">
        <ele>145.1</ele>
        <time>2011-02-17T09:25:03Z</time>
      </trkpt>
      <trkpt lat="45.19557" lon="0.867">
        <ele>143.9</ele>
        <time>2011-02-17T09:25:21Z</time>
      </trkpt>
      <trkpt lat="45.19539" lon="0.86715">
        <ele>142.1</ele>
        <time>2011-02-17T09:25:40Z</time>
      </trkpt>
      <trkpt lat="45.19492" lon="0.86775">
        <ele>137.7</ele>
        <time>2011-02-17T09:26:38Z</time>
      </trkpt>
      <trkpt lat="45.19477" lon="0.8679">
        <ele>136.8</ele>
        <time>2011-02-17T09:26:54Z</time>
      </trkpt>
      <trkpt lat="45.1946" lon="0.86805">
        <ele>135.8</ele>
        <time>2011-02-17T09:27:12Z</time>
      </trkpt>
      <trkpt lat="45.19436" lon="0.86816">
        <ele>134</ele>
        <time>2011-02-17T09:27:34Z</time>
      </trkpt>
      <trkpt lat="45.19417" lon="0.8682">
        <ele>132.4</ele>
        <time>2011-02-17T09:27:52Z</time>
      </trkpt>
      <trkpt lat="45.19398" lon="0.86826">
        <ele>130.2</ele>
        <time>2011-02-17T09:28:13Z</time>
      </trkpt>
      <trkpt lat="45.19376" lon="0.86831">
        <ele>127.8</ele>
        <time>2011-02-17T09:28:34Z</time>
      </trkpt>
      <trkpt lat="45.19355" lon="0.86835">
        <ele>125.9</ele>
        <time>2011-02-17T09:28:54Z</time>
      </trkpt>
      <trkpt lat="45.19333" lon="0.86841">
        <ele>124.1</ele>
        <time>2011-02-17T09:29:15Z</time>
      </trkpt>
      <trkpt lat="45.19304" lon="0.86843">
        <ele>121.9</ele>
        <time>2011-02-17T09:29:41Z</time>
      </trkpt>
      <trkpt lat="45.1928" lon="0.86846">
        <ele>120.1</ele>
        <time>2011-02-17T09:30:03Z</time>
      </trkpt>
      <trkpt lat="45.1926" lon="0.8685">
        <ele>118.5</ele>
        <time>2011-02-17T09:30:21Z</time>
      </trkpt>
      <trkpt lat="45.19241" lon="0.86856">
        <ele>116.7</ele>
        <time>2011-02-17T09:30:40Z</time>
      </trkpt>
      <trkpt lat="45.19222" lon="0.86869">
        <ele>114.6</ele>
        <time>2011-02-17T09:31:00Z</time>
      </trkpt>
      <trkpt lat="45.19203" lon="0.8688">
        <ele>112.8</ele>
        <time>2011-02-17T09:31:20Z</time>
      </trkpt>
      <trkpt lat="45.19183" lon="0.86893">
        <ele>111.1</ele>
        <time>2011-02-17T09:31:39Z</time>
      </trkpt>
      <trkpt lat="45.1916" lon="0.86906">
        <ele>109.1</ele>
        <time>2011-02-17T09:32:02Z</time>
      </trkpt>
      <trkpt lat="45.19138" lon="0.86921">
        <ele>107.6</ele>
        <time>2011-02-17T09:32:23Z</time>
      </trkpt>
      <trkpt lat="45.19121" lon="0.86929">
        <ele>106.6</ele>
        <time>2011-02-17T09:32:39Z</time>
      </trkpt>
      <trkpt lat="45.19106" lon="0.8694">
        <ele>105.7</ele>
        <time>2011-02-17T09:32:54Z</time>
      </trkpt>
      <trkpt lat="45.19089" lon="0.86953">
        <ele>104.8</ele>
        <time>2011-02-17T09:33:11Z</time>
      </trkpt>
      <trkpt lat="45.19067" lon="0.86966">
        <ele>104</ele>
        <time>2011-02-17T09:33:32Z</time>
      </trkpt>
      <trkpt lat="45.19044" lon="0.86979">
        <ele>103.2</ele>
        <time>2011-02-17T09:33:55Z</time>
      </trkpt>
      <trkpt lat="45.19024" lon="0.86989">
        <ele>102.7</ele>
        <time>2011-02-17T09:34:13Z</time>
      </trkpt>
      <trkpt lat="45.19005" lon="0.87">
        <ele>102.3</ele>
        <time>2011-02-17T09:34:32Z</time>
      </trkpt>
      <trkpt lat="45.18988" lon="0.87009">
        <ele>102.1</ele>
        <time>2011-02-17T09:34:49Z</time>
      </trkpt>
      <trkpt lat="45.18969" lon="0.87019">
        <ele>102</ele>
        <time>2011-02-17T09:35:09Z</time>
      </trkpt>
      <trkpt lat="45.18951" lon="0.8703">
        <ele>102</ele>
        <time>2011-02-17T09:35:27Z</time>
      </trkpt>
      <trkpt lat="45.18934" lon="0.87041">
        <ele>101.9</ele>
        <time>2011-02-17T09:35:44Z</time>
      </trkpt>
      <trkpt lat="45.18911" lon="0.87054">
        <ele>101.4</ele>
        <time>2011-02-17T09:36:07Z</time>
      </trkpt>
      <trkpt lat="45.18903" lon="0.87059">
        <ele>101.2</ele>
        <time>2011-02-17T09:36:15Z</time>
      </trkpt>
      <trkpt lat="45.1892" lon="0.871">
        <ele>101</ele>
        <time>2011-02-17T09:36:46Z</time>
      </trkpt>
      <trkpt lat="45.1893" lon="0.87129">
        <ele>100.5</ele>
        <time>2011-02-17T09:37:07Z</time>
      </trkpt>
      <trkpt lat="45.18941" lon="0.87161">
        <ele>100</ele>
        <time>2011-02-17T09:37:30Z</time>
      </trkpt>
      <trkpt lat="45.18949" lon="0.87184">
        <ele>99.8</ele>
        <time>2011-02-17T09:37:46Z</time>
      </trkpt>
      <trkpt lat="45.18955" lon="0.8721">
        <ele>99.6</ele>
        <time>2011-02-17T09:38:04Z</time>
      </trkpt>
      <trkpt lat="45.18962" lon="0.87239">
        <ele>99.4</ele>
        <time>2011-02-17T09:38:24Z</time>
      </trkpt>
      <trkpt lat="45.18974" lon="0.87266">
        <ele>99.2</ele>
        <time>2011-02-17T09:38:46Z</time>
      </trkpt>
      <trkpt lat="45.18983" lon="0.87284">
        <ele>99.1</ele>
        <time>2011-02-17T09:39:01Z</time>
      </trkpt>
      <trkpt lat="45.18988" lon="0.87297">
        <ele>99.2</ele>
        <time>2011-02-17T09:39:11Z</time>
      </trkpt>
      <trkpt lat="45.18971" lon="0.87319">
        <ele>98.8</ele>
        <time>2011-02-17T09:39:32Z</time>
      </trkpt>
      <trkpt lat="45.18982" lon="0.87339">
        <ele>99</ele>
        <time>2011-02-17T09:39:50Z</time>
      </trkpt>
      <trkpt lat="45.18997" lon="0.87363">
        <ele>99.1</ele>
        <time>2011-02-17T09:40:12Z</time>
      </trkpt>
      <trkpt lat="45.19007" lon="0.87382">
        <ele>99.1</ele>
        <time>2011-02-17T09:40:28Z</time>
      </trkpt>
      <trkpt lat="45.19018" lon="0.87408">
        <ele>98.9</ele>
        <time>2011-02-17T09:40:47Z</time>
      </trkpt>
      <trkpt lat="45.19033" lon="0.87429">
        <ele>99.1</ele>
        <time>2011-02-17T09:41:08Z</time>
      </trkpt>
      <trkpt lat="45.19049" lon="0.87455">
        <ele>99.5</ele>
        <time>2011-02-17T09:41:33Z</time>
      </trkpt>
      <trkpt lat="45.19067" lon="0.8748">
        <ele>99.8</ele>
        <time>2011-02-17T09:41:57Z</time>
      </trkpt>
      <trkpt lat="45.19084" lon="0.87506">
        <ele>99.8</ele>
        <time>2011-02-17T09:42:21Z</time>
      </trkpt>
      <trkpt lat="45.19103" lon="0.87529">
        <ele>99.8</ele>
        <time>2011-02-17T09:42:45Z</time>
      </trkpt>
      <trkpt lat="45.19119" lon="0.87553">
        <ele>99.6</ele>
        <time>2011-02-17T09:43:06Z</time>
      </trkpt>
      <trkpt lat="45.19136" lon="0.87576">
        <ele>99.2</ele>
        <time>2011-02-17T09:43:28Z</time>
      </trkpt>
      <trkpt lat="45.19151" lon="0.87592">
        <ele>99</ele>
        <time>2011-02-17T09:43:45Z</time>
      </trkpt>
      <trkpt lat="45.19168" lon="0.87612">
        <ele>98.7</ele>
        <time>2011-02-17T09:44:06Z</time>
      </trkpt>
      <trkpt lat="45.19187" lon="0.87601">
        <ele>99</ele>
        <time>2011-02-17T09:44:26Z</time>
      </trkpt>
      <trkpt lat="45.19203" lon="0.8759">
        <ele>99.2</ele>
        <time>2011-02-17T09:44:42Z</time>
      </trkpt>
      <trkpt lat="45.19222" lon="0.8758">
        <ele>99.3</ele>
        <time>2011-02-17T09:45:02Z</time>
      </trkpt>
      <trkpt lat="45.19239" lon="0.87565">
        <ele>99.5</ele>
        <time>2011-02-17T09:45:22Z</time>
      </trkpt>
      <trkpt lat="45.19256" lon="0.87556">
        <ele>99.7</ele>
        <time>2011-02-17T09:45:40Z</time>
      </trkpt>
      <trkpt lat="45.19273" lon="0.87543">
        <ele>99.9</ele>
        <time>2011-02-17T09:45:59Z</time>
      </trkpt>
      <trkpt lat="45.19293" lon="0.87534">
        <ele>100</ele>
        <time>2011-02-17T09:46:18Z</time>
      </trkpt>
      <trkpt lat="45.19318" lon="0.87522">
        <ele>100.2</ele>
        <time>2011-02-17T09:46:44Z</time>
      </trkpt>
      <trkpt lat="45.19333" lon="0.87513">
        <ele>100.3</ele>
        <time>2011-02-17T09:47:00Z</time>
      </trkpt>
      <trkpt lat="45.19348" lon="0.87502">
        <ele>100.4</ele>
        <time>2011-02-17T09:47:16Z</time>
      </trkpt>
      <trkpt lat="45.19363" lon="0.87522">
        <ele>99.8</ele>
        <time>2011-02-17T09:47:35Z</time>
      </trkpt>
      <trkpt lat="45.19378" lon="0.87545">
        <ele>99</ele>
        <time>2011-02-17T09:47:54Z</time>
      </trkpt>
      <trkpt lat="45.19393" lon="0.87571">
        <ele>98.3</ele>
        <time>2011-02-17T09:48:16Z</time>
      </trkpt>
      <trkpt lat="45.19409" lon="0.87599">
        <ele>97.5</ele>
        <time>2011-02-17T09:48:38Z</time>
      </trkpt>
      <trkpt lat="45.19421" lon="0.8762">
        <ele>96.9</ele>
        <time>2011-02-17T09:48:55Z</time>
      </trkpt>
      <trkpt lat="45.19432" lon="0.87644">
        <ele>96.3</ele>
        <time>2011-02-17T09:49:13Z</time>
      </trkpt>
      <trkpt lat="45.19449" lon="0.8767">
        <ele>95.9</ele>
        <time>2011-02-17T09:49:36Z</time>
      </trkpt>
      <trkpt lat="45.19462" lon="0.87698">
        <ele>95.6</ele>
        <time>2011-02-17T09:49:58Z</time>
      </trkpt>
      <trkpt lat="45.19471" lon="0.87734">
        <ele>95.2</ele>
        <time>2011-02-17T09:50:23Z</time>
      </trkpt>
      <trkpt lat="45.19475" lon="0.8776">
        <ele>95.1</ele>
        <time>2011-02-17T09:50:41Z</time>
      </trkpt>
      <trkpt lat="45.19475" lon="0.87786">
        <ele>95</ele>
        <time>2011-02-17T09:50:58Z</time>
      </trkpt>
      <trkpt lat="45.19475" lon="0.8782">
        <ele>95.5</ele>
        <time>2011-02-17T09:51:22Z</time>
      </trkpt>
      <trkpt lat="45.19475" lon="0.87852">
        <ele>96</ele>
        <time>2011-02-17T09:51:45Z</time>
      </trkpt>
      <trkpt lat="45.19473" lon="0.87882">
        <ele>96.9</ele>
        <time>2011-02-17T09:52:07Z</time>
      </trkpt>
      <trkpt lat="45.19473" lon="0.87912">
        <ele>97.9</ele>
        <time>2011-02-17T09:52:30Z</time>
      </trkpt>
      <trkpt lat="45.19473" lon="0.87944">
        <ele>100</ele>
        <time>2011-02-17T09:52:59Z</time>
      </trkpt>
      <trkpt lat="45.19477" lon="0.87972">
        <ele>101.9</ele>
        <time>2011-02-17T09:53:24Z</time>
      </trkpt>
      <trkpt lat="45.19492" lon="0.87992">
        <ele>103.9</ele>
        <time>2011-02-17T09:53:50Z</time>
      </trkpt>
      <trkpt lat="45.19514" lon="0.87998">
        <ele>105</ele>
        <time>2011-02-17T09:54:14Z</time>
      </trkpt>
      <trkpt lat="45.19537" lon="0.88002">
        <ele>106.1</ele>
        <time>2011-02-17T09:54:39Z</time>
      </trkpt>
      <trkpt lat="45.19545" lon="0.88004">
        <ele>111.7</ele>
      </trkpt>
      <trkpt lat="45.19529" lon="0.88009">
        <ele>106.4</ele>
        <time>2011-02-17T09:55:18Z</time>
      </trkpt>
      <trkpt lat="45.19503" lon="0.88013">
        <ele>106.2</ele>
        <time>2011-02-17T09:55:42Z</time>
      </trkpt>
      <trkpt lat="45.19479" lon="0.88019">
        <ele>106.2</ele>
        <time>2011-02-17T09:56:05Z</time>
      </trkpt>
      <trkpt lat="45.19451" lon="0.88024">
        <ele>106.1</ele>
        <time>2011-02-17T09:56:31Z</time>
      </trkpt>
      <trkpt lat="45.19432" lon="0.88028">
        <ele>106</ele>
        <time>2011-02-17T09:56:50Z</time>
      </trkpt>
      <trkpt lat="45.19413" lon="0.88032">
        <ele>105.9</ele>
        <time>2011-02-17T09:57:08Z</time>
      </trkpt>
      <trkpt lat="45.19393" lon="0.88034">
        <ele>105.6</ele>
        <time>2011-02-17T09:57:26Z</time>
      </trkpt>
      <trkpt lat="45.19374" lon="0.88039">
        <ele>105.9</ele>
        <time>2011-02-17T09:57:45Z</time>
      </trkpt>
      <trkpt lat="45.19357" lon="0.88043">
        <ele>106.2</ele>
        <time>2011-02-17T09:58:02Z</time>
      </trkpt>
      <trkpt lat="45.1934" lon="0.88045">
        <ele>105.9</ele>
        <time>2011-02-17T09:58:18Z</time>
      </trkpt>
      <trkpt lat="45.19314" lon="0.88052">
        <ele>105.5</ele>
        <time>2011-02-17T09:58:42Z</time>
      </trkpt>
      <trkpt lat="45.19297" lon="0.88054">
        <ele>105.3</ele>
        <time>2011-02-17T09:58:58Z</time>
      </trkpt>
      <trkpt lat="45.19273" lon="0.88063">
        <ele>106.3</ele>
        <time>2011-02-17T09:59:24Z</time>
      </trkpt>
      <trkpt lat="45.19301" lon="0.88103">
        <ele>111.7</ele>
        <time>2011-02-17T10:00:21Z</time>
      </trkpt>
      <trkpt lat="45.19329" lon="0.88125">
        <ele>113.4</ele>
        <time>2011-02-17T10:00:57Z</time>
      </trkpt>
      <trkpt lat="45.19345" lon="0.88152">
        <ele>115.1</ele>
        <time>2011-02-17T10:01:25Z</time>
      </trkpt>
      <trkpt lat="45.19357" lon="0.88176">
        <ele>116.8</ele>
        <time>2011-02-17T10:01:50Z</time>
      </trkpt>
      <trkpt lat="45.19368" lon="0.88196">
        <ele>118.9</ele>
        <time>2011-02-17T10:02:14Z</time>
      </trkpt>
      <trkpt lat="45.19384" lon="0.88206">
        <ele>119.8</ele>
        <time>2011-02-17T10:02:33Z</time>
      </trkpt>
      <trkpt lat="45.19402" lon="0.88217">
        <ele>121</ele>
        <time>2011-02-17T10:02:56Z</time>
      </trkpt>
      <trkpt lat="45.19414" lon="0.88226">
        <ele>122.7</ele>
        <time>2011-02-17T10:03:14Z</time>
      </trkpt>
      <trkpt lat="45.19433" lon="0.88249">
        <ele>126.3</ele>
        <time>2011-02-17T10:03:52Z</time>
      </trkpt>
      <trkpt lat="45.19446" lon="0.88264">
        <ele>128.3</ele>
        <time>2011-02-17T10:04:15Z</time>
      </trkpt>
      <trkpt lat="45.19411" lon="0.88333">
        <ele>135.4</ele>
      </trkpt>
      <trkpt lat="45.19275" lon="0.88479">
        <ele>155.9</ele>
      </trkpt>
      <trkpt lat="45.19185" lon="0.88586">
        <ele>159.3</ele>
      </trkpt>
      <trkpt lat="45.19124" lon="0.88672">
        <ele>161.6</ele>
      </trkpt>
      <trkpt lat="45.19024" lon="0.88762">
        <ele>162.2</ele>
      </trkpt>
      <trkpt lat="45.18952" lon="0.88891">
        <ele>168.2</ele>
      </trkpt>
      <trkpt lat="45.18985" lon="0.88929">
        <ele>162.6</ele>
      </trkpt>
      <trkpt lat="45.19045" lon="0.88892">
        <ele>149.8</ele>
      </trkpt>
      <trkpt lat="45.19065" lon="0.88886">
        <ele>144</ele>
      </trkpt>
      <trkpt lat="45.19104" lon="0.88879">
        <ele>127.5</ele>
      </trkpt>
      <trkpt lat="45.19239" lon="0.88756">
        <ele>111.1</ele>
      </trkpt>
      <trkpt lat="45.19134" lon="0.88892">
        <ele>112</ele>
        <time>2011-02-16T10:10:41Z</time>
      </trkpt>
      <trkpt lat="45.1904" lon="0.8906">
        <ele>110.8</ele>
        <time>2011-02-16T10:08:13Z</time>
      </trkpt>
      <trkpt lat="45.18961" lon="0.89222">
        <ele>116.6</ele>
        <time>2011-02-16T10:06:11Z</time>
      </trkpt>
      <trkpt lat="45.18911" lon="0.89397">
        <ele>147.4</ele>
      </trkpt>
      <trkpt lat="45.18852" lon="0.89436">
        <ele>159.3</ele>
      </trkpt>
      <trkpt lat="45.18825" lon="0.89467">
        <ele>180.8</ele>
      </trkpt>
      <trkpt lat="45.18874" lon="0.89579">
        <ele>158.2</ele>
      </trkpt>
      <trkpt lat="45.1881" lon="0.89709">
        <ele>165</ele>
        <time>2011-02-16T09:58:06Z</time>
      </trkpt>
      <trkpt lat="45.18799" lon="0.89767">
        <ele>173.8</ele>
        <time>2011-02-16T09:57:01Z</time>
      </trkpt>
      <trkpt lat="45.18777" lon="0.89995">
        <ele>199.1</ele>
        <time>2011-02-16T09:53:24Z</time>
      </trkpt>
      <trkpt lat="45.18776" lon="0.90005">
        <ele>200</ele>
        <time>2011-02-16T09:53:15Z</time>
      </trkpt>
      <trkpt lat="45.18817" lon="0.9007">
        <ele>213.9</ele>
      </trkpt>
      <trkpt lat="45.18856" lon="0.90212">
        <ele>213.5</ele>
        <time>2011-02-16T09:50:27Z</time>
      </trkpt>
      <trkpt lat="45.18842" lon="0.90344">
        <ele>224</ele>
        <time>2011-02-16T09:48:46Z</time>
      </trkpt>
      <trkpt lat="45.18842" lon="0.9035">
        <ele>224</ele>
        <time>2011-02-17T08:39:54Z</time>
      </trkpt>
      <trkpt lat="45.18808" lon="0.90283">
        <ele>226.1</ele>
      </trkpt>
      <trkpt lat="45.18739" lon="0.90199">
        <ele>221.5</ele>
      </trkpt>
      <trkpt lat="45.1867" lon="0.9006">
        <ele>201.7</ele>
        <time>2011-02-17T08:34:28Z</time>
      </trkpt>
      <trkpt lat="45.18669" lon="0.90046">
        <ele>201.1</ele>
        <time>2011-02-17T08:34:18Z</time>
      </trkpt>
      <trkpt lat="45.18651" lon="0.89921">
        <ele>198.1</ele>
        <time>2011-02-17T08:32:44Z</time>
      </trkpt>
      <trkpt lat="45.18633" lon="0.89854">
        <ele>198.5</ele>
        <time>2011-02-17T08:31:57Z</time>
      </trkpt>
      <trkpt lat="45.18628" lon="0.89673">
        <ele>202.2</ele>
      </trkpt>
      <trkpt lat="45.1868" lon="0.89474">
        <ele>207.6</ele>
      </trkpt>
      <trkpt lat="45.18702" lon="0.89415">
        <ele>208.6</ele>
      </trkpt>
      <trkpt lat="45.18731" lon="0.89321">
        <ele>208.2</ele>
      </trkpt>
      <trkpt lat="45.18632" lon="0.89391">
        <ele>206.9</ele>
        <time>2011-02-17T08:24:44Z</time>
      </trkpt>
      <trkpt lat="45.18597" lon="0.89414">
        <ele>207.3</ele>
        <time>2011-02-17T08:24:08Z</time>
      </trkpt>
      <trkpt lat="45.18527" lon="0.89477">
        <ele>206</ele>
        <time>2011-02-17T08:22:47Z</time>
      </trkpt>
      <trkpt lat="45.18456" lon="0.89501">
        <ele>208</ele>
        <time>2011-02-17T08:21:41Z</time>
      </trkpt>
      <trkpt lat="45.18443" lon="0.89492">
        <ele>209.6</ele>
        <time>2011-02-17T08:21:27Z</time>
      </trkpt>
      <trkpt lat="45.18427" lon="0.89477">
        <ele>211.9</ele>
        <time>2011-02-17T08:21:05Z</time>
      </trkpt>
      <trkpt lat="45.18395" lon="0.89459">
        <ele>215.1</ele>
        <time>2011-02-17T08:20:32Z</time>
      </trkpt>
      <trkpt lat="45.18385" lon="0.89465">
        <ele>215.6</ele>
        <time>2011-02-17T08:20:23Z</time>
      </trkpt>
      <trkpt lat="45.18363" lon="0.89499">
        <ele>215.2</ele>
        <time>2011-02-17T08:19:50Z</time>
      </trkpt>
      <trkpt lat="45.18351" lon="0.89519">
        <ele>215.2</ele>
        <time>2011-02-17T08:19:33Z</time>
      </trkpt>
      <trkpt lat="45.18325" lon="0.89572">
        <ele>214.1</ele>
        <time>2011-02-17T08:18:47Z</time>
      </trkpt>
      <trkpt lat="45.18323" lon="0.89589">
        <ele>213.5</ele>
        <time>2011-02-17T08:18:34Z</time>
      </trkpt>
      <trkpt lat="45.18323" lon="0.89707">
        <ele>209.5</ele>
        <time>2011-02-17T08:17:04Z</time>
      </trkpt>
      <trkpt lat="45.18329" lon="0.8972">
        <ele>209.6</ele>
        <time>2011-02-17T08:16:54Z</time>
      </trkpt>
      <trkpt lat="45.18346" lon="0.89753">
        <ele>217.5</ele>
      </trkpt>
      <trkpt lat="45.18329" lon="0.89774">
        <ele>214.5</ele>
      </trkpt>
      <trkpt lat="45.18299" lon="0.89864">
        <ele>203.7</ele>
      </trkpt>
      <trkpt lat="45.18338" lon="0.89979">
        <ele>199.6</ele>
      </trkpt>
      <trkpt lat="45.18373" lon="0.90108">
        <ele>187.8</ele>
      </trkpt>
      <trkpt lat="45.18417" lon="0.90261">
        <ele>171.9</ele>
        <time>2011-02-17T08:08:23Z</time>
      </trkpt>
      <trkpt lat="45.18417" lon="0.90285">
        <ele>169.7</ele>
        <time>2011-02-17T08:07:59Z</time>
      </trkpt>
      <trkpt lat="45.18422" lon="0.90345">
        <ele>172</ele>
        <time>2011-02-17T08:07:22Z</time>
      </trkpt>
      <trkpt lat="45.18393" lon="0.90381">
        <ele>178.9</ele>
        <time>2011-02-17T08:06:26Z</time>
      </trkpt>
      <trkpt lat="45.18401" lon="0.90416">
        <ele>182</ele>
        <time>2011-02-17T08:05:58Z</time>
      </trkpt>
      <trkpt lat="45.18393" lon="0.90456">
        <ele>183.8</ele>
        <time>2011-02-17T08:05:32Z</time>
      </trkpt>
      <trkpt lat="45.18367" lon="0.90487">
        <ele>187.8</ele>
        <time>2011-02-17T08:04:54Z</time>
      </trkpt>
      <trkpt lat="45.18299" lon="0.90556">
        <ele>195.1</ele>
        <time>2011-02-17T08:03:36Z</time>
      </trkpt>
      <trkpt lat="45.18278" lon="0.90601">
        <ele>196</ele>
        <time>2011-02-17T08:03:02Z</time>
      </trkpt>
      <trkpt lat="45.18258" lon="0.90679">
        <ele>199.3</ele>
        <time>2011-02-17T08:02:10Z</time>
      </trkpt>
      <trkpt lat="45.1826" lon="0.90772">
        <ele>205.5</ele>
        <time>2011-02-17T08:01:08Z</time>
      </trkpt>
      <trkpt lat="45.18257" lon="0.90779">
        <ele>210</ele>
      </trkpt>
      <trkpt lat="45.18198" lon="0.90765">
        <ele>210.4</ele>
      </trkpt>
    </trkseg>
  </trk>
</gpx>